Wetterdaten: Montag, 29.05.2017
Datum Zeit Temp. A. Pool Temp. Feuchte A. Luftdruck Regen Wind Richtung Richtung Sonnenschein ET UV Solar Taupunkt Windchill Windben Empfang
29.05.2017 00:00 16,8 C 23,3 C 69 % 1016,9 hPa 0,0 l/m 3,0 km/h (1 Bft) O-NO 69 0 min 0,000 mm 0,0 UV-I 0 W/m 11,1 C 16,8 C 4,8 km/h (1 Bft) 97,87 %
29.05.2017 00:02 16,8 C 23,3 C 69 % 1016,9 hPa 0,0 l/m 3,3 km/h (1 Bft) O-NO 69 0 min 0,000 mm 0,0 UV-I 0 W/m 11,1 C 16,8 C 4,8 km/h (1 Bft) 94,59 %
29.05.2017 00:04 16,8 C 23,3 C 69 % 1017,0 hPa 0,0 l/m 2,4 km/h (1 Bft) O-NO 69 0 min 0,000 mm 0,0 UV-I 0 W/m 11,1 C 16,8 C 4,8 km/h (1 Bft) 100,00 %
29.05.2017 00:06 16,8 C 23,3 C 69 % 1017,0 hPa 0,0 l/m 3,7 km/h (1 Bft) O-NO 69 0 min 0,000 mm 0,0 UV-I 0 W/m 11,1 C 16,8 C 4,8 km/h (1 Bft) 96,43 %
29.05.2017 00:08 16,8 C 23,3 C 69 % 1016,9 hPa 0,0 l/m 3,5 km/h (1 Bft) O-NO 69 0 min 0,000 mm 0,0 UV-I 0 W/m 11,1 C 16,8 C 4,8 km/h (1 Bft) 98,21 %
29.05.2017 00:10 16,8 C 23,3 C 69 % 1016,9 hPa 0,0 l/m 3,4 km/h (1 Bft) O-NO 69 0 min 0,000 mm 0,0 UV-I 0 W/m 11,1 C 16,8 C 4,8 km/h (1 Bft) 97,37 %
29.05.2017 00:12 16,8 C 23,3 C 69 % 1016,9 hPa 0,0 l/m 4,5 km/h (1 Bft) O-NO 71 0 min 0,000 mm 0,0 UV-I 0 W/m 11,1 C 16,8 C 6,4 km/h (2 Bft) 98,11 %
29.05.2017 00:14 16,8 C 23,3 C 69 % 1016,9 hPa 0,0 l/m 4,6 km/h (1 Bft) O-NO 71 0 min 0,000 mm 0,0 UV-I 0 W/m 11,1 C 16,8 C 6,4 km/h (2 Bft) 97,56 %
29.05.2017 00:16 16,9 C 23,3 C 69 % 1016,9 hPa 0,0 l/m 5,1 km/h (1 Bft) O 85 0 min 0,000 mm 0,0 UV-I 0 W/m 11,2 C 16,9 C 8,0 km/h (2 Bft) 98,00 %
29.05.2017 00:18 16,9 C 23,3 C 68 % 1016,9 hPa 0,0 l/m 5,9 km/h (2 Bft) O-SO 106 0 min 0,000 mm 0,0 UV-I 0 W/m 11,0 C 16,9 C 11,3 km/h (2 Bft) 96,00 %
29.05.2017 00:20 17,0 C 23,3 C 68 % 1016,9 hPa 0,0 l/m 5,0 km/h (1 Bft) O-NO 66 0 min 0,000 mm 0,0 UV-I 0 W/m 11,0 C 17,0 C 8,0 km/h (2 Bft) 95,12 %
29.05.2017 00:22 17,0 C 23,3 C 68 % 1016,9 hPa 0,0 l/m 4,0 km/h (1 Bft) O-NO 76 0 min 0,000 mm 0,0 UV-I 0 W/m 11,0 C 17,0 C 6,4 km/h (2 Bft) 92,00 %
29.05.2017 00:24 17,0 C 23,3 C 68 % 1016,9 hPa 0,0 l/m 4,3 km/h (1 Bft) O 96 0 min 0,000 mm 0,0 UV-I 0 W/m 11,0 C 17,0 C 6,4 km/h (2 Bft) 96,00 %
29.05.2017 00:26 17,0 C 23,3 C 68 % 1016,9 hPa 0,0 l/m 2,7 km/h (1 Bft) O 96 0 min 0,000 mm 0,0 UV-I 0 W/m 11,0 C 17,0 C 4,8 km/h (1 Bft) 92,11 %
29.05.2017 00:28 16,8 C 23,3 C 69 % 1017,0 hPa 0,0 l/m 1,9 km/h (1 Bft) O 88 0 min 0,000 mm 0,0 UV-I 0 W/m 11,1 C 16,8 C 4,8 km/h (1 Bft) 95,74 %
29.05.2017 00:30 16,4 C 23,3 C 71 % 1016,9 hPa 0,0 l/m 1,5 km/h (1 Bft) O 90 0 min 0,000 mm 0,0 UV-I 0 W/m 11,1 C 16,4 C 4,8 km/h (1 Bft) 96,00 %
29.05.2017 00:32 16,1 C 23,3 C 72 % 1016,9 hPa 0,0 l/m 1,2 km/h (1 Bft) O 90 0 min 0,000 mm 0,0 UV-I 0 W/m 11,0 C 16,1 C 3,2 km/h (1 Bft) 96,00 %
29.05.2017 00:34 15,8 C 23,3 C 73 % 1016,9 hPa 0,0 l/m 2,2 km/h (1 Bft) O 90 0 min 0,000 mm 0,0 UV-I 0 W/m 11,0 C 15,8 C 4,8 km/h (1 Bft) 92,11 %
29.05.2017 00:36 15,8 C 23,3 C 73 % 1016,9 hPa 0,0 l/m 2,6 km/h (1 Bft) O-NO 77 0 min 0,000 mm 0,0 UV-I 0 W/m 11,0 C 15,8 C 4,8 km/h (1 Bft) 92,45 %
29.05.2017 00:38 15,7 C 23,3 C 73 % 1016,8 hPa 0,0 l/m 1,5 km/h (1 Bft) O-NO 78 0 min 0,000 mm 0,0 UV-I 0 W/m 10,9 C 15,7 C 3,2 km/h (1 Bft) 94,00 %
29.05.2017 00:40 15,6 C 23,3 C 74 % 1016,9 hPa 0,0 l/m 1,3 km/h (1 Bft) O-NO 78 0 min 0,000 mm 0,0 UV-I 0 W/m 11,0 C 15,6 C 4,8 km/h (1 Bft) 96,67 %
29.05.2017 00:42 15,4 C 23,3 C 74 % 1016,9 hPa 0,0 l/m 0,0 km/h (0 Bft) O-NO 78 0 min 0,000 mm 0,0 UV-I 0 W/m 10,8 C 15,4 C 1,6 km/h (1 Bft) 91,04 %
29.05.2017 00:44 15,2 C 23,3 C 76 % 1016,9 hPa 0,0 l/m 3,1 km/h (1 Bft) O-NO 78 0 min 0,000 mm 0,0 UV-I 0 W/m 11,0 C 15,2 C 6,4 km/h (2 Bft) 97,22 %
29.05.2017 00:46 15,1 C 23,3 C 76 % 1016,9 hPa 0,0 l/m 3,8 km/h (1 Bft) O-NO 78 0 min 0,000 mm 0,0 UV-I 0 W/m 10,9 C 15,1 C 6,4 km/h (2 Bft) 93,62 %
29.05.2017 00:48 15,2 C 23,3 C 75 % 1016,8 hPa 0,0 l/m 3,3 km/h (1 Bft) O-NO 78 0 min 0,000 mm 0,0 UV-I 0 W/m 10,8 C 15,2 C 4,8 km/h (1 Bft) 91,49 %
29.05.2017 00:50 15,3 C 23,3 C 75 % 1016,8 hPa 0,0 l/m 2,5 km/h (1 Bft) O-NO 78 0 min 0,000 mm 0,0 UV-I 0 W/m 10,9 C 15,3 C 4,8 km/h (1 Bft) 94,00 %
29.05.2017 00:52 15,1 C 23,3 C 76 % 1016,8 hPa 0,0 l/m 1,6 km/h (1 Bft) O-NO 78 0 min 0,000 mm 0,0 UV-I 0 W/m 10,9 C 15,1 C 3,2 km/h (1 Bft) 96,00 %
29.05.2017 00:54 14,8 C 23,3 C 77 % 1016,8 hPa 0,0 l/m 1,2 km/h (1 Bft) O-NO 78 0 min 0,000 mm 0,0 UV-I 0 W/m 10,8 C 14,8 C 3,2 km/h (1 Bft) 92,68 %
29.05.2017 00:56 14,6 C 23,3 C 78 % 1016,8 hPa 0,0 l/m 0,6 km/h (0 Bft) O-NO 78 0 min 0,000 mm 0,0 UV-I 0 W/m 10,8 C 14,6 C 3,2 km/h (1 Bft) 100,00 %
29.05.2017 00:58 14,5 C 23,3 C 78 % 1016,8 hPa 0,0 l/m 0,0 km/h (0 Bft) O-NO 78 0 min 0,000 mm 0,0 UV-I 0 W/m 10,7 C 14,5 C 0,0 km/h (0 Bft) 100,00 %
29.05.2017 01:00 14,4 C 23,3 C 79 % 1016,8 hPa 0,0 l/m 0,7 km/h (0 Bft) O-NO 78 0 min 0,025 mm 0,0 UV-I 0 W/m 10,8 C 14,4 C 3,2 km/h (1 Bft) 100,00 %
29.05.2017 01:02 14,3 C 23,3 C 79 % 1016,8 hPa 0,0 l/m 0,2 km/h (0 Bft) O-NO 78 0 min 0,000 mm 0,0 UV-I 0 W/m 10,7 C 14,3 C 1,6 km/h (1 Bft) 100,00 %
29.05.2017 01:04 14,3 C 23,3 C 80 % 1016,8 hPa 0,0 l/m 0,0 km/h (0 Bft) O-NO 78 0 min 0,000 mm 0,0 UV-I 0 W/m 10,9 C 14,3 C 1,6 km/h (1 Bft) 100,00 %
29.05.2017 01:06 14,3 C 23,3 C 80 % 1016,9 hPa 0,0 l/m 0,0 km/h (0 Bft) O-NO 78 0 min 0,000 mm 0,0 UV-I 0 W/m 10,9 C 14,3 C 0,0 km/h (0 Bft) 96,00 %
29.05.2017 01:08 14,2 C 23,3 C 80 % 1016,8 hPa 0,0 l/m 0,3 km/h (0 Bft) O-NO 78 0 min 0,000 mm 0,0 UV-I 0 W/m 10,8 C 14,2 C 1,6 km/h (1 Bft) 100,00 %
29.05.2017 01:10 14,1 C 23,3 C 80 % 1016,8 hPa 0,0 l/m 0,7 km/h (0 Bft) O-NO 78 0 min 0,000 mm 0,0 UV-I 0 W/m 10,7 C 14,1 C 3,2 km/h (1 Bft) 94,34 %
29.05.2017 01:12 14,1 C 23,3 C 80 % 1016,9 hPa 0,0 l/m 0,0 km/h (0 Bft) O-NO 78 0 min 0,000 mm 0,0 UV-I 0 W/m 10,7 C 14,1 C 0,0 km/h (0 Bft) 100,00 %
29.05.2017 01:14 13,9 C 23,3 C 81 % 1016,8 hPa 0,0 l/m 0,7 km/h (0 Bft) O-NO 78 0 min 0,000 mm 0,0 UV-I 0 W/m 10,7 C 13,9 C 3,2 km/h (1 Bft) 100,00 %
29.05.2017 01:16 13,8 C 23,3 C 81 % 1016,8 hPa 0,0 l/m 1,0 km/h (0 Bft) O-NO 78 0 min 0,000 mm 0,0 UV-I 0 W/m 10,6 C 13,8 C 3,2 km/h (1 Bft) 100,00 %
29.05.2017 01:18 13,8 C 23,3 C 81 % 1016,8 hPa 0,0 l/m 1,6 km/h (1 Bft) O-NO 78 0 min 0,000 mm 0,0 UV-I 0 W/m 10,6 C 13,8 C 3,2 km/h (1 Bft) 98,00 %
29.05.2017 01:20 13,7 C 23,3 C 82 % 1016,8 hPa 0,0 l/m 0,8 km/h (0 Bft) O-NO 78 0 min 0,000 mm 0,0 UV-I 0 W/m 10,7 C 13,7 C 3,2 km/h (1 Bft) 98,08 %
29.05.2017 01:22 13,7 C 23,3 C 82 % 1016,8 hPa 0,0 l/m 0,9 km/h (0 Bft) O-NO 78 0 min 0,000 mm 0,0 UV-I 0 W/m 10,7 C 13,7 C 1,6 km/h (1 Bft) 97,44 %
29.05.2017 01:24 13,6 C 23,3 C 82 % 1016,7 hPa 0,0 l/m 0,0 km/h (0 Bft) O-NO 78 0 min 0,000 mm 0,0 UV-I 0 W/m 10,6 C 13,6 C 0,0 km/h (0 Bft) 100,00 %
29.05.2017 01:26 13,6 C 23,3 C 82 % 1016,7 hPa 0,0 l/m 0,0 km/h (0 Bft) O-NO 78 0 min 0,000 mm 0,0 UV-I 0 W/m 10,6 C 13,6 C 0,0 km/h (0 Bft) 98,11 %
29.05.2017 01:28 13,6 C 23,3 C 82 % 1016,7 hPa 0,0 l/m 0,0 km/h (0 Bft) O-NO 78 0 min 0,000 mm 0,0 UV-I 0 W/m 10,6 C 13,6 C 0,0 km/h (0 Bft) 100,00 %
29.05.2017 01:30 13,6 C 23,3 C 83 % 1016,7 hPa 0,0 l/m 0,7 km/h (0 Bft) O-NO 78 0 min 0,000 mm 0,0 UV-I 0 W/m 10,8 C 13,6 C 1,6 km/h (1 Bft) 96,88 %
29.05.2017 01:32 13,6 C 23,3 C 83 % 1016,7 hPa 0,0 l/m 2,2 km/h (1 Bft) O-NO 78 0 min 0,000 mm 0,0 UV-I 0 W/m 10,8 C 13,6 C 3,2 km/h (1 Bft) 100,00 %
29.05.2017 01:34 13,6 C 23,3 C 82 % 1016,6 hPa 0,0 l/m 1,1 km/h (1 Bft) O-NO 78 0 min 0,000 mm 0,0 UV-I 0 W/m 10,6 C 13,6 C 3,2 km/h (1 Bft) 98,11 %
29.05.2017 01:36 13,6 C 23,3 C 82 % 1016,7 hPa 0,0 l/m 1,0 km/h (0 Bft) O-NO 78 0 min 0,000 mm 0,0 UV-I 0 W/m 10,6 C 13,6 C 3,2 km/h (1 Bft) 100,00 %
29.05.2017 01:38 13,4 C 23,3 C 82 % 1016,7 hPa 0,0 l/m 1,8 km/h (1 Bft) O-NO 78 0 min 0,000 mm 0,0 UV-I 0 W/m 10,4 C 13,4 C 3,2 km/h (1 Bft) 100,00 %
29.05.2017 01:40 13,3 C 23,3 C 82 % 1016,7 hPa 0,0 l/m 1,5 km/h (1 Bft) O-NO 78 0 min 0,000 mm 0,0 UV-I 0 W/m 10,3 C 13,3 C 3,2 km/h (1 Bft) 98,00 %
29.05.2017 01:42 13,3 C 23,3 C 83 % 1016,6 hPa 0,0 l/m 2,1 km/h (1 Bft) O-NO 78 0 min 0,000 mm 0,0 UV-I 0 W/m 10,5 C 13,3 C 3,2 km/h (1 Bft) 100,00 %
29.05.2017 01:44 13,3 C 23,3 C 83 % 1016,6 hPa 0,0 l/m 1,0 km/h (0 Bft) O-NO 78 0 min 0,000 mm 0,0 UV-I 0 W/m 10,5 C 13,3 C 1,6 km/h (1 Bft) 97,87 %
29.05.2017 01:46 13,2 C 23,3 C 83 % 1016,6 hPa 0,0 l/m 0,8 km/h (0 Bft) O-NO 78 0 min 0,000 mm 0,0 UV-I 0 W/m 10,4 C 13,2 C 3,2 km/h (1 Bft) 100,00 %
29.05.2017 01:48 13,3 C 23,3 C 84 % 1016,6 hPa 0,0 l/m 1,7 km/h (1 Bft) O-NO 78 0 min 0,000 mm 0,0 UV-I 0 W/m 10,7 C 13,3 C 3,2 km/h (1 Bft) 98,00 %
29.05.2017 01:50 13,4 C 23,3 C 83 % 1016,6 hPa 0,0 l/m 1,3 km/h (1 Bft) O-NO 78 0 min 0,000 mm 0,0 UV-I 0 W/m 10,6 C 13,4 C 3,2 km/h (1 Bft) 100,00 %
29.05.2017 01:52 13,4 C 23,3 C 83 % 1016,6 hPa 0,0 l/m 2,0 km/h (1 Bft) O-NO 78 0 min 0,000 mm 0,0 UV-I 0 W/m 10,6 C 13,4 C 3,2 km/h (1 Bft) 97,87 %
29.05.2017 01:54 13,3 C 23,3 C 83 % 1016,6 hPa 0,0 l/m 2,8 km/h (1 Bft) O-NO 78 0 min 0,000 mm 0,0 UV-I 0 W/m 10,5 C 13,3 C 4,8 km/h (1 Bft) 98,00 %
29.05.2017 01:56 13,2 C 23,3 C 83 % 1016,5 hPa 0,0 l/m 2,4 km/h (1 Bft) O-NO 78 0 min 0,000 mm 0,0 UV-I 0 W/m 10,4 C 13,2 C 3,2 km/h (1 Bft) 100,00 %
29.05.2017 01:58 13,1 C 23,3 C 83 % 1016,5 hPa 0,0 l/m 0,8 km/h (0 Bft) O-NO 78 0 min 0,000 mm 0,0 UV-I 0 W/m 10,3 C 13,1 C 3,2 km/h (1 Bft) 97,92 %
29.05.2017 02:00 12,9 C 23,3 C 84 % 1016,5 hPa 0,0 l/m 0,6 km/h (0 Bft) O-NO 78 0 min 0,000 mm 0,0 UV-I 0 W/m 10,3 C 12,9 C 1,6 km/h (1 Bft) 100,00 %
29.05.2017 02:02 12,9 C 23,3 C 84 % 1016,5 hPa 0,0 l/m 0,8 km/h (0 Bft) O-NO 78 0 min 0,000 mm 0,0 UV-I 0 W/m 10,3 C 12,9 C 1,6 km/h (1 Bft) 100,00 %
29.05.2017 02:04 12,8 C 23,3 C 85 % 1016,5 hPa 0,0 l/m 0,0 km/h (0 Bft) O-NO 78 0 min 0,000 mm 0,0 UV-I 0 W/m 10,3 C 12,8 C 0,0 km/h (0 Bft) 97,37 %
29.05.2017 02:06 12,9 C 23,3 C 85 % 1016,5 hPa 0,0 l/m 0,8 km/h (0 Bft) O-NO 78 0 min 0,000 mm 0,0 UV-I 0 W/m 10,4 C 12,9 C 3,2 km/h (1 Bft) 100,00 %
29.05.2017 02:08 12,9 C 23,3 C 85 % 1016,5 hPa 0,0 l/m 3,2 km/h (1 Bft) O-NO 78 0 min 0,000 mm 0,0 UV-I 0 W/m 10,4 C 12,9 C 4,8 km/h (1 Bft) 100,00 %
29.05.2017 02:10 12,8 C 23,3 C 84 % 1016,4 hPa 0,0 l/m 1,7 km/h (1 Bft) O 79 0 min 0,000 mm 0,0 UV-I 0 W/m 10,2 C 12,8 C 3,2 km/h (1 Bft) 100,00 %
29.05.2017 02:12 12,7 C 23,3 C 85 % 1016,4 hPa 0,0 l/m 1,9 km/h (1 Bft) O 79 0 min 0,000 mm 0,0 UV-I 0 W/m 10,2 C 12,7 C 3,2 km/h (1 Bft) 100,00 %
29.05.2017 02:14 12,6 C 23,3 C 85 % 1016,3 hPa 0,0 l/m 0,3 km/h (0 Bft) O 79 0 min 0,000 mm 0,0 UV-I 0 W/m 10,1 C 12,6 C 1,6 km/h (1 Bft) 100,00 %
29.05.2017 02:16 12,4 C 22,8 C 85 % 1016,3 hPa 0,0 l/m 0,6 km/h (0 Bft) O 79 0 min 0,000 mm 0,0 UV-I 0 W/m 9,9 C 12,4 C 3,2 km/h (1 Bft) 100,00 %
29.05.2017 02:18 12,4 C 22,8 C 86 % 1016,3 hPa 0,0 l/m 3,4 km/h (1 Bft) O 84 0 min 0,000 mm 0,0 UV-I 0 W/m 10,1 C 12,4 C 4,8 km/h (1 Bft) 98,11 %
29.05.2017 02:20 12,5 C 22,8 C 86 % 1016,3 hPa 0,0 l/m 2,8 km/h (1 Bft) O 84 0 min 0,000 mm 0,0 UV-I 0 W/m 10,2 C 12,5 C 3,2 km/h (1 Bft) 100,00 %
29.05.2017 02:22 12,6 C 22,8 C 87 % 1016,3 hPa 0,0 l/m 1,7 km/h (1 Bft) O 84 0 min 0,000 mm 0,0 UV-I 0 W/m 10,5 C 12,6 C 3,2 km/h (1 Bft) 96,43 %
29.05.2017 02:24 12,7 C 22,8 C 86 % 1016,3 hPa 0,0 l/m 0,0 km/h (0 Bft) O 84 0 min 0,000 mm 0,0 UV-I 0 W/m 10,4 C 12,7 C 0,0 km/h (0 Bft) 97,37 %
29.05.2017 02:26 12,6 C 22,8 C 86 % 1016,3 hPa 0,0 l/m 0,0 km/h (0 Bft) O 84 0 min 0,000 mm 0,0 UV-I 0 W/m 10,3 C 12,6 C 0,0 km/h (0 Bft) 100,00 %
29.05.2017 02:28 12,6 C 22,8 C 86 % 1016,3 hPa 0,0 l/m 0,6 km/h (0 Bft) O 84 0 min 0,000 mm 0,0 UV-I 0 W/m 10,3 C 12,6 C 1,6 km/h (1 Bft) 100,00 %
29.05.2017 02:30 12,6 C 22,8 C 86 % 1016,2 hPa 0,0 l/m 1,6 km/h (1 Bft) O 84 0 min 0,000 mm 0,0 UV-I 0 W/m 10,3 C 12,6 C 3,2 km/h (1 Bft) 98,11 %
29.05.2017 02:32 12,5 C 22,8 C 86 % 1016,2 hPa 0,0 l/m 0,9 km/h (0 Bft) O 84 0 min 0,000 mm 0,0 UV-I 0 W/m 10,2 C 12,5 C 3,2 km/h (1 Bft) 98,00 %
29.05.2017 02:34 12,4 C 22,8 C 86 % 1016,2 hPa 0,0 l/m 0,0 km/h (0 Bft) O 84 0 min 0,000 mm 0,0 UV-I 0 W/m 10,1 C 12,4 C 1,6 km/h (1 Bft) 94,87 %
29.05.2017 02:36 12,4 C 22,8 C 86 % 1016,2 hPa 0,0 l/m 0,1 km/h (0 Bft) O 84 0 min 0,000 mm 0,0 UV-I 0 W/m 10,1 C 12,4 C 1,6 km/h (1 Bft) 96,36 %
29.05.2017 02:38 12,4 C 22,8 C 86 % 1016,1 hPa 0,0 l/m 0,1 km/h (0 Bft) O 84 0 min 0,000 mm 0,0 UV-I 0 W/m 10,1 C 12,4 C 1,6 km/h (1 Bft) 95,74 %
29.05.2017 02:40 12,3 C 22,8 C 86 % 1016,2 hPa 0,0 l/m 0,8 km/h (0 Bft) O 84 0 min 0,000 mm 0,0 UV-I 0 W/m 10,0 C 12,3 C 3,2 km/h (1 Bft) 97,22 %
29.05.2017 02:42 12,4 C 22,8 C 86 % 1016,2 hPa 0,0 l/m 1,6 km/h (1 Bft) O 84 0 min 0,000 mm 0,0 UV-I 0 W/m 10,1 C 12,4 C 3,2 km/h (1 Bft) 96,23 %
29.05.2017 02:44 12,4 C 22,8 C 87 % 1016,2 hPa 0,0 l/m 0,2 km/h (0 Bft) O 84 0 min 0,000 mm 0,0 UV-I 0 W/m 10,3 C 12,4 C 1,6 km/h (1 Bft) 94,00 %
29.05.2017 02:46 12,4 C 22,8 C 87 % 1016,1 hPa 0,0 l/m 0,3 km/h (0 Bft) O 84 0 min 0,000 mm 0,0 UV-I 0 W/m 10,3 C 12,4 C 1,6 km/h (1 Bft) 97,87 %
29.05.2017 02:48 12,3 C 22,8 C 87 % 1016,1 hPa 0,0 l/m 0,0 km/h (0 Bft) O 84 0 min 0,000 mm 0,0 UV-I 0 W/m 10,2 C 12,3 C 0,0 km/h (0 Bft) 95,45 %
29.05.2017 02:50 12,2 C 22,8 C 87 % 1016,1 hPa 0,0 l/m 0,0 km/h (0 Bft) O 84 0 min 0,000 mm 0,0 UV-I 0 W/m 10,1 C 12,2 C 0,0 km/h (0 Bft) 98,00 %
29.05.2017 02:52 12,3 C 22,8 C 87 % 1016,2 hPa 0,0 l/m 0,0 km/h (0 Bft) O 84 0 min 0,000 mm 0,0 UV-I 0 W/m 10,2 C 12,3 C 0,0 km/h (0 Bft) 97,87 %
29.05.2017 02:54 12,3 C 22,8 C 87 % 1016,2 hPa 0,0 l/m 0,0 km/h (0 Bft) O 84 0 min 0,000 mm 0,0 UV-I 0 W/m 10,2 C 12,3 C 1,6 km/h (1 Bft) 94,00 %
29.05.2017 02:56 12,3 C 22,8 C 87 % 1016,2 hPa 0,0 l/m 1,0 km/h (0 Bft) O 84 0 min 0,000 mm 0,0 UV-I 0 W/m 10,2 C 12,3 C 3,2 km/h (1 Bft) 97,37 %
29.05.2017 02:58 12,2 C 22,8 C 87 % 1016,2 hPa 0,0 l/m 2,2 km/h (1 Bft) O 84 0 min 0,000 mm 0,0 UV-I 0 W/m 10,1 C 12,2 C 3,2 km/h (1 Bft) 98,00 %
29.05.2017 03:00 12,1 C 22,8 C 87 % 1016,1 hPa 0,0 l/m 0,9 km/h (0 Bft) O 84 0 min 0,000 mm 0,0 UV-I 0 W/m 10,0 C 12,1 C 3,2 km/h (1 Bft) 97,87 %
29.05.2017 03:02 12,1 C 22,8 C 88 % 1016,1 hPa 0,0 l/m 0,3 km/h (0 Bft) O 84 0 min 0,000 mm 0,0 UV-I 0 W/m 10,2 C 12,1 C 1,6 km/h (1 Bft) 97,87 %
29.05.2017 03:04 11,9 C 22,8 C 88 % 1016,1 hPa 0,0 l/m 0,1 km/h (0 Bft) O 84 0 min 0,000 mm 0,0 UV-I 0 W/m 10,0 C 11,9 C 1,6 km/h (1 Bft) 97,87 %
29.05.2017 03:06 11,8 C 22,8 C 87 % 1016,1 hPa 0,0 l/m 0,5 km/h (0 Bft) O 84 0 min 0,000 mm 0,0 UV-I 0 W/m 9,7 C 11,8 C 1,6 km/h (1 Bft) 98,00 %
29.05.2017 03:08 11,9 C 22,8 C 89 % 1016,1 hPa 0,0 l/m 2,7 km/h (1 Bft) O-SO 107 0 min 0,000 mm 0,0 UV-I 0 W/m 10,1 C 11,9 C 4,8 km/h (1 Bft) 97,87 %
29.05.2017 03:10 11,9 C 22,8 C 89 % 1016,1 hPa 0,0 l/m 1,2 km/h (1 Bft) O-SO 107 0 min 0,000 mm 0,0 UV-I 0 W/m 10,1 C 11,9 C 3,2 km/h (1 Bft) 97,37 %
29.05.2017 03:12 12,0 C 22,8 C 89 % 1016,1 hPa 0,0 l/m 2,2 km/h (1 Bft) O-SO 107 0 min 0,000 mm 0,0 UV-I 0 W/m 10,2 C 12,0 C 3,2 km/h (1 Bft) 95,74 %
29.05.2017 03:14 12,0 C 22,8 C 88 % 1016,1 hPa 0,0 l/m 1,7 km/h (1 Bft) O-SO 107 0 min 0,000 mm 0,0 UV-I 0 W/m 10,1 C 12,0 C 3,2 km/h (1 Bft) 94,00 %
29.05.2017 03:16 12,0 C 22,8 C 88 % 1016,1 hPa 0,0 l/m 0,9 km/h (0 Bft) O-SO 107 0 min 0,000 mm 0,0 UV-I 0 W/m 10,1 C 12,0 C 3,2 km/h (1 Bft) 98,00 %
29.05.2017 03:18 11,9 C 22,8 C 88 % 1016,1 hPa 0,0 l/m 0,7 km/h (0 Bft) O-SO 107 0 min 0,000 mm 0,0 UV-I 0 W/m 10,0 C 11,9 C 3,2 km/h (1 Bft) 97,87 %
29.05.2017 03:20 11,8 C 22,8 C 88 % 1016,1 hPa 0,0 l/m 0,1 km/h (0 Bft) O-SO 107 0 min 0,000 mm 0,0 UV-I 0 W/m 9,9 C 11,8 C 1,6 km/h (1 Bft) 97,92 %
29.05.2017 03:22 11,8 C 22,8 C 89 % 1016,1 hPa 0,0 l/m 0,3 km/h (0 Bft) O-SO 107 0 min 0,000 mm 0,0 UV-I 0 W/m 10,0 C 11,8 C 1,6 km/h (1 Bft) 98,00 %
29.05.2017 03:24 11,8 C 22,8 C 89 % 1016,0 hPa 0,0 l/m 0,7 km/h (0 Bft) O-SO 107 0 min 0,000 mm 0,0 UV-I 0 W/m 10,0 C 11,8 C 1,6 km/h (1 Bft) 94,29 %
29.05.2017 03:26 11,8 C 22,8 C 89 % 1016,0 hPa 0,0 l/m 0,2 km/h (0 Bft) O-SO 107 0 min 0,000 mm 0,0 UV-I 0 W/m 10,0 C 11,8 C 1,6 km/h (1 Bft) 97,87 %
29.05.2017 03:28 11,8 C 22,8 C 89 % 1015,9 hPa 0,0 l/m 0,2 km/h (0 Bft) O-SO 107 0 min 0,000 mm 0,0 UV-I 0 W/m 10,0 C 11,8 C 1,6 km/h (1 Bft) 97,87 %
29.05.2017 03:30 11,8 C 22,8 C 89 % 1015,9 hPa 0,0 l/m 1,1 km/h (1 Bft) O-SO 107 0 min 0,000 mm 0,0 UV-I 0 W/m 10,0 C 11,8 C 3,2 km/h (1 Bft) 98,11 %
29.05.2017 03:32 11,8 C 22,8 C 89 % 1015,9 hPa 0,0 l/m 3,2 km/h (1 Bft) O-SO 107 0 min 0,000 mm 0,0 UV-I 0 W/m 10,0 C 11,8 C 3,2 km/h (1 Bft) 95,74 %
29.05.2017 03:34 11,8 C 22,8 C 89 % 1015,9 hPa 0,0 l/m 1,2 km/h (1 Bft) O-SO 107 0 min 0,000 mm 0,0 UV-I 0 W/m 10,0 C 11,8 C 3,2 km/h (1 Bft) 97,37 %
29.05.2017 03:36 11,8 C 22,8 C 90 % 1015,9 hPa 0,0 l/m 0,0 km/h (0 Bft) O-SO 107 0 min 0,000 mm 0,0 UV-I 0 W/m 10,2 C 11,8 C 0,0 km/h (0 Bft) 96,23 %
29.05.2017 03:38 11,9 C 22,8 C 90 % 1015,9 hPa 0,0 l/m 0,0 km/h (0 Bft) O-SO 107 0 min 0,000 mm 0,0 UV-I 0 W/m 10,3 C 11,9 C 0,0 km/h (0 Bft) 96,00 %
29.05.2017 03:40 11,9 C 22,8 C 89 % 1015,9 hPa 0,0 l/m 0,1 km/h (0 Bft) O-SO 107 0 min 0,000 mm 0,0 UV-I 0 W/m 10,1 C 11,9 C 1,6 km/h (1 Bft) 97,87 %
29.05.2017 03:42 11,9 C 22,8 C 89 % 1015,9 hPa 0,0 l/m 1,2 km/h (1 Bft) O-SO 107 0 min 0,000 mm 0,0 UV-I 0 W/m 10,1 C 11,9 C 3,2 km/h (1 Bft) 95,12 %
29.05.2017 03:44 11,9 C 22,8 C 89 % 1015,8 hPa 0,0 l/m 0,7 km/h (0 Bft) O-SO 107 0 min 0,000 mm 0,0 UV-I 0 W/m 10,1 C 11,9 C 1,6 km/h (1 Bft) 98,11 %
29.05.2017 03:46 11,8 C 22,8 C 89 % 1015,8 hPa 0,0 l/m 0,5 km/h (0 Bft) O-SO 107 0 min 0,000 mm 0,0 UV-I 0 W/m 10,0 C 11,8 C 1,6 km/h (1 Bft) 96,30 %
29.05.2017 03:48 11,7 C 22,8 C 88 % 1015,8 hPa 0,0 l/m 0,3 km/h (0 Bft) O-SO 107 0 min 0,000 mm 0,0 UV-I 0 W/m 9,8 C 11,7 C 1,6 km/h (1 Bft) 98,44 %
29.05.2017 03:50 11,7 C 22,8 C 89 % 1015,8 hPa 0,0 l/m 0,1 km/h (0 Bft) O-SO 107 0 min 0,000 mm 0,0 UV-I 0 W/m 9,9 C 11,7 C 1,6 km/h (1 Bft) 97,87 %
29.05.2017 03:52 11,7 C 22,8 C 90 % 1015,7 hPa 0,0 l/m 0,0 km/h (0 Bft) O-SO 107 0 min 0,000 mm 0,0 UV-I 0 W/m 10,1 C 11,7 C 1,6 km/h (1 Bft) 97,87 %
29.05.2017 03:54 11,7 C 22,8 C 89 % 1015,7 hPa 0,0 l/m 0,0 km/h (0 Bft) O-SO 107 0 min 0,000 mm 0,0 UV-I 0 W/m 9,9 C 11,7 C 1,6 km/h (1 Bft) 96,00 %
29.05.2017 03:56 11,8 C 22,8 C 90 % 1015,7 hPa 0,0 l/m 0,0 km/h (0 Bft) O-SO 107 0 min 0,000 mm 0,0 UV-I 0 W/m 10,2 C 11,8 C 0,0 km/h (0 Bft) 95,74 %
29.05.2017 03:58 11,9 C 22,8 C 90 % 1015,7 hPa 0,0 l/m 0,5 km/h (0 Bft) O-SO 107 0 min 0,000 mm 0,0 UV-I 0 W/m 10,3 C 11,9 C 1,6 km/h (1 Bft) 97,44 %
29.05.2017 04:00 11,9 C 22,8 C 89 % 1015,7 hPa 0,0 l/m 0,8 km/h (0 Bft) O-SO 107 0 min 0,000 mm 0,0 UV-I 0 W/m 10,1 C 11,9 C 1,6 km/h (1 Bft) 94,34 %
29.05.2017 04:02 11,9 C 22,8 C 89 % 1015,7 hPa 0,0 l/m 0,7 km/h (0 Bft) O-SO 107 0 min 0,000 mm 0,0 UV-I 0 W/m 10,1 C 11,9 C 3,2 km/h (1 Bft) 100,00 %
29.05.2017 04:04 11,9 C 22,8 C 88 % 1015,6 hPa 0,0 l/m 0,1 km/h (0 Bft) O-SO 107 0 min 0,000 mm 0,0 UV-I 0 W/m 10,0 C 11,9 C 1,6 km/h (1 Bft) 100,00 %
29.05.2017 04:06 11,9 C 22,8 C 88 % 1015,6 hPa 0,0 l/m 0,3 km/h (0 Bft) O-SO 107 0 min 0,000 mm 0,0 UV-I 0 W/m 10,0 C 11,9 C 1,6 km/h (1 Bft) 97,87 %
29.05.2017 04:08 11,9 C 22,8 C 89 % 1015,6 hPa 0,0 l/m 0,1 km/h (0 Bft) O-SO 107 0 min 0,000 mm 0,0 UV-I 0 W/m 10,1 C 11,9 C 1,6 km/h (1 Bft) 100,00 %
29.05.2017 04:10 11,9 C 22,8 C 89 % 1015,6 hPa 0,0 l/m 0,1 km/h (0 Bft) O-SO 107 0 min 0,000 mm 0,0 UV-I 0 W/m 10,1 C 11,9 C 1,6 km/h (1 Bft) 98,11 %
29.05.2017 04:12 12,0 C 22,8 C 89 % 1015,6 hPa 0,0 l/m 0,0 km/h (0 Bft) O-SO 107 0 min 0,000 mm 0,0 UV-I 0 W/m 10,2 C 12,0 C 0,0 km/h (0 Bft) 97,87 %
29.05.2017 04:14 12,0 C 22,8 C 89 % 1015,6 hPa 0,0 l/m 0,0 km/h (0 Bft) O-SO 107 0 min 0,000 mm 0,0 UV-I 0 W/m 10,2 C 12,0 C 0,0 km/h (0 Bft) 100,00 %
29.05.2017 04:16 12,0 C 22,8 C 89 % 1015,6 hPa 0,0 l/m 0,0 km/h (0 Bft) O-SO 107 0 min 0,000 mm 0,0 UV-I 0 W/m 10,2 C 12,0 C 0,0 km/h (0 Bft) 97,14 %
29.05.2017 04:18 11,9 C 22,8 C 88 % 1015,6 hPa 0,0 l/m 0,0 km/h (0 Bft) O-SO 107 0 min 0,000 mm 0,0 UV-I 0 W/m 10,0 C 11,9 C 0,0 km/h (0 Bft) 100,00 %
29.05.2017 04:20 11,9 C 22,8 C 88 % 1015,6 hPa 0,0 l/m 0,0 km/h (0 Bft) O-SO 107 0 min 0,000 mm 0,0 UV-I 0 W/m 10,0 C 11,9 C 0,0 km/h (0 Bft) 97,87 %
29.05.2017 04:22 11,8 C 22,8 C 88 % 1015,6 hPa 0,0 l/m 0,8 km/h (0 Bft) O-SO 107 0 min 0,000 mm 0,0 UV-I 0 W/m 9,9 C 11,8 C 3,2 km/h (1 Bft) 100,00 %
29.05.2017 04:24 11,7 C 22,8 C 88 % 1015,6 hPa 0,0 l/m 2,2 km/h (1 Bft) O-SO 107 0 min 0,000 mm 0,0 UV-I 0 W/m 9,8 C 11,7 C 3,2 km/h (1 Bft) 98,00 %
29.05.2017 04:26 11,5 C 22,8 C 89 % 1015,6 hPa 0,0 l/m 1,8 km/h (1 Bft) O-SO 107 0 min 0,000 mm 0,0 UV-I 0 W/m 9,8 C 11,5 C 3,2 km/h (1 Bft) 97,87 %
29.05.2017 04:28 11,4 C 22,8 C 89 % 1015,6 hPa 0,0 l/m 0,2 km/h (0 Bft) O-SO 107 0 min 0,000 mm 0,0 UV-I 0 W/m 9,7 C 11,4 C 1,6 km/h (1 Bft) 100,00 %
29.05.2017 04:30 11,3 C 22,8 C 89 % 1015,6 hPa 0,0 l/m 0,0 km/h (0 Bft) O-SO 107 0 min 0,000 mm 0,0 UV-I 0 W/m 9,6 C 11,3 C 0,0 km/h (0 Bft) 100,00 %
29.05.2017 04:32 11,3 C 22,8 C 90 % 1015,5 hPa 0,0 l/m 0,0 km/h (0 Bft) O-SO 107 0 min 0,000 mm 0,0 UV-I 0 W/m 9,7 C 11,3 C 0,0 km/h (0 Bft) 100,00 %
29.05.2017 04:34 11,3 C 22,8 C 90 % 1015,5 hPa 0,0 l/m 0,0 km/h (0 Bft) O-SO 107 0 min 0,000 mm 0,0 UV-I 0 W/m 9,7 C 11,3 C 0,0 km/h (0 Bft) 98,00 %
29.05.2017 04:36 11,2 C 22,8 C 90 % 1015,5 hPa 0,0 l/m 0,0 km/h (0 Bft) O-SO 107 0 min 0,000 mm 0,0 UV-I 0 W/m 9,6 C 11,2 C 0,0 km/h (0 Bft) 94,87 %
29.05.2017 04:38 11,2 C 22,8 C 90 % 1015,5 hPa 0,0 l/m 0,0 km/h (0 Bft) O-SO 107 0 min 0,000 mm 0,0 UV-I 0 W/m 9,6 C 11,2 C 0,0 km/h (0 Bft) 97,87 %
29.05.2017 04:40 11,2 C 22,8 C 90 % 1015,5 hPa 0,0 l/m 0,0 km/h (0 Bft) O-SO 107 0 min 0,000 mm 0,0 UV-I 0 W/m 9,6 C 11,2 C 0,0 km/h (0 Bft) 96,00 %
29.05.2017 04:42 11,2 C 22,8 C 91 % 1015,5 hPa 0,0 l/m 0,0 km/h (0 Bft) O-SO 107 0 min 0,000 mm 0,0 UV-I 0 W/m 9,8 C 11,2 C 0,0 km/h (0 Bft) 98,00 %
29.05.2017 04:44 11,2 C 22,8 C 91 % 1015,5 hPa 0,0 l/m 0,0 km/h (0 Bft) O-SO 107 0 min 0,000 mm 0,0 UV-I 0 W/m 9,8 C 11,2 C 0,0 km/h (0 Bft) 95,74 %
29.05.2017 04:46 11,3 C 22,8 C 90 % 1015,5 hPa 0,0 l/m 0,0 km/h (0 Bft) O-SO 107 0 min 0,000 mm 0,0 UV-I 0 W/m 9,7 C 11,3 C 0,0 km/h (0 Bft) 95,74 %
29.05.2017 04:48 11,3 C 22,8 C 90 % 1015,6 hPa 0,0 l/m 0,0 km/h (0 Bft) O-SO 107 0 min 0,000 mm 0,0 UV-I 0 W/m 9,7 C 11,3 C 0,0 km/h (0 Bft) 94,00 %
29.05.2017 04:50 11,3 C 22,8 C 90 % 1015,6 hPa 0,0 l/m 0,0 km/h (0 Bft) O-SO 107 0 min 0,000 mm 0,0 UV-I 0 W/m 9,7 C 11,3 C 0,0 km/h (0 Bft) 94,29 %
29.05.2017 04:52 11,3 C 22,8 C 90 % 1015,6 hPa 0,0 l/m 0,0 km/h (0 Bft) O-SO 107 0 min 0,000 mm 0,0 UV-I 1 W/m 9,7 C 11,3 C 0,0 km/h (0 Bft) 94,00 %
29.05.2017 04:54 11,2 C 22,8 C 90 % 1015,5 hPa 0,0 l/m 0,0 km/h (0 Bft) O-SO 107 0 min 0,000 mm 0,0 UV-I 5 W/m 9,6 C 11,2 C 0,0 km/h (0 Bft) 95,74 %
29.05.2017 04:56 11,2 C 22,8 C 90 % 1015,5 hPa 0,0 l/m 0,0 km/h (0 Bft) O-SO 107 0 min 0,000 mm 0,0 UV-I 5 W/m 9,6 C 11,2 C 0,0 km/h (0 Bft) 95,74 %
29.05.2017 04:58 11,1 C 22,8 C 90 % 1015,4 hPa 0,0 l/m 0,2 km/h (0 Bft) O-SO 107 0 min 0,000 mm 0,0 UV-I 5 W/m 9,5 C 11,1 C 1,6 km/h (1 Bft) 93,62 %
29.05.2017 05:00 10,9 C 22,8 C 90 % 1015,4 hPa 0,0 l/m 1,4 km/h (1 Bft) O-SO 107 0 min 0,000 mm 0,0 UV-I 5 W/m 9,3 C 10,9 C 3,2 km/h (1 Bft) 98,11 %
29.05.2017 05:02 10,9 C 22,8 C 90 % 1015,4 hPa 0,0 l/m 0,5 km/h (0 Bft) O-SO 107 0 min 0,000 mm 0,0 UV-I 5 W/m 9,3 C 10,9 C 3,2 km/h (1 Bft) 92,11 %
29.05.2017 05:04 10,9 C 22,8 C 91 % 1015,4 hPa 0,0 l/m 0,0 km/h (0 Bft) O-SO 107 0 min 0,000 mm 0,0 UV-I 5 W/m 9,5 C 10,9 C 1,6 km/h (1 Bft) 97,87 %
29.05.2017 05:06 10,9 C 22,8 C 91 % 1015,5 hPa 0,0 l/m 0,0 km/h (0 Bft) O-SO 107 0 min 0,000 mm 0,0 UV-I 6 W/m 9,5 C 10,9 C 0,0 km/h (0 Bft) 95,83 %
29.05.2017 05:08 11,0 C 22,8 C 91 % 1015,5 hPa 0,0 l/m 0,0 km/h (0 Bft) O-SO 107 0 min 0,000 mm 0,0 UV-I 7 W/m 9,6 C 11,0 C 0,0 km/h (0 Bft) 98,00 %
29.05.2017 05:10 10,9 C 22,8 C 91 % 1015,5 hPa 0,0 l/m 0,0 km/h (0 Bft) O-SO 107 0 min 0,000 mm 0,0 UV-I 7 W/m 9,5 C 10,9 C 1,6 km/h (1 Bft) 100,00 %
29.05.2017 05:12 10,9 C 22,8 C 91 % 1015,5 hPa 0,0 l/m 0,0 km/h (0 Bft) O-SO 107 0 min 0,000 mm 0,0 UV-I 9 W/m 9,5 C 10,9 C 0,0 km/h (0 Bft) 94,87 %
29.05.2017 05:14 10,9 C 22,8 C 91 % 1015,5 hPa 0,0 l/m 0,0 km/h (0 Bft) O-SO 107 0 min 0,000 mm 0,0 UV-I 9 W/m 9,5 C 10,9 C 0,0 km/h (0 Bft) 100,00 %
29.05.2017 05:16 10,9 C 22,8 C 91 % 1015,5 hPa 0,0 l/m 0,6 km/h (0 Bft) O-SO 107 0 min 0,000 mm 0,0 UV-I 9 W/m 9,5 C 10,9 C 1,6 km/h (1 Bft) 96,00 %
29.05.2017 05:18 10,8 C 22,8 C 90 % 1015,6 hPa 0,0 l/m 2,5 km/h (1 Bft) O-SO 107 0 min 0,000 mm 0,0 UV-I 11 W/m 9,2 C 10,8 C 3,2 km/h (1 Bft) 97,87 %
29.05.2017 05:20 10,7 C 22,8 C 91 % 1015,5 hPa 0,0 l/m 3,4 km/h (1 Bft) O-SO 107 0 min 0,000 mm 0,0 UV-I 12 W/m 9,3 C 10,7 C 4,8 km/h (1 Bft) 97,56 %
29.05.2017 05:22 10,7 C 22,8 C 91 % 1015,6 hPa 0,0 l/m 2,0 km/h (1 Bft) O-SO 107 2 min 0,000 mm 0,0 UV-I 13 W/m 9,3 C 10,7 C 4,8 km/h (1 Bft) 100,00 %
29.05.2017 05:24 10,7 C 22,8 C 91 % 1015,5 hPa 0,0 l/m 0,5 km/h (0 Bft) O-SO 107 2 min 0,000 mm 0,0 UV-I 15 W/m 9,3 C 10,7 C 3,2 km/h (1 Bft) 100,00 %
29.05.2017 05:26 10,7 C 22,8 C 91 % 1015,5 hPa 0,0 l/m 0,2 km/h (0 Bft) O-SO 107 2 min 0,000 mm 0,0 UV-I 17 W/m 9,3 C 10,7 C 1,6 km/h (1 Bft) 97,87 %
29.05.2017 05:28 10,7 C 22,8 C 91 % 1015,5 hPa 0,0 l/m 1,5 km/h (1 Bft) O-SO 107 2 min 0,000 mm 0,0 UV-I 23 W/m 9,3 C 10,7 C 3,2 km/h (1 Bft) 94,74 %
29.05.2017 05:30 10,7 C 22,8 C 92 % 1015,5 hPa 0,0 l/m 2,7 km/h (1 Bft) O-SO 107 2 min 0,000 mm 0,0 UV-I 28 W/m 9,5 C 10,7 C 3,2 km/h (1 Bft) 100,00 %
29.05.2017 05:32 10,8 C 22,8 C 92 % 1015,6 hPa 0,0 l/m 3,8 km/h (1 Bft) O-SO 107 2 min 0,000 mm 0,0 UV-I 31 W/m 9,6 C 10,8 C 4,8 km/h (1 Bft) 97,87 %
29.05.2017 05:34 10,9 C 22,8 C 92 % 1015,6 hPa 0,0 l/m 3,6 km/h (1 Bft) O-SO 108 2 min 0,000 mm 0,0 UV-I 36 W/m 9,7 C 10,9 C 4,8 km/h (1 Bft) 100,00 %
29.05.2017 05:36 11,0 C 22,8 C 92 % 1015,6 hPa 0,0 l/m 2,4 km/h (1 Bft) O-SO 108 2 min 0,000 mm 0,0 UV-I 40 W/m 9,8 C 11,0 C 4,8 km/h (1 Bft) 98,00 %
29.05.2017 05:38 11,1 C 22,8 C 92 % 1015,6 hPa 0,0 l/m 0,6 km/h (0 Bft) O-SO 108 2 min 0,000 mm 0,0 UV-I 44 W/m 9,8 C 11,1 C 3,2 km/h (1 Bft) 97,37 %
29.05.2017 05:40 11,1 C 22,8 C 92 % 1015,5 hPa 0,0 l/m 0,6 km/h (0 Bft) O-SO 108 2 min 0,000 mm 0,0 UV-I 47 W/m 9,8 C 11,1 C 3,2 km/h (1 Bft) 96,00 %
29.05.2017 05:42 11,1 C 22,2 C 91 % 1015,5 hPa 0,0 l/m 0,2 km/h (0 Bft) O-SO 108 2 min 0,000 mm 0,0 UV-I 49 W/m 9,7 C 11,1 C 1,6 km/h (1 Bft) 94,74 %
29.05.2017 05:44 11,0 C 22,8 C 91 % 1015,6 hPa 0,0 l/m 0,1 km/h (0 Bft) O-SO 108 2 min 0,000 mm 0,0 UV-I 50 W/m 9,6 C 11,0 C 1,6 km/h (1 Bft) 100,00 %
29.05.2017 05:46 10,9 C 22,2 C 91 % 1015,5 hPa 0,0 l/m 0,3 km/h (0 Bft) O-SO 108 2 min 0,000 mm 0,0 UV-I 47 W/m 9,5 C 10,9 C 1,6 km/h (1 Bft) 98,11 %
29.05.2017 05:48 11,0 C 22,2 C 92 % 1015,6 hPa 0,0 l/m 0,6 km/h (0 Bft) O-SO 108 0 min 0,000 mm 0,0 UV-I 43 W/m 9,8 C 11,0 C 1,6 km/h (1 Bft) 97,56 %
29.05.2017 05:50 11,1 C 22,2 C 92 % 1015,6 hPa 0,0 l/m 0,9 km/h (0 Bft) O-SO 108 0 min 0,000 mm 0,0 UV-I 43 W/m 9,8 C 11,1 C 3,2 km/h (1 Bft) 100,00 %
29.05.2017 05:52 11,2 C 22,2 C 92 % 1015,6 hPa 0,0 l/m 0,1 km/h (0 Bft) O-SO 108 0 min 0,000 mm 0,0 UV-I 46 W/m 9,9 C 11,2 C 1,6 km/h (1 Bft) 98,00 %
29.05.2017 05:54 11,3 C 22,2 C 91 % 1015,6 hPa 0,0 l/m 0,0 km/h (0 Bft) O-SO 108 0 min 0,000 mm 0,0 UV-I 44 W/m 9,9 C 11,3 C 0,0 km/h (0 Bft) 100,00 %
29.05.2017 05:56 11,3 C 22,2 C 91 % 1015,6 hPa 0,0 l/m 0,0 km/h (0 Bft) O-SO 108 0 min 0,000 mm 0,0 UV-I 38 W/m 9,9 C 11,3 C 0,0 km/h (0 Bft) 97,44 %
29.05.2017 05:58 11,3 C 22,2 C 91 % 1015,6 hPa 0,0 l/m 0,0 km/h (0 Bft) O-SO 108 0 min 0,000 mm 0,0 UV-I 35 W/m 9,9 C 11,3 C 0,0 km/h (0 Bft) 100,00 %
29.05.2017 06:00 11,4 C 22,2 C 91 % 1015,6 hPa 0,0 l/m 0,1 km/h (0 Bft) O-SO 108 0 min 0,026 mm 0,0 UV-I 36 W/m 10,0 C 11,4 C 1,6 km/h (1 Bft) 100,00 %
29.05.2017 06:02 11,4 C 22,2 C 91 % 1015,7 hPa 0,0 l/m 0,7 km/h (0 Bft) O-SO 108 0 min 0,000 mm 0,0 UV-I 39 W/m 10,0 C 11,4 C 3,2 km/h (1 Bft) 100,00 %
29.05.2017 06:04 11,5 C 22,2 C 91 % 1015,8 hPa 0,0 l/m 0,4 km/h (0 Bft) O-SO 108 0 min 0,000 mm 0,0 UV-I 43 W/m 10,1 C 11,5 C 1,6 km/h (1 Bft) 98,00 %
29.05.2017 06:06 11,6 C 22,2 C 90 % 1015,8 hPa 0,0 l/m 0,1 km/h (0 Bft) O-SO 108 0 min 0,000 mm 0,0 UV-I 49 W/m 10,0 C 11,6 C 1,6 km/h (1 Bft) 94,74 %
29.05.2017 06:08 11,5 C 22,2 C 90 % 1015,8 hPa 0,0 l/m 0,4 km/h (0 Bft) O-SO 108 0 min 0,000 mm 0,0 UV-I 59 W/m 9,9 C 11,5 C 1,6 km/h (1 Bft) 100,00 %
29.05.2017 06:10 11,4 C 22,2 C 90 % 1015,8 hPa 0,0 l/m 0,0 km/h (0 Bft) O-SO 108 0 min 0,000 mm 0,0 UV-I 67 W/m 9,8 C 11,4 C 0,0 km/h (0 Bft) 100,00 %
29.05.2017 06:12 11,4 C 22,2 C 90 % 1015,8 hPa 0,0 l/m 0,0 km/h (0 Bft) O-SO 108 0 min 0,000 mm 0,0 UV-I 75 W/m 9,8 C 11,4 C 0,0 km/h (0 Bft) 100,00 %
29.05.2017 06:14 11,2 C 22,2 C 90 % 1015,8 hPa 0,0 l/m 0,2 km/h (0 Bft) O-SO 108 0 min 0,000 mm 0,0 UV-I 69 W/m 9,6 C 11,2 C 1,6 km/h (1 Bft) 94,00 %
29.05.2017 06:16 11,2 C 22,2 C 90 % 1015,8 hPa 0,0 l/m 2,1 km/h (1 Bft) O-SO 108 0 min 0,000 mm 0,0 UV-I 54 W/m 9,6 C 11,2 C 4,8 km/h (1 Bft) 97,87 %
29.05.2017 06:18 11,2 C 22,2 C 91 % 1015,8 hPa 0,0 l/m 1,6 km/h (1 Bft) O-SO 108 0 min 0,000 mm 0,0 UV-I 39 W/m 9,8 C 11,2 C 3,2 km/h (1 Bft) 93,62 %
29.05.2017 06:20 11,3 C 22,2 C 90 % 1015,7 hPa 0,0 l/m 0,1 km/h (0 Bft) O-SO 108 0 min 0,000 mm 0,0 UV-I 38 W/m 9,7 C 11,3 C 1,6 km/h (1 Bft) 95,12 %
29.05.2017 06:22 11,4 C 22,2 C 91 % 1015,7 hPa 0,0 l/m 0,2 km/h (0 Bft) O-SO 108 0 min 0,000 mm 0,0 UV-I 44 W/m 10,0 C 11,4 C 1,6 km/h (1 Bft) 97,87 %
29.05.2017 06:24 11,6 C 22,2 C 91 % 1015,7 hPa 0,0 l/m 0,7 km/h (0 Bft) O-SO 108 0 min 0,000 mm 0,0 UV-I 62 W/m 10,2 C 11,6 C 1,6 km/h (1 Bft) 96,00 %
29.05.2017 06:26 11,7 C 22,2 C 91 % 1015,6 hPa 0,0 l/m 0,2 km/h (0 Bft) O-SO 108 0 min 0,000 mm 0,0 UV-I 67 W/m 10,3 C 11,7 C 1,6 km/h (1 Bft) 96,23 %
29.05.2017 06:28 11,7 C 22,2 C 90 % 1015,6 hPa 0,0 l/m 0,0 km/h (0 Bft) O-SO 108 2 min 0,000 mm 0,0 UV-I 115 W/m 10,1 C 11,7 C 0,0 km/h (0 Bft) 97,37 %
29.05.2017 06:30 11,7 C 22,2 C 91 % 1015,6 hPa 0,0 l/m 0,0 km/h (0 Bft) O-SO 108 2 min 0,000 mm 0,0 UV-I 119 W/m 10,3 C 11,7 C 0,0 km/h (0 Bft) 94,87 %
29.05.2017 06:32 11,8 C 22,2 C 91 % 1015,7 hPa 0,0 l/m 0,0 km/h (0 Bft) O-SO 108 0 min 0,000 mm 0,0 UV-I 106 W/m 10,4 C 11,8 C 1,6 km/h (1 Bft) 98,21 %
29.05.2017 06:34 12,0 C 22,2 C 91 % 1015,7 hPa 0,0 l/m 0,0 km/h (0 Bft) O-SO 108 2 min 0,000 mm 0,0 UV-I 125 W/m 10,6 C 12,0 C 0,0 km/h (0 Bft) 96,15 %
29.05.2017 06:36 12,2 C 22,2 C 90 % 1015,6 hPa 0,0 l/m 0,3 km/h (0 Bft) O-SO 108 2 min 0,000 mm 0,0 UV-I 141 W/m 10,6 C 12,2 C 1,6 km/h (1 Bft) 97,62 %
29.05.2017 06:38 12,3 C 22,2 C 90 % 1015,6 hPa 0,0 l/m 0,2 km/h (0 Bft) O-SO 108 2 min 0,000 mm 0,0 UV-I 152 W/m 10,7 C 12,3 C 1,6 km/h (1 Bft) 94,00 %
29.05.2017 06:40 12,5 C 22,2 C 89 % 1015,6 hPa 0,0 l/m 0,0 km/h (0 Bft) O-SO 108 2 min 0,000 mm 0,0 UV-I 159 W/m 10,7 C 12,5 C 0,0 km/h (0 Bft) 97,56 %
29.05.2017 06:42 12,7 C 22,2 C 89 % 1015,6 hPa 0,0 l/m 1,0 km/h (0 Bft) O-SO 108 2 min 0,000 mm 0,0 UV-I 168 W/m 10,9 C 12,7 C 3,2 km/h (1 Bft) 98,11 %
29.05.2017 06:44 12,8 C 22,2 C 88 % 1015,7 hPa 0,0 l/m 1,9 km/h (1 Bft) O-SO 108 2 min 0,000 mm 0,0 UV-I 174 W/m 10,9 C 12,8 C 3,2 km/h (1 Bft) 93,62 %
29.05.2017 06:46 12,8 C 22,2 C 87 % 1015,7 hPa 0,0 l/m 1,8 km/h (1 Bft) O-SO 108 2 min 0,000 mm 0,0 UV-I 183 W/m 10,7 C 12,8 C 3,2 km/h (1 Bft) 92,68 %
29.05.2017 06:48 12,7 C 22,2 C 87 % 1015,7 hPa 0,0 l/m 0,3 km/h (0 Bft) O-SO 108 2 min 0,000 mm 0,0 UV-I 190 W/m 10,6 C 12,7 C 1,6 km/h (1 Bft) 87,23 %
29.05.2017 06:50 12,8 C 22,2 C 87 % 1015,7 hPa 0,0 l/m 2,0 km/h (1 Bft) O-SO 108 2 min 0,000 mm 0,0 UV-I 196 W/m 10,7 C 12,8 C 3,2 km/h (1 Bft) 95,74 %
29.05.2017 06:52 12,9 C 22,2 C 87 % 1015,7 hPa 0,0 l/m 1,3 km/h (1 Bft) O-SO 108 2 min 0,000 mm 0,0 UV-I 202 W/m 10,8 C 12,9 C 3,2 km/h (1 Bft) 91,49 %
29.05.2017 06:54 13,1 C 22,2 C 86 % 1015,7 hPa 0,0 l/m 0,0 km/h (0 Bft) O-SO 108 2 min 0,000 mm 0,0 UV-I 210 W/m 10,8 C 13,1 C 0,0 km/h (0 Bft) 92,45 %
29.05.2017 06:56 13,2 C 22,2 C 86 % 1015,7 hPa 0,0 l/m 0,0 km/h (0 Bft) O-SO 108 2 min 0,000 mm 0,0 UV-I 215 W/m 10,9 C 13,2 C 0,0 km/h (0 Bft) 97,56 %
29.05.2017 06:58 13,3 C 22,2 C 85 % 1015,7 hPa 0,0 l/m 0,0 km/h (0 Bft) O-SO 108 2 min 0,000 mm 0,0 UV-I 221 W/m 10,8 C 13,3 C 0,0 km/h (0 Bft) 93,62 %
29.05.2017 07:00 13,6 C 22,2 C 85 % 1015,7 hPa 0,0 l/m 0,0 km/h (0 Bft) O-SO 108 2 min 0,051 mm 0,0 UV-I 217 W/m 11,1 C 13,6 C 0,0 km/h (0 Bft) 84,91 %
29.05.2017 07:02 13,8 C 22,2 C 84 % 1015,7 hPa 0,0 l/m 0,0 km/h (0 Bft) O-SO 108 2 min 0,000 mm 0,0 UV-I 237 W/m 11,1 C 13,8 C 0,0 km/h (0 Bft) 94,29 %
29.05.2017 07:04 13,9 C 22,2 C 83 % 1015,7 hPa 0,0 l/m 0,0 km/h (0 Bft) O-SO 108 2 min 0,000 mm 0,0 UV-I 239 W/m 11,1 C 13,9 C 1,6 km/h (1 Bft) 98,11 %
29.05.2017 07:06 14,1 C 22,2 C 82 % 1015,7 hPa 0,0 l/m 0,1 km/h (0 Bft) O-SO 108 2 min 0,000 mm 0,0 UV-I 245 W/m 11,1 C 14,1 C 1,6 km/h (1 Bft) 94,00 %
29.05.2017 07:08 14,2 C 22,2 C 83 % 1015,8 hPa 0,0 l/m 0,3 km/h (0 Bft) O-SO 108 2 min 0,000 mm 0,5 UV-I 250 W/m 11,4 C 14,2 C 1,6 km/h (1 Bft) 92,59 %
29.05.2017 07:10 14,2 C 22,2 C 82 % 1015,8 hPa 0,0 l/m 0,9 km/h (0 Bft) O-SO 108 2 min 0,000 mm 0,5 UV-I 252 W/m 11,2 C 14,2 C 1,6 km/h (1 Bft) 95,52 %
29.05.2017 07:12 14,3 C 22,2 C 83 % 1015,8 hPa 0,0 l/m 1,6 km/h (1 Bft) O-SO 108 2 min 0,000 mm 0,5 UV-I 253 W/m 11,5 C 14,3 C 3,2 km/h (1 Bft) 97,44 %
29.05.2017 07:14 14,3 C 22,2 C 83 % 1015,8 hPa 0,0 l/m 0,9 km/h (0 Bft) O-SO 108 2 min 0,000 mm 0,5 UV-I 257 W/m 11,5 C 14,3 C 1,6 km/h (1 Bft) 98,11 %
29.05.2017 07:16 14,3 C 22,2 C 83 % 1015,9 hPa 0,0 l/m 0,4 km/h (0 Bft) O-SO 108 2 min 0,000 mm 0,5 UV-I 260 W/m 11,5 C 14,3 C 3,2 km/h (1 Bft) 94,00 %
29.05.2017 07:18 14,4 C 22,2 C 83 % 1015,9 hPa 0,0 l/m 0,0 km/h (0 Bft) O-SO 108 2 min 0,000 mm 0,6 UV-I 267 W/m 11,5 C 14,4 C 0,0 km/h (0 Bft) 95,74 %
29.05.2017 07:20 14,6 C 22,2 C 84 % 1015,9 hPa 0,0 l/m 0,0 km/h (0 Bft) O-SO 108 2 min 0,000 mm 0,6 UV-I 273 W/m 11,9 C 14,6 C 0,0 km/h (0 Bft) 97,37 %
29.05.2017 07:22 14,8 C 22,2 C 83 % 1015,9 hPa 0,0 l/m 0,0 km/h (0 Bft) O-SO 108 2 min 0,000 mm 0,6 UV-I 278 W/m 11,9 C 14,8 C 0,0 km/h (0 Bft) 94,64 %
29.05.2017 07:24 15,1 C 22,2 C 82 % 1015,9 hPa 0,0 l/m 0,0 km/h (0 Bft) O-SO 108 2 min 0,000 mm 0,6 UV-I 287 W/m 12,0 C 15,1 C 0,0 km/h (0 Bft) 93,62 %
29.05.2017 07:26 15,2 C 22,2 C 80 % 1015,9 hPa 0,0 l/m 1,2 km/h (1 Bft) O-SO 108 2 min 0,000 mm 0,6 UV-I 294 W/m 11,8 C 15,2 C 3,2 km/h (1 Bft) 95,12 %
29.05.2017 07:28 15,2 C 22,2 C 80 % 1015,9 hPa 0,0 l/m 0,8 km/h (0 Bft) O-SO 108 2 min 0,000 mm 0,7 UV-I 301 W/m 11,8 C 15,2 C 1,6 km/h (1 Bft) 100,00 %
29.05.2017 07:30 15,3 C 22,2 C 80 % 1015,9 hPa 0,0 l/m 1,1 km/h (1 Bft) O-SO 107 2 min 0,000 mm 0,7 UV-I 308 W/m 11,9 C 15,3 C 3,2 km/h (1 Bft) 98,11 %
29.05.2017 07:32 15,4 C 22,2 C 81 % 1015,9 hPa 0,0 l/m 0,6 km/h (0 Bft) O-SO 108 2 min 0,000 mm 0,7 UV-I 314 W/m 12,2 C 15,4 C 3,2 km/h (1 Bft) 97,37 %
29.05.2017 07:34 15,5 C 22,2 C 80 % 1015,9 hPa 0,0 l/m 0,0 km/h (0 Bft) O-SO 108 2 min 0,000 mm 0,7 UV-I 319 W/m 12,1 C 15,5 C 1,6 km/h (1 Bft) 100,00 %
29.05.2017 07:36 15,6 C 22,2 C 80 % 1015,9 hPa 0,0 l/m 0,0 km/h (0 Bft) O-SO 107 2 min 0,000 mm 0,8 UV-I 325 W/m 12,2 C 15,6 C 1,6 km/h (1 Bft) 100,00 %
29.05.2017 07:38 15,7 C 22,2 C 79 % 1015,9 hPa 0,0 l/m 0,5 km/h (0 Bft) O-SO 107 2 min 0,000 mm 0,8 UV-I 332 W/m 12,1 C 15,7 C 3,2 km/h (1 Bft) 97,87 %
29.05.2017 07:40 15,6 C 22,2 C 79 % 1015,9 hPa 0,0 l/m 1,3 km/h (1 Bft) O-SO 108 2 min 0,000 mm 0,8 UV-I 332 W/m 12,0 C 15,6 C 3,2 km/h (1 Bft) 100,00 %
29.05.2017 07:42 15,6 C 22,2 C 79 % 1015,9 hPa 0,0 l/m 0,4 km/h (0 Bft) O-SO 108 2 min 0,000 mm 0,9 UV-I 341 W/m 12,0 C 15,6 C 1,6 km/h (1 Bft) 95,12 %
29.05.2017 07:44 15,6 C 22,2 C 79 % 1015,9 hPa 0,0 l/m 1,1 km/h (1 Bft) O-SO 107 2 min 0,000 mm 0,9 UV-I 350 W/m 12,0 C 15,6 C 3,2 km/h (1 Bft) 100,00 %
29.05.2017 07:46 15,5 C 22,2 C 79 % 1015,9 hPa 0,0 l/m 1,0 km/h (0 Bft) O-SO 107 2 min 0,000 mm 0,9 UV-I 356 W/m 11,9 C 15,5 C 3,2 km/h (1 Bft) 97,87 %
29.05.2017 07:48 15,4 C 22,2 C 80 % 1015,9 hPa 0,0 l/m 0,0 km/h (0 Bft) O-SO 107 2 min 0,000 mm 0,9 UV-I 362 W/m 12,0 C 15,4 C 0,0 km/h (0 Bft) 100,00 %
29.05.2017 07:50 15,5 C 22,2 C 81 % 1015,9 hPa 0,0 l/m 0,0 km/h (0 Bft) O-SO 107 2 min 0,000 mm 1,0 UV-I 368 W/m 12,3 C 15,5 C 1,6 km/h (1 Bft) 94,87 %
29.05.2017 07:52 15,6 C 22,2 C 81 % 1015,8 hPa 0,0 l/m 0,0 km/h (0 Bft) O-SO 107 2 min 0,000 mm 1,0 UV-I 374 W/m 12,3 C 15,6 C 0,0 km/h (0 Bft) 97,37 %
29.05.2017 07:54 15,6 C 22,2 C 80 % 1015,8 hPa 0,0 l/m 0,0 km/h (0 Bft) O-SO 107 2 min 0,000 mm 1,0 UV-I 380 W/m 12,2 C 15,6 C 0,0 km/h (0 Bft) 100,00 %
29.05.2017 07:56 15,8 C 22,2 C 81 % 1015,8 hPa 0,0 l/m 0,0 km/h (0 Bft) O-SO 107 2 min 0,000 mm 1,1 UV-I 385 W/m 12,5 C 15,8 C 1,6 km/h (1 Bft) 97,22 %
29.05.2017 07:58 16,0 C 22,2 C 81 % 1015,8 hPa 0,0 l/m 0,4 km/h (0 Bft) O-SO 107 2 min 0,000 mm 1,1 UV-I 393 W/m 12,7 C 16,0 C 3,2 km/h (1 Bft) 100,00 %
29.05.2017 08:00 16,2 C 22,2 C 80 % 1015,8 hPa 0,0 l/m 0,0 km/h (0 Bft) O-SO 107 2 min 0,000 mm 1,1 UV-I 397 W/m 12,7 C 16,2 C 1,6 km/h (1 Bft) 100,00 %
29.05.2017 08:02 16,2 C 22,2 C 79 % 1015,8 hPa 0,0 l/m 0,6 km/h (0 Bft) O-SO 107 2 min 0,152 mm 1,2 UV-I 403 W/m 12,6 C 16,2 C 1,6 km/h (1 Bft) 96,00 %
29.05.2017 08:04 16,3 C 22,8 C 78 % 1015,8 hPa 0,0 l/m 0,0 km/h (0 Bft) O-SO 107 2 min 0,000 mm 1,2 UV-I 409 W/m 12,5 C 16,3 C 1,6 km/h (1 Bft) 100,00 %
29.05.2017 08:06 16,4 C 22,8 C 79 % 1015,8 hPa 0,0 l/m 0,7 km/h (0 Bft) O-SO 107 2 min 0,000 mm 1,2 UV-I 414 W/m 12,7 C 16,4 C 1,6 km/h (1 Bft) 100,00 %
29.05.2017 08:08 16,5 C 22,8 C 79 % 1015,9 hPa 0,0 l/m 0,5 km/h (0 Bft) O-SO 107 2 min 0,000 mm 1,3 UV-I 419 W/m 12,8 C 16,5 C 1,6 km/h (1 Bft) 100,00 %
29.05.2017 08:10 16,6 C 22,8 C 79 % 1015,9 hPa 0,0 l/m 0,8 km/h (0 Bft) O-SO 107 2 min 0,000 mm 1,3 UV-I 425 W/m 12,9 C 16,6 C 3,2 km/h (1 Bft) 100,00 %
29.05.2017 08:12 16,4 C 22,8 C 78 % 1015,9 hPa 0,0 l/m 0,1 km/h (0 Bft) O-SO 107 2 min 0,000 mm 1,3 UV-I 433 W/m 12,6 C 16,4 C 1,6 km/h (1 Bft) 100,00 %
29.05.2017 08:14 16,4 C 22,8 C 79 % 1015,9 hPa 0,0 l/m 0,1 km/h (0 Bft) O-SO 107 2 min 0,000 mm 1,3 UV-I 439 W/m 12,7 C 16,4 C 1,6 km/h (1 Bft) 100,00 %
29.05.2017 08:16 16,6 C 22,8 C 79 % 1015,9 hPa 0,0 l/m 0,1 km/h (0 Bft) O-SO 107 2 min 0,000 mm 1,4 UV-I 443 W/m 12,9 C 16,6 C 1,6 km/h (1 Bft) 100,00 %
29.05.2017 08:18 16,7 C 22,8 C 78 % 1015,9 hPa 0,0 l/m 0,2 km/h (0 Bft) O-SO 107 2 min 0,000 mm 1,4 UV-I 443 W/m 12,8 C 16,7 C 1,6 km/h (1 Bft) 100,00 %
29.05.2017 08:20 16,9 C 22,8 C 76 % 1015,9 hPa 0,0 l/m 0,0 km/h (0 Bft) O-SO 107 2 min 0,000 mm 1,4 UV-I 445 W/m 12,6 C 16,9 C 0,0 km/h (0 Bft) 100,00 %
29.05.2017 08:22 17,0 C 22,8 C 78 % 1015,9 hPa 0,0 l/m 0,2 km/h (0 Bft) O-SO 107 2 min 0,000 mm 1,5 UV-I 446 W/m 13,1 C 17,0 C 1,6 km/h (1 Bft) 97,30 %
29.05.2017 08:24 17,2 C 22,8 C 80 % 1015,9 hPa 0,0 l/m 0,3 km/h (0 Bft) O-SO 107 2 min 0,000 mm 1,5 UV-I 457 W/m 13,7 C 17,2 C 1,6 km/h (1 Bft) 100,00 %
29.05.2017 08:26 17,3 C 22,8 C 79 % 1015,9 hPa 0,0 l/m 0,5 km/h (0 Bft) O-SO 107 2 min 0,000 mm 1,5 UV-I 453 W/m 13,6 C 17,3 C 3,2 km/h (1 Bft) 100,00 %
29.05.2017 08:28 17,3 C 22,8 C 76 % 1016,0 hPa 0,0 l/m 1,6 km/h (1 Bft) O-SO 103 2 min 0,000 mm 1,6 UV-I 466 W/m 13,0 C 17,3 C 3,2 km/h (1 Bft) 98,00 %
29.05.2017 08:30 17,4 C 22,8 C 78 % 1016,0 hPa 0,0 l/m 1,0 km/h (0 Bft) O-SO 103 2 min 0,000 mm 1,6 UV-I 476 W/m 13,5 C 17,4 C 3,2 km/h (1 Bft) 100,00 %
29.05.2017 08:32 17,4 C 22,8 C 79 % 1015,9 hPa 0,0 l/m 1,9 km/h (1 Bft) O 100 2 min 0,000 mm 1,7 UV-I 478 W/m 13,7 C 17,4 C 4,8 km/h (1 Bft) 100,00 %
29.05.2017 08:34 17,6 C 22,8 C 79 % 1015,9 hPa 0,0 l/m 4,3 km/h (1 Bft) N-NO 33 2 min 0,000 mm 1,7 UV-I 482 W/m 13,9 C 17,6 C 6,4 km/h (2 Bft) 100,00 %
29.05.2017 08:36 17,6 C 22,8 C 78 % 1015,8 hPa 0,0 l/m 3,2 km/h (1 Bft) N-NO 33 2 min 0,000 mm 1,8 UV-I 507 W/m 13,7 C 17,6 C 4,8 km/h (1 Bft) 100,00 %
29.05.2017 08:38 17,6 C 22,8 C 77 % 1015,8 hPa 0,0 l/m 2,4 km/h (1 Bft) N-NO 33 2 min 0,000 mm 1,8 UV-I 512 W/m 13,5 C 17,6 C 4,8 km/h (1 Bft) 100,00 %
29.05.2017 08:40 17,7 C 22,8 C 77 % 1015,8 hPa 0,0 l/m 1,1 km/h (1 Bft) N-NO 33 2 min 0,000 mm 1,8 UV-I 520 W/m 13,6 C 17,7 C 3,2 km/h (1 Bft) 97,37 %
29.05.2017 08:42 17,7 C 22,8 C 76 % 1015,9 hPa 0,0 l/m 3,5 km/h (1 Bft) N-NO 33 2 min 0,000 mm 1,9 UV-I 525 W/m 13,4 C 17,7 C 4,8 km/h (1 Bft) 100,00 %
29.05.2017 08:44 17,8 C 22,8 C 77 % 1015,9 hPa 0,0 l/m 0,4 km/h (0 Bft) N-NO 33 2 min 0,000 mm 1,9 UV-I 530 W/m 13,7 C 17,8 C 1,6 km/h (1 Bft) 98,00 %
29.05.2017 08:46 17,9 C 22,8 C 75 % 1015,9 hPa 0,0 l/m 1,0 km/h (0 Bft) N-NO 30 2 min 0,000 mm 2,0 UV-I 531 W/m 13,4 C 17,9 C 4,8 km/h (1 Bft) 90,24 %
29.05.2017 08:48 18,0 C 22,8 C 76 % 1015,9 hPa 0,0 l/m 2,0 km/h (1 Bft) N 5 2 min 0,000 mm 2,0 UV-I 536 W/m 13,7 C 18,0 C 4,8 km/h (1 Bft) 95,74 %
29.05.2017 08:50 18,0 C 22,8 C 75 % 1015,9 hPa 0,0 l/m 1,0 km/h (0 Bft) N 5 2 min 0,000 mm 2,1 UV-I 540 W/m 13,5 C 18,0 C 3,2 km/h (1 Bft) 95,12 %
29.05.2017 08:52 17,9 C 22,8 C 74 % 1015,9 hPa 0,0 l/m 1,6 km/h (1 Bft) N 5 2 min 0,000 mm 2,1 UV-I 548 W/m 13,2 C 17,9 C 3,2 km/h (1 Bft) 96,43 %
29.05.2017 08:54 17,9 C 22,8 C 74 % 1015,9 hPa 0,0 l/m 0,5 km/h (0 Bft) N 5 2 min 0,000 mm 2,2 UV-I 556 W/m 13,2 C 17,9 C 1,6 km/h (1 Bft) 98,21 %
29.05.2017 08:56 18,1 C 22,8 C 74 % 1015,9 hPa 0,0 l/m 0,7 km/h (0 Bft) N 5 2 min 0,000 mm 2,2 UV-I 560 W/m 13,4 C 18,1 C 3,2 km/h (1 Bft) 95,74 %
29.05.2017 08:58 18,2 C 22,8 C 73 % 1015,8 hPa 0,0 l/m 1,7 km/h (1 Bft) N 5 2 min 0,000 mm 2,2 UV-I 558 W/m 13,3 C 18,2 C 3,2 km/h (1 Bft) 100,00 %
29.05.2017 09:00 18,2 C 22,8 C 74 % 1015,8 hPa 0,0 l/m 0,5 km/h (0 Bft) N 5 2 min 0,279 mm 2,3 UV-I 564 W/m 13,5 C 18,2 C 3,2 km/h (1 Bft) 95,74 %
29.05.2017 09:02 18,3 C 22,8 C 73 % 1015,8 hPa 0,0 l/m 1,6 km/h (1 Bft) N 10 2 min 0,000 mm 2,3 UV-I 573 W/m 13,4 C 18,3 C 3,2 km/h (1 Bft) 97,87 %
29.05.2017 09:04 18,3 C 22,8 C 73 % 1015,8 hPa 0,0 l/m 1,2 km/h (1 Bft) N 360 2 min 0,000 mm 2,3 UV-I 572 W/m 13,4 C 18,3 C 3,2 km/h (1 Bft) 97,87 %
29.05.2017 09:06 18,3 C 22,8 C 74 % 1015,8 hPa 0,0 l/m 0,8 km/h (0 Bft) N 360 2 min 0,000 mm 2,4 UV-I 566 W/m 13,6 C 18,3 C 3,2 km/h (1 Bft) 98,11 %
29.05.2017 09:08 18,5 C 22,8 C 72 % 1015,8 hPa 0,0 l/m 1,4 km/h (1 Bft) N 9 2 min 0,000 mm 2,4 UV-I 559 W/m 13,4 C 18,5 C 3,2 km/h (1 Bft) 97,44 %
29.05.2017 09:10 18,4 C 22,8 C 71 % 1015,7 hPa 0,0 l/m 2,1 km/h (1 Bft) N 9 2 min 0,000 mm 2,4 UV-I 558 W/m 13,0 C 18,4 C 3,2 km/h (1 Bft) 97,87 %
29.05.2017 09:12 18,4 C 22,8 C 73 % 1015,7 hPa 0,0 l/m 2,4 km/h (1 Bft) N-NO 24 2 min 0,000 mm 2,4 UV-I 541 W/m 13,5 C 18,4 C 6,4 km/h (2 Bft) 96,23 %
29.05.2017 09:14 18,7 C 22,8 C 74 % 1015,7 hPa 0,0 l/m 3,1 km/h (1 Bft) N-NO 29 2 min 0,000 mm 2,5 UV-I 554 W/m 14,0 C 18,7 C 6,4 km/h (2 Bft) 96,00 %
29.05.2017 09:16 18,8 C 22,8 C 73 % 1015,7 hPa 0,0 l/m 3,1 km/h (1 Bft) N-NO 29 2 min 0,000 mm 2,3 UV-I 441 W/m 13,9 C 18,8 C 4,8 km/h (1 Bft) 97,14 %
29.05.2017 09:18 18,9 C 22,8 C 73 % 1015,7 hPa 0,0 l/m 3,6 km/h (1 Bft) N-NO 32 2 min 0,000 mm 2,5 UV-I 524 W/m 13,9 C 18,9 C 4,8 km/h (1 Bft) 98,00 %
29.05.2017 09:20 18,9 C 22,8 C 71 % 1015,6 hPa 0,0 l/m 2,8 km/h (1 Bft) NO 40 2 min 0,000 mm 2,6 UV-I 559 W/m 13,5 C 18,9 C 4,8 km/h (1 Bft) 98,11 %
29.05.2017 09:22 18,9 C 22,8 C 71 % 1015,6 hPa 0,0 l/m 0,4 km/h (0 Bft) NO 40 2 min 0,000 mm 2,7 UV-I 594 W/m 13,5 C 18,9 C 3,2 km/h (1 Bft) 95,74 %
29.05.2017 09:24 19,1 C 22,8 C 71 % 1015,6 hPa 0,0 l/m 2,9 km/h (1 Bft) NO 46 2 min 0,000 mm 2,8 UV-I 621 W/m 13,7 C 19,1 C 4,8 km/h (1 Bft) 97,37 %
29.05.2017 09:26 19,2 C 22,8 C 71 % 1015,6 hPa 0,0 l/m 2,6 km/h (1 Bft) NO 46 2 min 0,000 mm 2,8 UV-I 630 W/m 13,8 C 19,2 C 4,8 km/h (1 Bft) 95,74 %
29.05.2017 09:28 19,3 C 22,8 C 69 % 1015,6 hPa 0,0 l/m 3,1 km/h (1 Bft) NO 46 2 min 0,000 mm 2,8 UV-I 622 W/m 13,5 C 19,3 C 4,8 km/h (1 Bft) 96,00 %
29.05.2017 09:30 19,3 C 22,8 C 68 % 1015,6 hPa 0,0 l/m 2,0 km/h (1 Bft) NO 46 2 min 0,000 mm 3,0 UV-I 636 W/m 13,2 C 19,3 C 3,2 km/h (1 Bft) 96,00 %
29.05.2017 09:32 19,4 C 22,8 C 74 % 1015,6 hPa 0,0 l/m 3,1 km/h (1 Bft) NO 46 2 min 0,000 mm 3,0 UV-I 642 W/m 14,6 C 19,4 C 4,8 km/h (1 Bft) 92,59 %
29.05.2017 09:34 19,7 C 22,8 C 70 % 1015,6 hPa 0,0 l/m 1,1 km/h (1 Bft) NO 46 2 min 0,000 mm 3,1 UV-I 646 W/m 14,1 C 19,7 C 3,2 km/h (1 Bft) 96,88 %
29.05.2017 09:36 19,8 C 22,8 C 71 % 1015,5 hPa 0,0 l/m 0,4 km/h (0 Bft) NO 46 2 min 0,000 mm 3,1 UV-I 653 W/m 14,4 C 19,8 C 1,6 km/h (1 Bft) 96,00 %
29.05.2017 09:38 19,8 C 22,8 C 70 % 1015,5 hPa 0,0 l/m 1,7 km/h (1 Bft) NO 46 2 min 0,000 mm 3,1 UV-I 650 W/m 14,2 C 19,8 C 3,2 km/h (1 Bft) 98,00 %
29.05.2017 09:40 19,7 C 22,8 C 68 % 1015,5 hPa 0,0 l/m 1,7 km/h (1 Bft) NO 45 2 min 0,000 mm 3,2 UV-I 647 W/m 13,6 C 19,7 C 4,8 km/h (1 Bft) 97,87 %
29.05.2017 09:42 19,8 C 22,8 C 68 % 1015,5 hPa 0,0 l/m 1,0 km/h (0 Bft) NO 45 2 min 0,000 mm 3,2 UV-I 655 W/m 13,7 C 19,8 C 3,2 km/h (1 Bft) 100,00 %
29.05.2017 09:44 19,8 C 22,8 C 70 % 1015,5 hPa 0,0 l/m 0,8 km/h (0 Bft) NO 43 2 min 0,000 mm 3,2 UV-I 656 W/m 14,2 C 19,8 C 4,8 km/h (1 Bft) 96,88 %
29.05.2017 09:46 19,9 C 22,8 C 68 % 1015,5 hPa 0,0 l/m 3,1 km/h (1 Bft) W 261 2 min 0,000 mm 3,4 UV-I 671 W/m 13,8 C 19,9 C 4,8 km/h (1 Bft) 98,00 %
29.05.2017 09:48 19,9 C 22,8 C 67 % 1015,5 hPa 0,0 l/m 0,2 km/h (0 Bft) W 261 2 min 0,000 mm 3,4 UV-I 677 W/m 13,6 C 19,9 C 1,6 km/h (1 Bft) 98,00 %
29.05.2017 09:50 20,0 C 22,8 C 67 % 1015,5 hPa 0,0 l/m 1,1 km/h (1 Bft) W-NW 287 2 min 0,000 mm 3,4 UV-I 680 W/m 13,7 C 20,0 C 3,2 km/h (1 Bft) 97,62 %
29.05.2017 09:52 20,1 C 22,8 C 68 % 1015,5 hPa 0,0 l/m 2,0 km/h (1 Bft) N-NW 340 2 min 0,000 mm 3,5 UV-I 683 W/m 14,0 C 20,1 C 4,8 km/h (1 Bft) 97,37 %
29.05.2017 09:54 20,2 C 22,8 C 68 % 1015,4 hPa 0,0 l/m 2,1 km/h (1 Bft) N-NW 340 2 min 0,000 mm 3,6 UV-I 693 W/m 14,1 C 20,2 C 4,8 km/h (1 Bft) 96,00 %
29.05.2017 09:56 20,2 C 22,8 C 68 % 1015,4 hPa 0,0 l/m 0,2 km/h (0 Bft) N-NW 339 2 min 0,000 mm 3,6 UV-I 698 W/m 14,1 C 20,2 C 1,6 km/h (1 Bft) 98,00 %
29.05.2017 09:58 20,4 C 22,8 C 69 % 1015,4 hPa 0,0 l/m 0,4 km/h (0 Bft) N-NW 340 2 min 0,000 mm 3,7 UV-I 700 W/m 14,5 C 20,4 C 3,2 km/h (1 Bft) 96,00 %
29.05.2017 10:00 20,7 C 22,8 C 69 % 1015,4 hPa 0,0 l/m 1,2 km/h (1 Bft) N-NW 340 2 min 0,356 mm 3,7 UV-I 698 W/m 14,8 C 20,7 C 3,2 km/h (1 Bft) 97,87 %
29.05.2017 10:02 20,8 C 22,8 C 67 % 1015,4 hPa 0,0 l/m 1,0 km/h (0 Bft) N-NW 343 2 min 0,000 mm 3,7 UV-I 704 W/m 14,4 C 20,8 C 3,2 km/h (1 Bft) 97,87 %
29.05.2017 10:04 20,9 C 22,8 C 69 % 1015,4 hPa 0,0 l/m 3,5 km/h (1 Bft) N 355 2 min 0,000 mm 3,8 UV-I 710 W/m 15,0 C 20,9 C 4,8 km/h (1 Bft) 96,00 %
29.05.2017 10:06 21,1 C 22,8 C 68 % 1015,4 hPa 0,0 l/m 3,5 km/h (1 Bft) N-NO 20 2 min 0,000 mm 3,9 UV-I 717 W/m 15,0 C 21,1 C 6,4 km/h (2 Bft) 97,56 %
29.05.2017 10:08 21,1 C 22,8 C 68 % 1015,4 hPa 0,0 l/m 2,9 km/h (1 Bft) N-NO 19 2 min 0,000 mm 3,9 UV-I 724 W/m 15,0 C 21,1 C 4,8 km/h (1 Bft) 94,00 %
29.05.2017 10:10 21,1 C 22,8 C 69 % 1015,3 hPa 0,0 l/m 2,9 km/h (1 Bft) NO 55 2 min 0,000 mm 4,0 UV-I 728 W/m 15,2 C 21,1 C 6,4 km/h (2 Bft) 96,00 %
29.05.2017 10:12 21,1 C 22,8 C 67 % 1015,3 hPa 0,0 l/m 2,1 km/h (1 Bft) O 88 2 min 0,000 mm 4,0 UV-I 732 W/m 14,7 C 21,1 C 6,4 km/h (2 Bft) 95,12 %
29.05.2017 10:14 21,3 C 22,8 C 66 % 1015,3 hPa 0,0 l/m 3,0 km/h (1 Bft) O 88 2 min 0,000 mm 4,1 UV-I 738 W/m 14,7 C 21,3 C 4,8 km/h (1 Bft) 95,45 %
29.05.2017 10:16 21,3 C 22,8 C 66 % 1015,3 hPa 0,0 l/m 2,7 km/h (1 Bft) O 90 2 min 0,000 mm 4,1 UV-I 742 W/m 14,7 C 21,3 C 4,8 km/h (1 Bft) 98,00 %
29.05.2017 10:18 21,3 C 22,8 C 65 % 1015,3 hPa 0,0 l/m 3,9 km/h (1 Bft) O 96 2 min 0,000 mm 4,2 UV-I 745 W/m 14,4 C 21,3 C 6,4 km/h (2 Bft) 94,00 %
29.05.2017 10:20 21,3 C 22,8 C 64 % 1015,3 hPa 0,0 l/m 4,2 km/h (1 Bft) O 96 2 min 0,000 mm 4,2 UV-I 750 W/m 14,2 C 21,3 C 6,4 km/h (2 Bft) 97,56 %
29.05.2017 10:22 21,2 C 22,8 C 67 % 1015,3 hPa 0,0 l/m 3,0 km/h (1 Bft) O 96 2 min 0,000 mm 4,2 UV-I 752 W/m 14,8 C 21,2 C 4,8 km/h (1 Bft) 96,00 %
29.05.2017 10:24 21,3 C 22,8 C 66 % 1015,3 hPa 0,0 l/m 3,2 km/h (1 Bft) O 94 2 min 0,000 mm 4,3 UV-I 757 W/m 14,7 C 21,3 C 4,8 km/h (1 Bft) 95,74 %
29.05.2017 10:26 21,4 C 22,8 C 65 % 1015,3 hPa 0,0 l/m 1,0 km/h (0 Bft) O 94 2 min 0,000 mm 4,4 UV-I 760 W/m 14,5 C 21,4 C 3,2 km/h (1 Bft) 97,78 %
29.05.2017 10:28 21,6 C 22,8 C 68 % 1015,3 hPa 0,0 l/m 0,1 km/h (0 Bft) O 92 2 min 0,000 mm 4,4 UV-I 764 W/m 15,4 C 21,6 C 1,6 km/h (1 Bft) 100,00 %
29.05.2017 10:30 21,8 C 22,8 C 69 % 1015,3 hPa 0,0 l/m 0,7 km/h (0 Bft) O 91 2 min 0,000 mm 4,4 UV-I 765 W/m 15,9 C 21,8 C 3,2 km/h (1 Bft) 100,00 %
29.05.2017 10:33 22,1 C 22,8 C 64 % 1015,3 hPa 0,0 l/m 0,7 km/h (0 Bft) O 91 3 min 0,000 mm 4,5 UV-I 768 W/m 15,0 C 22,1 C 3,2 km/h (1 Bft) 98,68 %
29.05.2017 10:34 22,1 C 22,8 C 65 % 1015,3 hPa 0,0 l/m 0,9 km/h (0 Bft) O 91 1 min 0,000 mm 4,6 UV-I 772 W/m 15,2 C 22,1 C 1,6 km/h (1 Bft) 100,00 %
29.05.2017 10:36 22,1 C 22,8 C 63 % 1015,3 hPa 0,0 l/m 3,0 km/h (1 Bft) O-NO 75 2 min 0,000 mm 4,6 UV-I 775 W/m 14,7 C 22,1 C 4,8 km/h (1 Bft) 100,00 %
29.05.2017 10:38 21,9 C 22,8 C 62 % 1015,2 hPa 0,0 l/m 2,4 km/h (1 Bft) O-NO 75 2 min 0,000 mm 4,6 UV-I 779 W/m 14,3 C 21,9 C 6,4 km/h (2 Bft) 100,00 %
29.05.2017 10:40 21,9 C 22,8 C 64 % 1015,2 hPa 0,0 l/m 3,9 km/h (1 Bft) O-NO 74 2 min 0,000 mm 4,7 UV-I 782 W/m 14,8 C 21,9 C 4,8 km/h (1 Bft) 100,00 %
29.05.2017 10:42 22,2 C 22,8 C 66 % 1015,2 hPa 0,0 l/m 4,5 km/h (1 Bft) O-NO 71 2 min 0,000 mm 4,7 UV-I 790 W/m 15,5 C 22,2 C 6,4 km/h (2 Bft) 96,00 %
29.05.2017 10:44 22,3 C 22,8 C 69 % 1015,2 hPa 0,0 l/m 1,7 km/h (1 Bft) O-NO 71 2 min 0,000 mm 4,8 UV-I 795 W/m 16,3 C 22,3 C 3,2 km/h (1 Bft) 97,56 %
29.05.2017 10:46 22,6 C 22,8 C 68 % 1015,2 hPa 0,0 l/m 0,8 km/h (0 Bft) O-NO 70 2 min 0,000 mm 4,8 UV-I 799 W/m 16,4 C 22,6 C 3,2 km/h (1 Bft) 95,74 %
29.05.2017 10:48 22,4 C 22,8 C 62 % 1015,2 hPa 0,0 l/m 2,6 km/h (1 Bft) O-NO 65 2 min 0,000 mm 4,9 UV-I 801 W/m 14,8 C 22,4 C 4,8 km/h (1 Bft) 94,00 %
29.05.2017 10:50 22,3 C 22,8 C 63 % 1015,2 hPa 0,0 l/m 0,2 km/h (0 Bft) O-NO 65 2 min 0,000 mm 4,7 UV-I 804 W/m 14,9 C 22,3 C 1,6 km/h (1 Bft) 97,37 %
29.05.2017 10:52 22,2 C 22,8 C 65 % 1015,2 hPa 0,0 l/m 0,1 km/h (0 Bft) O-NO 65 2 min 0,000 mm 4,3 UV-I 807 W/m 15,3 C 22,2 C 1,6 km/h (1 Bft) 96,00 %
29.05.2017 10:54 22,2 C 22,8 C 63 % 1015,2 hPa 0,0 l/m 0,4 km/h (0 Bft) O-NO 65 2 min 0,000 mm 5,0 UV-I 808 W/m 14,8 C 22,2 C 3,2 km/h (1 Bft) 96,00 %
29.05.2017 10:56 22,3 C 22,8 C 62 % 1015,2 hPa 0,0 l/m 0,0 km/h (0 Bft) O-NO 65 2 min 0,000 mm 5,0 UV-I 810 W/m 14,7 C 22,3 C 1,6 km/h (1 Bft) 97,56 %
29.05.2017 10:58 22,3 C 22,8 C 63 % 1015,2 hPa 0,0 l/m 1,2 km/h (1 Bft) O-NO 65 2 min 0,000 mm 5,1 UV-I 816 W/m 14,9 C 22,3 C 3,2 km/h (1 Bft) 98,11 %
29.05.2017 11:00 22,6 C 22,8 C 62 % 1015,2 hPa 0,0 l/m 0,1 km/h (0 Bft) O-NO 65 2 min 0,457 mm 5,2 UV-I 819 W/m 14,9 C 22,6 C 1,6 km/h (1 Bft) 96,00 %
29.05.2017 11:02 22,8 C 22,8 C 64 % 1015,2 hPa 0,0 l/m 1,0 km/h (0 Bft) O-NO 65 2 min 0,000 mm 5,2 UV-I 817 W/m 15,6 C 22,8 C 3,2 km/h (1 Bft) 97,22 %
29.05.2017 11:04 23,1 C 22,8 C 63 % 1015,1 hPa 0,0 l/m 3,6 km/h (1 Bft) O-NO 65 2 min 0,000 mm 5,2 UV-I 818 W/m 15,7 C 23,1 C 6,4 km/h (2 Bft) 94,55 %
29.05.2017 11:06 23,2 C 22,8 C 62 % 1015,1 hPa 0,0 l/m 3,4 km/h (1 Bft) O-NO 65 2 min 0,000 mm 5,2 UV-I 806 W/m 15,5 C 23,2 C 4,8 km/h (1 Bft) 95,83 %
29.05.2017 11:08 23,2 C 22,8 C 62 % 1015,1 hPa 0,0 l/m 1,2 km/h (1 Bft) O-NO 65 2 min 0,000 mm 5,3 UV-I 821 W/m 15,5 C 23,2 C 3,2 km/h (1 Bft) 89,36 %
29.05.2017 11:10 23,3 C 22,8 C 61 % 1015,1 hPa 0,0 l/m 0,9 km/h (0 Bft) O-NO 65 2 min 0,000 mm 5,3 UV-I 830 W/m 15,3 C 23,3 C 3,2 km/h (1 Bft) 98,00 %
29.05.2017 11:12 23,3 C 22,8 C 60 % 1015,1 hPa 0,0 l/m 2,1 km/h (1 Bft) O-NO 63 2 min 0,000 mm 5,4 UV-I 835 W/m 15,1 C 23,3 C 4,8 km/h (1 Bft) 97,37 %
29.05.2017 11:14 23,2 C 22,8 C 62 % 1015,1 hPa 0,0 l/m 1,7 km/h (1 Bft) W-NW 297 2 min 0,000 mm 5,5 UV-I 838 W/m 15,5 C 23,2 C 4,8 km/h (1 Bft) 100,00 %
29.05.2017 11:16 23,3 C 22,8 C 61 % 1015,1 hPa 0,0 l/m 2,1 km/h (1 Bft) W-NW 295 2 min 0,000 mm 5,5 UV-I 842 W/m 15,3 C 23,3 C 4,8 km/h (1 Bft) 100,00 %
29.05.2017 11:18 23,4 C 22,8 C 62 % 1015,1 hPa 0,0 l/m 1,1 km/h (1 Bft) W-NW 297 2 min 0,000 mm 5,5 UV-I 844 W/m 15,7 C 23,4 C 3,2 km/h (1 Bft) 98,00 %
29.05.2017 11:20 23,4 C 23,3 C 61 % 1015,2 hPa 0,0 l/m 1,8 km/h (1 Bft) W-NW 301 2 min 0,000 mm 5,6 UV-I 845 W/m 15,4 C 23,4 C 4,8 km/h (1 Bft) 98,11 %
29.05.2017 11:22 23,3 C 23,3 C 58 % 1015,1 hPa 0,0 l/m 1,4 km/h (1 Bft) W-NW 301 2 min 0,000 mm 5,6 UV-I 846 W/m 14,6 C 23,3 C 3,2 km/h (1 Bft) 97,37 %
29.05.2017 11:24 23,3 C 23,3 C 63 % 1015,1 hPa 0,0 l/m 0,1 km/h (0 Bft) W-NW 301 2 min 0,000 mm 5,6 UV-I 844 W/m 15,9 C 23,3 C 1,6 km/h (1 Bft) 98,00 %
29.05.2017 11:26 23,3 C 23,3 C 60 % 1015,1 hPa 0,0 l/m 0,6 km/h (0 Bft) S-SO 153 2 min 0,000 mm 5,7 UV-I 843 W/m 15,1 C 23,3 C 3,2 km/h (1 Bft) 100,00 %
29.05.2017 11:28 23,4 C 23,3 C 62 % 1015,1 hPa 0,0 l/m 1,7 km/h (1 Bft) S-SO 152 2 min 0,000 mm 5,7 UV-I 850 W/m 15,7 C 23,4 C 3,2 km/h (1 Bft) 100,00 %
29.05.2017 11:30 23,6 C 23,3 C 61 % 1015,1 hPa 0,0 l/m 0,9 km/h (0 Bft) SW 223 2 min 0,000 mm 5,7 UV-I 852 W/m 15,6 C 23,6 C 3,2 km/h (1 Bft) 100,00 %
29.05.2017 11:32 23,7 C 23,3 C 59 % 1015,1 hPa 0,0 l/m 2,7 km/h (1 Bft) NW 320 2 min 0,000 mm 5,8 UV-I 858 W/m 15,2 C 23,7 C 6,4 km/h (2 Bft) 100,00 %
29.05.2017 11:34 23,8 C 23,3 C 58 % 1015,0 hPa 0,0 l/m 1,8 km/h (1 Bft) NW 319 2 min 0,000 mm 5,8 UV-I 863 W/m 15,0 C 23,8 C 4,8 km/h (1 Bft) 98,21 %
29.05.2017 11:36 23,8 C 23,3 C 61 % 1015,0 hPa 0,0 l/m 1,4 km/h (1 Bft) N-NW 334 2 min 0,000 mm 5,9 UV-I 868 W/m 15,8 C 23,8 C 4,8 km/h (1 Bft) 95,12 %
29.05.2017 11:38 23,7 C 23,3 C 58 % 1015,0 hPa 0,0 l/m 2,2 km/h (1 Bft) N-NW 327 2 min 0,000 mm 5,9 UV-I 868 W/m 14,9 C 23,7 C 3,2 km/h (1 Bft) 94,00 %
29.05.2017 11:40 23,7 C 23,3 C 59 % 1014,9 hPa 0,0 l/m 1,1 km/h (1 Bft) N-NW 335 2 min 0,000 mm 5,9 UV-I 860 W/m 15,2 C 23,7 C 3,2 km/h (1 Bft) 100,00 %
29.05.2017 11:42 23,8 C 23,3 C 62 % 1015,0 hPa 0,0 l/m 0,8 km/h (0 Bft) N-NW 331 2 min 0,000 mm 5,8 UV-I 848 W/m 16,1 C 23,8 C 3,2 km/h (1 Bft) 100,00 %
29.05.2017 11:44 23,8 C 23,3 C 59 % 1015,0 hPa 0,0 l/m 2,3 km/h (1 Bft) N 355 2 min 0,000 mm 6,0 UV-I 867 W/m 15,3 C 23,8 C 6,4 km/h (2 Bft) 100,00 %
29.05.2017 11:46 23,9 C 23,3 C 60 % 1015,0 hPa 0,0 l/m 2,4 km/h (1 Bft) NO 50 2 min 0,000 mm 6,0 UV-I 871 W/m 15,7 C 23,9 C 6,4 km/h (2 Bft) 93,62 %
29.05.2017 11:48 24,1 C 23,3 C 61 % 1015,0 hPa 0,0 l/m 2,3 km/h (1 Bft) NW 322 2 min 0,000 mm 6,0 UV-I 874 W/m 16,1 C 24,1 C 8,0 km/h (2 Bft) 94,87 %
29.05.2017 11:50 24,3 C 23,3 C 58 % 1015,0 hPa 0,0 l/m 0,8 km/h (0 Bft) N-NW 339 2 min 0,000 mm 6,1 UV-I 864 W/m 15,5 C 24,3 C 3,2 km/h (1 Bft) 96,23 %
29.05.2017 11:52 24,3 C 23,3 C 59 % 1015,0 hPa 0,0 l/m 0,5 km/h (0 Bft) N-NW 340 2 min 0,000 mm 6,1 UV-I 883 W/m 15,8 C 24,3 C 3,2 km/h (1 Bft) 97,87 %
29.05.2017 11:54 24,2 C 23,3 C 57 % 1015,0 hPa 0,0 l/m 0,8 km/h (0 Bft) N-NW 340 2 min 0,000 mm 6,2 UV-I 886 W/m 15,1 C 24,2 C 3,2 km/h (1 Bft) 95,74 %
29.05.2017 11:56 24,1 C 23,3 C 56 % 1014,9 hPa 0,0 l/m 0,1 km/h (0 Bft) N-NW 340 2 min 0,000 mm 6,2 UV-I 885 W/m 14,8 C 24,1 C 1,6 km/h (1 Bft) 100,00 %
29.05.2017 11:58 24,2 C 23,3 C 55 % 1014,9 hPa 0,0 l/m 1,0 km/h (0 Bft) N-NW 340 2 min 0,000 mm 6,1 UV-I 870 W/m 14,6 C 24,2 C 3,2 km/h (1 Bft) 98,00 %
29.05.2017 12:00 24,2 C 23,3 C 54 % 1014,9 hPa 0,0 l/m 1,6 km/h (1 Bft) W-NW 302 2 min 0,534 mm 6,2 UV-I 890 W/m 14,3 C 24,2 C 3,2 km/h (1 Bft) 100,00 %
29.05.2017 12:02 24,3 C 23,3 C 58 % 1014,9 hPa 0,0 l/m 1,1 km/h (1 Bft) N-NO 20 2 min 0,000 mm 6,2 UV-I 889 W/m 15,5 C 24,3 C 4,8 km/h (1 Bft) 98,00 %
29.05.2017 12:04 24,6 C 23,3 C 57 % 1014,8 hPa 0,0 l/m 6,2 km/h (2 Bft) NO 46 2 min 0,000 mm 6,3 UV-I 871 W/m 15,5 C 24,6 C 8,0 km/h (2 Bft) 94,29 %
29.05.2017 12:06 24,8 C 23,3 C 54 % 1014,8 hPa 0,0 l/m 3,8 km/h (1 Bft) NO 49 2 min 0,000 mm 6,3 UV-I 896 W/m 14,8 C 24,8 C 4,8 km/h (1 Bft) 96,23 %
29.05.2017 12:08 25,0 C 23,3 C 56 % 1014,8 hPa 0,0 l/m 2,2 km/h (1 Bft) NO 49 2 min 0,000 mm 6,3 UV-I 885 W/m 15,6 C 25,0 C 3,2 km/h (1 Bft) 100,00 %
29.05.2017 12:10 25,1 C 23,3 C 54 % 1014,8 hPa 0,0 l/m 0,7 km/h (0 Bft) NO 48 2 min 0,000 mm 6,4 UV-I 904 W/m 15,1 C 25,1 C 1,6 km/h (1 Bft) 100,00 %
29.05.2017 12:12 25,2 C 23,3 C 58 % 1014,8 hPa 0,0 l/m 1,4 km/h (1 Bft) NO 48 2 min 0,000 mm 6,4 UV-I 900 W/m 16,3 C 25,2 C 4,8 km/h (1 Bft) 98,11 %
29.05.2017 12:14 25,2 C 23,3 C 56 % 1014,8 hPa 0,0 l/m 1,2 km/h (1 Bft) NO 48 2 min 0,000 mm 6,4 UV-I 900 W/m 15,8 C 25,2 C 3,2 km/h (1 Bft) 97,56 %
29.05.2017 12:16 25,3 C 23,3 C 51 % 1014,8 hPa 0,0 l/m 2,2 km/h (1 Bft) NO 48 2 min 0,000 mm 6,4 UV-I 899 W/m 14,4 C 25,3 C 3,2 km/h (1 Bft) 100,00 %
29.05.2017 12:18 25,3 C 23,3 C 50 % 1014,8 hPa 0,0 l/m 2,1 km/h (1 Bft) NO 48 2 min 0,000 mm 6,4 UV-I 899 W/m 14,1 C 25,3 C 3,2 km/h (1 Bft) 98,00 %
29.05.2017 12:20 25,2 C 23,3 C 50 % 1014,8 hPa 0,0 l/m 1,4 km/h (1 Bft) NO 48 2 min 0,000 mm 6,4 UV-I 893 W/m 14,0 C 25,2 C 3,2 km/h (1 Bft) 100,00 %
29.05.2017 12:22 25,2 C 23,3 C 49 % 1014,8 hPa 0,0 l/m 3,7 km/h (1 Bft) O-SO 119 2 min 0,000 mm 6,4 UV-I 887 W/m 13,7 C 25,2 C 6,4 km/h (2 Bft) 98,00 %
29.05.2017 12:24 25,3 C 23,3 C 50 % 1014,7 hPa 0,0 l/m 3,7 km/h (1 Bft) O 99 2 min 0,000 mm 6,5 UV-I 889 W/m 14,1 C 25,3 C 9,7 km/h (2 Bft) 95,74 %
29.05.2017 12:26 25,4 C 23,3 C 50 % 1014,7 hPa 0,0 l/m 4,0 km/h (1 Bft) O-SO 104 2 min 0,000 mm 6,5 UV-I 904 W/m 14,2 C 25,4 C 6,4 km/h (2 Bft) 98,21 %
29.05.2017 12:28 25,4 C 23,3 C 50 % 1014,7 hPa 0,0 l/m 0,7 km/h (0 Bft) O-SO 105 2 min 0,000 mm 6,5 UV-I 904 W/m 14,2 C 25,4 C 3,2 km/h (1 Bft) 100,00 %
29.05.2017 12:30 25,5 C 23,3 C 51 % 1014,7 hPa 0,0 l/m 1,8 km/h (1 Bft) O-SO 104 2 min 0,000 mm 6,5 UV-I 895 W/m 14,6 C 25,5 C 4,8 km/h (1 Bft) 94,00 %
29.05.2017 12:32 25,3 C 23,3 C 49 % 1014,7 hPa 0,0 l/m 3,4 km/h (1 Bft) O-SO 104 2 min 0,000 mm 6,5 UV-I 908 W/m 13,8 C 25,3 C 4,8 km/h (1 Bft) 98,11 %
29.05.2017 12:34 25,3 C 23,3 C 49 % 1014,7 hPa 0,0 l/m 0,5 km/h (0 Bft) O-SO 104 2 min 0,000 mm 6,5 UV-I 907 W/m 13,8 C 25,3 C 3,2 km/h (1 Bft) 95,74 %
29.05.2017 12:36 25,4 C 23,3 C 55 % 1014,7 hPa 0,0 l/m 2,8 km/h (1 Bft) O-NO 71 2 min 0,000 mm 6,5 UV-I 905 W/m 15,7 C 25,4 C 4,8 km/h (1 Bft) 93,62 %
29.05.2017 12:38 25,5 C 23,3 C 53 % 1014,6 hPa 0,0 l/m 4,3 km/h (1 Bft) O-NO 61 2 min 0,000 mm 6,6 UV-I 908 W/m 15,2 C 25,5 C 6,4 km/h (2 Bft) 97,87 %
29.05.2017 12:40 25,6 C 23,9 C 51 % 1014,6 hPa 0,0 l/m 3,0 km/h (1 Bft) O-NO 61 2 min 0,000 mm 6,6 UV-I 911 W/m 14,7 C 25,6 C 6,4 km/h (2 Bft) 94,74 %
29.05.2017 12:42 25,7 C 23,3 C 53 % 1014,6 hPa 0,0 l/m 2,8 km/h (1 Bft) O-NO 61 2 min 0,000 mm 6,6 UV-I 912 W/m 15,4 C 25,7 C 4,8 km/h (1 Bft) 98,11 %
29.05.2017 12:44 25,8 C 23,9 C 52 % 1014,6 hPa 0,0 l/m 3,8 km/h (1 Bft) NO 53 2 min 0,000 mm 6,6 UV-I 912 W/m 15,2 C 25,8 C 6,4 km/h (2 Bft) 97,56 %
29.05.2017 12:46 26,1 C 23,3 C 49 % 1014,5 hPa 0,0 l/m 3,4 km/h (1 Bft) NO 45 2 min 0,000 mm 6,6 UV-I 910 W/m 14,5 C 26,1 C 8,0 km/h (2 Bft) 96,43 %
29.05.2017 12:48 25,9 C 23,9 C 50 % 1014,6 hPa 0,0 l/m 2,6 km/h (1 Bft) NO 44 2 min 0,000 mm 6,6 UV-I 910 W/m 14,7 C 25,9 C 6,4 km/h (2 Bft) 97,37 %
29.05.2017 12:50 25,9 C 23,9 C 50 % 1014,5 hPa 0,0 l/m 0,5 km/h (0 Bft) NO 44 2 min 0,000 mm 6,6 UV-I 912 W/m 14,7 C 25,9 C 1,6 km/h (1 Bft) 97,87 %
29.05.2017 12:52 25,8 C 23,9 C 45 % 1014,5 hPa 0,0 l/m 1,2 km/h (1 Bft) NO 42 2 min 0,000 mm 6,6 UV-I 914 W/m 13,0 C 25,8 C 3,2 km/h (1 Bft) 98,00 %
29.05.2017 12:54 25,8 C 23,9 C 46 % 1014,5 hPa 0,0 l/m 1,8 km/h (1 Bft) NO 38 2 min 0,000 mm 6,6 UV-I 912 W/m 13,3 C 25,8 C 3,2 km/h (1 Bft) 98,00 %
29.05.2017 12:56 25,8 C 23,9 C 47 % 1014,5 hPa 0,0 l/m 2,4 km/h (1 Bft) NO 36 2 min 0,000 mm 6,6 UV-I 913 W/m 13,6 C 25,8 C 6,4 km/h (2 Bft) 95,12 %
29.05.2017 12:58 25,8 C 23,9 C 45 % 1014,5 hPa 0,0 l/m 1,6 km/h (1 Bft) N-NO 33 2 min 0,000 mm 6,6 UV-I 909 W/m 13,0 C 25,8 C 4,8 km/h (1 Bft) 96,00 %
29.05.2017 13:00 25,9 C 23,9 C 46 % 1014,5 hPa 0,0 l/m 1,2 km/h (1 Bft) N-NO 33 2 min 0,000 mm 6,6 UV-I 907 W/m 13,4 C 25,9 C 3,2 km/h (1 Bft) 97,62 %
29.05.2017 13:02 26,1 C 23,9 C 43 % 1014,5 hPa 0,0 l/m 2,3 km/h (1 Bft) O-NO 65 2 min 0,584 mm 6,6 UV-I 909 W/m 12,5 C 26,1 C 4,8 km/h (1 Bft) 100,00 %
29.05.2017 13:04 26,2 C 23,9 C 44 % 1014,5 hPa 0,0 l/m 1,6 km/h (1 Bft) O 92 2 min 0,000 mm 6,6 UV-I 909 W/m 13,0 C 26,2 C 3,2 km/h (1 Bft) 95,74 %
29.05.2017 13:06 26,5 C 23,9 C 45 % 1014,4 hPa 0,0 l/m 2,4 km/h (1 Bft) O 92 2 min 0,000 mm 6,6 UV-I 912 W/m 13,6 C 26,5 C 4,8 km/h (1 Bft) 94,12 %
29.05.2017 13:08 26,6 C 23,9 C 44 % 1014,4 hPa 0,0 l/m 3,0 km/h (1 Bft) S-SO 158 2 min 0,000 mm 6,7 UV-I 918 W/m 13,3 C 26,6 C 4,8 km/h (1 Bft) 98,00 %
29.05.2017 13:10 26,8 C 23,9 C 42 % 1014,4 hPa 0,0 l/m 2,0 km/h (1 Bft) S 173 2 min 0,000 mm 6,6 UV-I 916 W/m 12,8 C 26,8 C 6,4 km/h (2 Bft) 92,11 %
29.05.2017 13:12 26,8 C 23,9 C 40 % 1014,4 hPa 0,0 l/m 1,5 km/h (1 Bft) SO 140 2 min 0,000 mm 6,7 UV-I 916 W/m 12,1 C 26,8 C 6,4 km/h (2 Bft) 98,11 %
29.05.2017 13:14 26,8 C 23,9 C 41 % 1014,4 hPa 0,0 l/m 0,7 km/h (0 Bft) SO 140 2 min 0,000 mm 6,6 UV-I 916 W/m 12,4 C 26,8 C 4,8 km/h (1 Bft) 98,00 %
29.05.2017 13:16 27,0 C 23,9 C 39 % 1014,3 hPa 0,0 l/m 1,7 km/h (1 Bft) SO 140 2 min 0,000 mm 6,6 UV-I 902 W/m 11,8 C 27,0 C 4,8 km/h (1 Bft) 89,47 %
29.05.2017 13:18 27,1 C 23,9 C 37 % 1014,3 hPa 0,0 l/m 3,0 km/h (1 Bft) S-SO 162 2 min 0,000 mm 6,6 UV-I 902 W/m 11,1 C 27,1 C 6,4 km/h (2 Bft) 98,11 %
29.05.2017 13:20 27,2 C 23,9 C 37 % 1014,2 hPa 0,0 l/m 1,1 km/h (1 Bft) S-SO 162 2 min 0,000 mm 6,6 UV-I 906 W/m 11,2 C 27,2 C 3,2 km/h (1 Bft) 97,87 %
29.05.2017 13:22 27,3 C 23,9 C 34 % 1014,3 hPa 0,0 l/m 2,2 km/h (1 Bft) S-SO 155 2 min 0,000 mm 6,6 UV-I 912 W/m 10,0 C 27,3 C 6,4 km/h (2 Bft) 97,56 %
29.05.2017 13:24 27,2 C 23,9 C 39 % 1014,2 hPa 0,0 l/m 3,3 km/h (1 Bft) S 191 2 min 0,000 mm 6,5 UV-I 917 W/m 12,0 C 27,2 C 8,0 km/h (2 Bft) 93,62 %
29.05.2017 13:26 27,4 C 23,9 C 39 % 1014,2 hPa 0,0 l/m 4,5 km/h (1 Bft) S-SW 201 2 min 0,000 mm 6,6 UV-I 932 W/m 12,2 C 27,4 C 8,0 km/h (2 Bft) 92,00 %
29.05.2017 13:28 27,4 C 23,9 C 36 % 1014,2 hPa 0,0 l/m 2,3 km/h (1 Bft) S-SW 199 2 min 0,000 mm 6,3 UV-I 818 W/m 11,0 C 27,4 C 4,8 km/h (1 Bft) 93,18 %
29.05.2017 13:30 27,4 C 23,9 C 40 % 1014,2 hPa 0,0 l/m 1,0 km/h (0 Bft) SO 144 2 min 0,000 mm 5,7 UV-I 742 W/m 12,6 C 27,4 C 4,8 km/h (1 Bft) 96,23 %
29.05.2017 13:32 27,2 C 23,9 C 39 % 1014,1 hPa 0,0 l/m 3,0 km/h (1 Bft) N 9 2 min 0,000 mm 6,0 UV-I 807 W/m 12,0 C 27,2 C 6,4 km/h (2 Bft) 95,74 %
29.05.2017 13:34 27,2 C 23,9 C 42 % 1014,2 hPa 0,0 l/m 4,0 km/h (1 Bft) N-NO 20 2 min 0,000 mm 6,5 UV-I 891 W/m 13,2 C 27,2 C 6,4 km/h (2 Bft) 91,43 %
29.05.2017 13:36 27,3 C 23,9 C 42 % 1014,1 hPa 0,0 l/m 3,7 km/h (1 Bft) N-NO 18 2 min 0,000 mm 6,5 UV-I 935 W/m 13,2 C 27,3 C 6,4 km/h (2 Bft) 92,16 %
29.05.2017 13:38 27,3 C 23,9 C 39 % 1014,1 hPa 0,0 l/m 1,8 km/h (1 Bft) N-NO 18 2 min 0,000 mm 6,4 UV-I 908 W/m 12,1 C 27,3 C 4,8 km/h (1 Bft) 97,87 %
29.05.2017 13:40 27,2 C 23,9 C 34 % 1014,1 hPa 0,0 l/m 2,3 km/h (1 Bft) N-NO 18 2 min 0,000 mm 6,4 UV-I 915 W/m 10,0 C 27,2 C 4,8 km/h (1 Bft) 96,00 %
29.05.2017 13:42 27,1 C 23,9 C 37 % 1014,1 hPa 0,0 l/m 1,4 km/h (1 Bft) N-NO 18 2 min 0,000 mm 6,3 UV-I 904 W/m 11,1 C 27,1 C 4,8 km/h (1 Bft) 96,15 %
29.05.2017 13:44 27,2 C 23,9 C 38 % 1014,1 hPa 0,0 l/m 1,7 km/h (1 Bft) N-NO 18 2 min 0,000 mm 6,4 UV-I 906 W/m 11,6 C 27,2 C 3,2 km/h (1 Bft) 92,31 %
29.05.2017 13:46 27,3 C 23,9 C 43 % 1014,1 hPa 0,0 l/m 2,8 km/h (1 Bft) N-NO 18 2 min 0,000 mm 6,3 UV-I 892 W/m 13,6 C 27,3 C 6,4 km/h (2 Bft) 94,34 %
29.05.2017 13:48 27,4 C 23,9 C 45 % 1014,1 hPa 0,0 l/m 1,2 km/h (1 Bft) N-NO 18 2 min 0,000 mm 6,3 UV-I 899 W/m 14,4 C 27,4 C 4,8 km/h (1 Bft) 97,73 %
29.05.2017 13:50 27,4 C 23,9 C 35 % 1014,1 hPa 0,0 l/m 2,0 km/h (1 Bft) N-NO 17 2 min 0,000 mm 6,4 UV-I 906 W/m 10,6 C 27,4 C 4,8 km/h (1 Bft) 94,00 %
29.05.2017 13:52 27,4 C 23,9 C 37 % 1014,0 hPa 0,0 l/m 1,9 km/h (1 Bft) N-NO 17 2 min 0,000 mm 6,3 UV-I 903 W/m 11,4 C 27,4 C 6,4 km/h (2 Bft) 97,56 %
29.05.2017 13:54 27,4 C 23,9 C 39 % 1014,0 hPa 0,0 l/m 2,8 km/h (1 Bft) N-NO 17 2 min 0,000 mm 6,2 UV-I 885 W/m 12,2 C 27,4 C 4,8 km/h (1 Bft) 98,11 %
29.05.2017 13:56 27,5 C 23,9 C 40 % 1013,9 hPa 0,0 l/m 1,3 km/h (1 Bft) N-NO 19 2 min 0,000 mm 6,2 UV-I 874 W/m 12,7 C 27,5 C 4,8 km/h (1 Bft) 97,44 %
29.05.2017 13:58 27,4 C 23,9 C 40 % 1013,9 hPa 0,0 l/m 0,5 km/h (0 Bft) N-NO 17 2 min 0,000 mm 6,2 UV-I 887 W/m 12,6 C 27,4 C 1,6 km/h (1 Bft) 94,74 %
29.05.2017 14:00 27,4 C 23,9 C 34 % 1013,9 hPa 0,0 l/m 4,4 km/h (1 Bft) NO 34 2 min 0,000 mm 6,2 UV-I 891 W/m 10,1 C 27,4 C 8,0 km/h (2 Bft) 94,34 %
29.05.2017 14:02 27,6 C 23,9 C 36 % 1013,7 hPa 0,0 l/m 5,5 km/h (1 Bft) N-NO 26 2 min 0,609 mm 6,1 UV-I 856 W/m 11,2 C 27,6 C 8,0 km/h (2 Bft) 96,00 %
29.05.2017 14:04 27,6 C 24,4 C 35 % 1013,7 hPa 0,0 l/m 6,5 km/h (2 Bft) N-NO 30 2 min 0,000 mm 6,1 UV-I 884 W/m 10,7 C 27,6 C 9,7 km/h (2 Bft) 100,00 %
29.05.2017 14:06 27,8 C 24,4 C 36 % 1013,7 hPa 0,0 l/m 6,5 km/h (2 Bft) NO 35 2 min 0,000 mm 6,2 UV-I 895 W/m 11,3 C 27,8 C 9,7 km/h (2 Bft) 98,00 %
29.05.2017 14:08 27,8 C 24,4 C 35 % 1013,7 hPa 0,0 l/m 5,5 km/h (1 Bft) NO 40 2 min 0,000 mm 6,1 UV-I 898 W/m 10,9 C 27,8 C 8,0 km/h (2 Bft) 94,29 %
29.05.2017 14:10 27,9 C 24,4 C 39 % 1013,7 hPa 0,0 l/m 2,9 km/h (1 Bft) N-NW 348 2 min 0,000 mm 6,2 UV-I 911 W/m 12,6 C 27,9 C 4,8 km/h (1 Bft) 98,11 %
29.05.2017 14:12 27,9 C 24,4 C 33 % 1013,7 hPa 0,0 l/m 1,9 km/h (1 Bft) NO 53 2 min 0,000 mm 6,2 UV-I 906 W/m 10,1 C 27,9 C 4,8 km/h (1 Bft) 100,00 %
29.05.2017 14:14 27,9 C 24,4 C 37 % 1013,7 hPa 0,0 l/m 1,6 km/h (1 Bft) NW 322 2 min 0,000 mm 6,1 UV-I 901 W/m 11,8 C 27,9 C 4,8 km/h (1 Bft) 98,00 %
29.05.2017 14:16 27,8 C 24,4 C 37 % 1013,6 hPa 0,0 l/m 1,4 km/h (1 Bft) N 355 2 min 0,000 mm 5,9 UV-I 852 W/m 11,8 C 27,8 C 3,2 km/h (1 Bft) 92,31 %
29.05.2017 14:18 27,8 C 24,4 C 30 % 1013,6 hPa 0,0 l/m 1,2 km/h (1 Bft) N-NO 14 2 min 0,000 mm 5,9 UV-I 853 W/m 8,6 C 27,8 C 3,2 km/h (1 Bft) 98,00 %
29.05.2017 14:20 27,9 C 24,4 C 27 % 1013,6 hPa 0,0 l/m 3,3 km/h (1 Bft) NO 40 2 min 0,000 mm 5,8 UV-I 842 W/m 7,2 C 27,9 C 4,8 km/h (1 Bft) 97,87 %
29.05.2017 14:22 27,9 C 24,4 C 30 % 1013,6 hPa 0,0 l/m 4,0 km/h (1 Bft) NO 40 2 min 0,000 mm 5,9 UV-I 871 W/m 8,7 C 27,9 C 6,4 km/h (2 Bft) 96,23 %
29.05.2017 14:24 27,9 C 24,4 C 28 % 1013,5 hPa 0,0 l/m 3,0 km/h (1 Bft) NO 40 2 min 0,000 mm 5,9 UV-I 898 W/m 7,7 C 27,9 C 4,8 km/h (1 Bft) 95,74 %
29.05.2017 14:26 28,1 C 24,4 C 26 % 1013,5 hPa 0,0 l/m 4,8 km/h (1 Bft) O-NO 73 2 min 0,000 mm 5,9 UV-I 888 W/m 6,8 C 28,1 C 8,0 km/h (2 Bft) 93,62 %
29.05.2017 14:28 28,0 C 24,4 C 26 % 1013,5 hPa 0,0 l/m 2,2 km/h (1 Bft) O-SO 108 2 min 0,000 mm 5,8 UV-I 869 W/m 6,7 C 28,0 C 9,7 km/h (2 Bft) 97,56 %
29.05.2017 14:30 28,1 C 24,4 C 26 % 1013,5 hPa 0,0 l/m 1,3 km/h (1 Bft) NO 46 2 min 0,000 mm 5,6 UV-I 831 W/m 6,8 C 28,1 C 4,8 km/h (1 Bft) 94,00 %
29.05.2017 14:32 27,9 C 24,4 C 28 % 1013,5 hPa 0,0 l/m 0,7 km/h (0 Bft) NO 46 2 min 0,000 mm 5,5 UV-I 831 W/m 7,7 C 27,9 C 3,2 km/h (1 Bft) 97,56 %
29.05.2017 14:34 27,9 C 24,4 C 36 % 1013,5 hPa 0,0 l/m 1,6 km/h (1 Bft) N 9 2 min 0,000 mm 5,4 UV-I 804 W/m 11,4 C 27,9 C 4,8 km/h (1 Bft) 96,00 %
29.05.2017 14:36 27,9 C 24,4 C 29 % 1013,5 hPa 0,0 l/m 1,8 km/h (1 Bft) N-NW 333 2 min 0,000 mm 5,5 UV-I 818 W/m 8,2 C 27,9 C 4,8 km/h (1 Bft) 96,23 %
29.05.2017 14:38 27,9 C 24,4 C 35 % 1013,5 hPa 0,0 l/m 1,4 km/h (1 Bft) N-NO 29 2 min 0,000 mm 5,5 UV-I 832 W/m 11,0 C 27,9 C 3,2 km/h (1 Bft) 95,45 %
29.05.2017 14:40 27,9 C 24,4 C 31 % 1013,5 hPa 0,0 l/m 1,9 km/h (1 Bft) W-NW 290 2 min 0,000 mm 5,3 UV-I 798 W/m 9,2 C 27,9 C 4,8 km/h (1 Bft) 95,45 %
29.05.2017 14:42 28,1 C 24,4 C 26 % 1013,5 hPa 0,0 l/m 5,2 km/h (1 Bft) W-NW 295 2 min 0,000 mm 5,1 UV-I 774 W/m 6,8 C 28,1 C 9,7 km/h (2 Bft) 94,00 %
29.05.2017 14:44 28,2 C 24,4 C 32 % 1013,5 hPa 0,0 l/m 3,7 km/h (1 Bft) W-NW 302 2 min 0,000 mm 5,1 UV-I 772 W/m 9,9 C 28,2 C 4,8 km/h (1 Bft) 95,74 %
29.05.2017 14:46 28,2 C 24,4 C 27 % 1013,5 hPa 0,0 l/m 3,6 km/h (1 Bft) W-NW 291 2 min 0,000 mm 5,1 UV-I 777 W/m 7,4 C 28,2 C 6,4 km/h (2 Bft) 97,87 %
29.05.2017 14:48 28,2 C 24,4 C 32 % 1013,5 hPa 0,0 l/m 3,1 km/h (1 Bft) NW 304 2 min 0,000 mm 5,0 UV-I 742 W/m 9,9 C 28,2 C 6,4 km/h (2 Bft) 97,37 %
29.05.2017 14:50 28,1 C 24,4 C 30 % 1013,5 hPa 0,0 l/m 3,0 km/h (1 Bft) NW 319 2 min 0,000 mm 4,7 UV-I 681 W/m 8,9 C 28,1 C 4,8 km/h (1 Bft) 100,00 %
29.05.2017 14:52 28,1 C 24,4 C 29 % 1013,5 hPa 0,0 l/m 1,1 km/h (1 Bft) NW 321 2 min 0,000 mm 4,7 UV-I 684 W/m 8,4 C 28,1 C 3,2 km/h (1 Bft) 98,00 %
29.05.2017 14:54 28,0 C 24,4 C 30 % 1013,5 hPa 0,0 l/m 0,8 km/h (0 Bft) NW 321 2 min 0,000 mm 4,9 UV-I 717 W/m 8,8 C 28,0 C 1,6 km/h (1 Bft) 96,00 %
29.05.2017 14:56 27,9 C 24,4 C 31 % 1013,5 hPa 0,0 l/m 1,2 km/h (1 Bft) N-NW 340 2 min 0,000 mm 4,9 UV-I 776 W/m 9,2 C 27,9 C 4,8 km/h (1 Bft) 100,00 %
29.05.2017 14:58 27,8 C 24,4 C 31 % 1013,4 hPa 0,0 l/m 2,4 km/h (1 Bft) N-NW 342 2 min 0,000 mm 5,0 UV-I 798 W/m 9,1 C 27,8 C 4,8 km/h (1 Bft) 98,00 %
29.05.2017 15:00 27,9 C 24,4 C 29 % 1013,4 hPa 0,0 l/m 2,6 km/h (1 Bft) N-NW 338 2 min 0,585 mm 4,9 UV-I 778 W/m 8,2 C 27,9 C 4,8 km/h (1 Bft) 97,87 %
29.05.2017 15:02 28,0 C 24,4 C 35 % 1013,4 hPa 0,0 l/m 1,3 km/h (1 Bft) N-NW 338 2 min 0,000 mm 4,9 UV-I 792 W/m 11,1 C 28,0 C 1,6 km/h (1 Bft) 100,00 %
29.05.2017 15:04 28,0 C 24,4 C 27 % 1013,4 hPa 0,0 l/m 1,0 km/h (0 Bft) N-NW 338 2 min 0,000 mm 5,0 UV-I 811 W/m 7,2 C 28,0 C 3,2 km/h (1 Bft) 100,00 %
29.05.2017 15:06 28,0 C 24,4 C 31 % 1013,3 hPa 0,0 l/m 1,0 km/h (0 Bft) N-NW 338 2 min 0,000 mm 4,9 UV-I 801 W/m 9,3 C 28,0 C 3,2 km/h (1 Bft) 100,00 %
29.05.2017 15:08 28,1 C 24,4 C 29 % 1013,4 hPa 0,0 l/m 2,1 km/h (1 Bft) NW 315 2 min 0,000 mm 4,9 UV-I 801 W/m 8,4 C 28,1 C 4,8 km/h (1 Bft) 97,37 %
29.05.2017 15:10 28,3 C 24,4 C 32 % 1013,3 hPa 0,0 l/m 1,2 km/h (1 Bft) N-NW 329 2 min 0,000 mm 4,8 UV-I 782 W/m 10,0 C 28,3 C 3,2 km/h (1 Bft) 100,00 %
29.05.2017 15:12 28,4 C 24,4 C 32 % 1013,4 hPa 0,0 l/m 3,4 km/h (1 Bft) N-NO 28 2 min 0,000 mm 4,7 UV-I 766 W/m 10,1 C 28,4 C 6,4 km/h (2 Bft) 95,83 %
29.05.2017 15:14 28,6 C 24,4 C 33 % 1013,3 hPa 0,0 l/m 5,7 km/h (1 Bft) O-NO 65 2 min 0,000 mm 4,7 UV-I 779 W/m 10,7 C 28,6 C 8,0 km/h (2 Bft) 98,00 %
29.05.2017 15:16 28,7 C 24,4 C 29 % 1013,3 hPa 0,0 l/m 2,6 km/h (1 Bft) O-NO 65 2 min 0,000 mm 4,5 UV-I 734 W/m 8,9 C 28,7 C 4,8 km/h (1 Bft) 97,37 %
29.05.2017 15:18 28,7 C 24,4 C 28 % 1013,3 hPa 0,0 l/m 2,8 km/h (1 Bft) O-NO 72 2 min 0,000 mm 4,5 UV-I 739 W/m 8,4 C 28,7 C 4,8 km/h (1 Bft) 96,00 %
29.05.2017 15:20 28,8 C 24,4 C 29 % 1013,3 hPa 0,0 l/m 2,9 km/h (1 Bft) O-NO 71 2 min 0,000 mm 4,6 UV-I 777 W/m 9,0 C 28,8 C 4,8 km/h (1 Bft) 100,00 %
29.05.2017 15:22 28,8 C 24,4 C 32 % 1013,2 hPa 0,0 l/m 1,1 km/h (1 Bft) N-NW 348 2 min 0,000 mm 4,6 UV-I 788 W/m 10,4 C 28,8 C 3,2 km/h (1 Bft) 96,30 %
29.05.2017 15:24 28,8 C 25,0 C 29 % 1013,2 hPa 0,0 l/m 2,1 km/h (1 Bft) N-NW 346 2 min 0,000 mm 4,6 UV-I 782 W/m 9,0 C 28,8 C 3,2 km/h (1 Bft) 100,00 %
29.05.2017 15:26 28,7 C 25,0 C 30 % 1013,2 hPa 0,0 l/m 1,6 km/h (1 Bft) N-NW 342 2 min 0,000 mm 4,5 UV-I 765 W/m 9,4 C 28,7 C 3,2 km/h (1 Bft) 100,00 %
29.05.2017 15:28 28,8 C 25,0 C 32 % 1013,2 hPa 0,0 l/m 1,4 km/h (1 Bft) N-NW 342 2 min 0,000 mm 4,4 UV-I 748 W/m 10,4 C 28,8 C 3,2 km/h (1 Bft) 98,00 %
29.05.2017 15:30 28,8 C 25,0 C 33 % 1013,2 hPa 0,0 l/m 1,1 km/h (1 Bft) N-NW 343 2 min 0,000 mm 4,3 UV-I 745 W/m 10,9 C 28,8 C 3,2 km/h (1 Bft) 97,56 %
29.05.2017 15:32 28,8 C 25,0 C 26 % 1013,1 hPa 0,0 l/m 3,4 km/h (1 Bft) O-NO 65 2 min 0,000 mm 4,2 UV-I 715 W/m 7,4 C 28,8 C 6,4 km/h (2 Bft) 100,00 %
29.05.2017 15:34 28,8 C 25,0 C 31 % 1013,1 hPa 0,0 l/m 1,3 km/h (1 Bft) O-NO 65 2 min 0,000 mm 4,0 UV-I 668 W/m 10,0 C 28,8 C 3,2 km/h (1 Bft) 96,00 %
29.05.2017 15:36 28,8 C 25,0 C 29 % 1013,1 hPa 0,0 l/m 0,2 km/h (0 Bft) O-NO 65 2 min 0,000 mm 3,9 UV-I 635 W/m 9,0 C 28,8 C 1,6 km/h (1 Bft) 92,31 %
29.05.2017 15:38 28,8 C 25,0 C 38 % 1013,1 hPa 0,0 l/m 3,2 km/h (1 Bft) O-NO 60 2 min 0,000 mm 3,7 UV-I 609 W/m 13,0 C 28,8 C 6,4 km/h (2 Bft) 100,00 %
29.05.2017 15:40 28,7 C 25,0 C 35 % 1013,1 hPa 0,0 l/m 2,3 km/h (1 Bft) O-NO 59 2 min 0,000 mm 3,8 UV-I 638 W/m 11,7 C 28,7 C 4,8 km/h (1 Bft) 100,00 %
29.05.2017 15:42 28,6 C 25,0 C 28 % 1013,1 hPa 0,0 l/m 1,7 km/h (1 Bft) O-NO 59 2 min 0,000 mm 3,8 UV-I 646 W/m 8,3 C 28,6 C 3,2 km/h (1 Bft) 97,56 %
29.05.2017 15:44 28,6 C 25,0 C 31 % 1013,1 hPa 0,0 l/m 0,6 km/h (0 Bft) O-NO 59 2 min 0,000 mm 3,7 UV-I 630 W/m 9,8 C 28,6 C 1,6 km/h (1 Bft) 97,87 %
29.05.2017 15:46 28,6 C 25,0 C 28 % 1013,1 hPa 0,0 l/m 2,8 km/h (1 Bft) O-NO 59 2 min 0,000 mm 3,7 UV-I 627 W/m 8,3 C 28,6 C 4,8 km/h (1 Bft) 97,87 %
29.05.2017 15:48 28,7 C 25,0 C 29 % 1013,1 hPa 0,0 l/m 1,1 km/h (1 Bft) NO 55 2 min 0,000 mm 3,6 UV-I 618 W/m 8,9 C 28,7 C 3,2 km/h (1 Bft) 94,00 %
29.05.2017 15:50 28,7 C 25,0 C 32 % 1013,1 hPa 0,0 l/m 1,1 km/h (1 Bft) NO 54 2 min 0,000 mm 3,5 UV-I 601 W/m 10,4 C 28,7 C 3,2 km/h (1 Bft) 96,00 %
29.05.2017 15:52 28,6 C 25,0 C 30 % 1013,1 hPa 0,0 l/m 2,1 km/h (1 Bft) N-NO 25 2 min 0,000 mm 3,7 UV-I 656 W/m 9,3 C 28,6 C 3,2 km/h (1 Bft) 95,74 %
29.05.2017 15:54 28,6 C 25,0 C 36 % 1013,0 hPa 0,0 l/m 2,1 km/h (1 Bft) N-NO 25 2 min 0,000 mm 3,7 UV-I 685 W/m 12,0 C 28,6 C 3,2 km/h (1 Bft) 95,12 %
29.05.2017 15:56 28,6 C 25,0 C 28 % 1013,1 hPa 0,0 l/m 4,0 km/h (1 Bft) N-NO 28 2 min 0,000 mm 3,6 UV-I 669 W/m 8,3 C 28,6 C 6,4 km/h (2 Bft) 92,00 %
29.05.2017 15:58 28,8 C 25,0 C 24 % 1013,0 hPa 0,0 l/m 0,9 km/h (0 Bft) N-NO 28 2 min 0,000 mm 3,5 UV-I 643 W/m 6,2 C 28,8 C 4,8 km/h (1 Bft) 92,00 %
29.05.2017 16:00 28,9 C 25,0 C 29 % 1013,0 hPa 0,0 l/m 0,5 km/h (0 Bft) N-NO 28 2 min 0,000 mm 3,5 UV-I 636 W/m 9,1 C 28,9 C 1,6 km/h (1 Bft) 94,74 %
29.05.2017 16:02 28,9 C 25,0 C 24 % 1013,0 hPa 0,0 l/m 0,6 km/h (0 Bft) N-NO 28 2 min 0,508 mm 3,3 UV-I 573 W/m 6,3 C 28,9 C 3,2 km/h (1 Bft) 92,00 %
29.05.2017 16:04 29,0 C 25,0 C 37 % 1012,9 hPa 0,0 l/m 1,0 km/h (0 Bft) N-NO 28 2 min 0,000 mm 3,6 UV-I 626 W/m 12,8 C 29,0 C 3,2 km/h (1 Bft) 87,80 %
29.05.2017 16:06 29,2 C 25,0 C 36 % 1012,9 hPa 0,0 l/m 3,4 km/h (1 Bft) NO 41 2 min 0,000 mm 3,4 UV-I 650 W/m 12,6 C 29,2 C 6,4 km/h (2 Bft) 91,53 %
29.05.2017 16:08 29,1 C 25,0 C 25 % 1012,9 hPa 0,0 l/m 1,9 km/h (1 Bft) NO 41 2 min 0,000 mm 3,3 UV-I 645 W/m 7,0 C 29,1 C 4,8 km/h (1 Bft) 92,11 %
29.05.2017 16:10 29,1 C 25,0 C 26 % 1012,9 hPa 0,0 l/m 1,0 km/h (0 Bft) NO 41 2 min 0,000 mm 3,2 UV-I 614 W/m 7,6 C 29,1 C 4,8 km/h (1 Bft) 94,00 %
29.05.2017 16:12 29,1 C 25,0 C 31 % 1012,9 hPa 0,0 l/m 1,6 km/h (1 Bft) NO 41 2 min 0,000 mm 3,1 UV-I 609 W/m 10,2 C 29,1 C 4,8 km/h (1 Bft) 94,34 %
29.05.2017 16:14 29,1 C 25,0 C 33 % 1012,8 hPa 0,0 l/m 2,7 km/h (1 Bft) NO 41 2 min 0,000 mm 3,2 UV-I 628 W/m 11,2 C 29,1 C 6,4 km/h (2 Bft) 94,44 %
29.05.2017 16:16 29,1 C 25,0 C 32 % 1012,8 hPa 0,0 l/m 3,1 km/h (1 Bft) NO 40 2 min 0,000 mm 3,1 UV-I 608 W/m 10,7 C 29,1 C 6,4 km/h (2 Bft) 90,91 %
29.05.2017 16:18 29,1 C 25,0 C 26 % 1012,7 hPa 0,0 l/m 2,9 km/h (1 Bft) NO 40 2 min 0,000 mm 3,1 UV-I 599 W/m 7,6 C 29,1 C 4,8 km/h (1 Bft) 94,00 %
29.05.2017 16:20 29,1 C 25,0 C 23 % 1012,7 hPa 0,0 l/m 3,1 km/h (1 Bft) NO 40 2 min 0,000 mm 3,0 UV-I 586 W/m 5,8 C 29,1 C 4,8 km/h (1 Bft) 97,44 %
29.05.2017 16:22 29,1 C 25,0 C 30 % 1012,7 hPa 0,0 l/m 2,7 km/h (1 Bft) NO 40 2 min 0,000 mm 2,9 UV-I 570 W/m 9,7 C 29,1 C 3,2 km/h (1 Bft) 98,00 %
29.05.2017 16:24 29,1 C 25,0 C 32 % 1012,7 hPa 0,0 l/m 4,5 km/h (1 Bft) NO 40 2 min 0,000 mm 2,9 UV-I 582 W/m 10,7 C 29,1 C 8,0 km/h (2 Bft) 96,00 %
29.05.2017 16:26 29,0 C 25,0 C 29 % 1012,7 hPa 0,0 l/m 2,6 km/h (1 Bft) NO 40 2 min 0,000 mm 2,9 UV-I 583 W/m 9,1 C 29,0 C 4,8 km/h (1 Bft) 97,87 %
29.05.2017 16:28 28,9 C 25,0 C 28 % 1012,6 hPa 0,0 l/m 5,3 km/h (1 Bft) NO 56 2 min 0,000 mm 2,8 UV-I 596 W/m 8,5 C 28,9 C 9,7 km/h (2 Bft) 97,56 %
29.05.2017 16:30 29,0 C 25,0 C 29 % 1012,6 hPa 0,0 l/m 6,0 km/h (2 Bft) O-NO 59 2 min 0,000 mm 2,7 UV-I 555 W/m 9,1 C 29,0 C 8,0 km/h (2 Bft) 98,00 %
29.05.2017 16:32 29,2 C 25,0 C 22 % 1012,6 hPa 0,0 l/m 6,4 km/h (2 Bft) O-NO 69 2 min 0,000 mm 2,8 UV-I 585 W/m 5,3 C 29,2 C 8,0 km/h (2 Bft) 96,00 %
29.05.2017 16:34 29,3 C 25,0 C 20 % 1012,6 hPa 0,0 l/m 3,9 km/h (1 Bft) O-NO 69 2 min 0,000 mm 2,8 UV-I 610 W/m 4,0 C 29,3 C 6,4 km/h (2 Bft) 97,56 %
29.05.2017 16:36 29,4 C 25,0 C 27 % 1012,6 hPa 0,0 l/m 4,3 km/h (1 Bft) O-NO 67 2 min 0,000 mm 2,6 UV-I 548 W/m 8,4 C 29,4 C 6,4 km/h (2 Bft) 97,87 %
29.05.2017 16:38 29,4 C 25,0 C 23 % 1012,6 hPa 0,0 l/m 4,0 km/h (1 Bft) O-NO 67 2 min 0,000 mm 2,6 UV-I 524 W/m 6,1 C 29,4 C 6,4 km/h (2 Bft) 100,00 %
29.05.2017 16:40 29,4 C 25,0 C 34 % 1012,6 hPa 0,0 l/m 4,8 km/h (1 Bft) O-NO 61 2 min 0,000 mm 2,6 UV-I 563 W/m 11,9 C 29,4 C 6,4 km/h (2 Bft) 97,73 %
29.05.2017 16:42 29,4 C 25,0 C 22 % 1012,6 hPa 0,0 l/m 1,9 km/h (1 Bft) O-NO 61 2 min 0,000 mm 2,4 UV-I 535 W/m 5,4 C 29,4 C 4,8 km/h (1 Bft) 100,00 %
29.05.2017 16:44 29,3 C 25,0 C 29 % 1012,6 hPa 0,0 l/m 1,6 km/h (1 Bft) O-NO 61 2 min 0,000 mm 2,4 UV-I 506 W/m 9,4 C 29,3 C 3,2 km/h (1 Bft) 98,00 %
29.05.2017 16:46 29,3 C 25,0 C 25 % 1012,6 hPa 0,0 l/m 1,0 km/h (0 Bft) O-NO 61 2 min 0,000 mm 2,4 UV-I 503 W/m 7,2 C 29,3 C 3,2 km/h (1 Bft) 100,00 %
29.05.2017 16:48 29,3 C 25,0 C 35 % 1012,5 hPa 0,0 l/m 2,3 km/h (1 Bft) O-NO 61 2 min 0,000 mm 2,5 UV-I 563 W/m 12,2 C 29,3 C 4,8 km/h (1 Bft) 100,00 %
29.05.2017 16:50 29,3 C 25,0 C 29 % 1012,5 hPa 0,0 l/m 4,1 km/h (1 Bft) O-NO 60 2 min 0,000 mm 2,5 UV-I 581 W/m 9,4 C 29,3 C 8,0 km/h (2 Bft) 100,00 %
29.05.2017 16:52 29,3 C 25,0 C 34 % 1012,5 hPa 0,0 l/m 4,9 km/h (1 Bft) N-NO 33 2 min 0,000 mm 2,5 UV-I 596 W/m 11,8 C 29,3 C 8,0 km/h (2 Bft) 100,00 %
29.05.2017 16:54 29,2 C 25,0 C 31 % 1012,5 hPa 0,0 l/m 5,2 km/h (1 Bft) NO 39 2 min 0,000 mm 2,4 UV-I 579 W/m 10,3 C 29,2 C 9,7 km/h (2 Bft) 100,00 %
29.05.2017 16:56 29,2 C 25,0 C 36 % 1012,4 hPa 0,0 l/m 2,8 km/h (1 Bft) NO 39 2 min 0,000 mm 2,3 UV-I 552 W/m 12,6 C 29,2 C 4,8 km/h (1 Bft) 100,00 %
29.05.2017 16:58 29,1 C 25,0 C 34 % 1012,4 hPa 0,0 l/m 5,8 km/h (2 Bft) NO 49 2 min 0,000 mm 2,3 UV-I 565 W/m 11,6 C 29,1 C 14,5 km/h (3 Bft) 100,00 %
29.05.2017 17:00 29,1 C 25,0 C 35 % 1012,3 hPa 0,0 l/m 7,1 km/h (2 Bft) O-NO 57 2 min 0,431 mm 2,2 UV-I 560 W/m 12,1 C 29,0 C 17,7 km/h (3 Bft) 94,34 %
29.05.2017 17:02 29,1 C 25,0 C 30 % 1012,4 hPa 0,0 l/m 10,3 km/h (2 Bft) O-NO 58 2 min 0,000 mm 2,1 UV-I 513 W/m 9,7 C 28,7 C 17,7 km/h (3 Bft) 97,56 %
29.05.2017 17:04 29,1 C 25,0 C 31 % 1012,3 hPa 0,0 l/m 8,9 km/h (2 Bft) O 83 2 min 0,000 mm 2,1 UV-I 498 W/m 10,2 C 28,8 C 14,5 km/h (3 Bft) 97,73 %
29.05.2017 17:06 29,1 C 25,0 C 28 % 1012,4 hPa 0,0 l/m 2,0 km/h (1 Bft) O-NO 71 2 min 0,000 mm 2,1 UV-I 516 W/m 8,7 C 29,1 C 8,0 km/h (2 Bft) 93,18 %
29.05.2017 17:08 29,2 C 25,0 C 31 % 1012,3 hPa 0,0 l/m 2,8 km/h (1 Bft) O-NO 71 2 min 0,000 mm 2,1 UV-I 519 W/m 10,3 C 29,2 C 8,0 km/h (2 Bft) 100,00 %
29.05.2017 17:10 29,3 C 25,0 C 30 % 1012,3 hPa 0,0 l/m 4,5 km/h (1 Bft) O-NO 65 2 min 0,000 mm 2,0 UV-I 513 W/m 9,9 C 29,3 C 6,4 km/h (2 Bft) 100,00 %
29.05.2017 17:12 29,3 C 25,0 C 39 % 1012,3 hPa 0,0 l/m 6,6 km/h (2 Bft) NO 42 2 min 0,000 mm 2,0 UV-I 512 W/m 13,9 C 29,3 C 14,5 km/h (3 Bft) 100,00 %
29.05.2017 17:14 29,0 C 25,0 C 37 % 1012,3 hPa 0,0 l/m 8,0 km/h (2 Bft) NO 43 2 min 0,000 mm 2,0 UV-I 495 W/m 12,8 C 28,8 C 11,3 km/h (2 Bft) 100,00 %
29.05.2017 17:16 28,8 C 25,0 C 37 % 1012,3 hPa 0,0 l/m 9,9 km/h (2 Bft) O-NO 63 2 min 0,000 mm 1,8 UV-I 434 W/m 12,6 C 28,4 C 14,5 km/h (3 Bft) 100,00 %
29.05.2017 17:18 28,9 C 25,0 C 32 % 1012,3 hPa 0,0 l/m 11,1 km/h (2 Bft) O-NO 74 2 min 0,000 mm 1,7 UV-I 384 W/m 10,5 C 28,4 C 16,1 km/h (3 Bft) 100,00 %
29.05.2017 17:20 28,9 C 25,0 C 34 % 1012,3 hPa 0,0 l/m 8,6 km/h (2 Bft) O-NO 75 2 min 0,000 mm 1,7 UV-I 410 W/m 11,4 C 28,6 C 14,5 km/h (3 Bft) 96,23 %
29.05.2017 17:22 28,9 C 25,0 C 35 % 1012,2 hPa 0,0 l/m 7,2 km/h (2 Bft) O-NO 70 2 min 0,000 mm 1,8 UV-I 473 W/m 11,9 C 28,8 C 11,3 km/h (2 Bft) 100,00 %
29.05.2017 17:24 29,1 C 25,0 C 34 % 1012,3 hPa 0,0 l/m 5,9 km/h (2 Bft) O-NO 71 2 min 0,000 mm 1,8 UV-I 487 W/m 11,6 C 29,1 C 9,7 km/h (2 Bft) 95,74 %
29.05.2017 17:26 29,1 C 25,0 C 35 % 1012,2 hPa 0,0 l/m 5,7 km/h (1 Bft) O-NO 63 2 min 0,000 mm 1,7 UV-I 481 W/m 12,1 C 29,1 C 9,7 km/h (2 Bft) 100,00 %
29.05.2017 17:28 29,2 C 25,0 C 34 % 1012,2 hPa 0,0 l/m 9,1 km/h (2 Bft) O-NO 61 2 min 0,000 mm 1,7 UV-I 473 W/m 11,7 C 28,9 C 16,1 km/h (3 Bft) 97,56 %
29.05.2017 17:30 29,3 C 25,0 C 33 % 1012,1 hPa 0,0 l/m 8,2 km/h (2 Bft) O-NO 78 2 min 0,000 mm 1,6 UV-I 464 W/m 11,3 C 29,1 C 12,9 km/h (3 Bft) 98,00 %
29.05.2017 17:32 29,2 C 25,0 C 35 % 1012,1 hPa 0,0 l/m 7,6 km/h (2 Bft) O-NO 74 2 min 0,000 mm 1,6 UV-I 455 W/m 12,1 C 29,1 C 12,9 km/h (3 Bft) 94,00 %
29.05.2017 17:34 29,2 C 25,0 C 34 % 1012,1 hPa 0,0 l/m 7,4 km/h (2 Bft) O-NO 71 2 min 0,000 mm 1,6 UV-I 451 W/m 11,7 C 29,1 C 9,7 km/h (2 Bft) 97,62 %
29.05.2017 17:36 29,1 C 25,0 C 33 % 1012,1 hPa 0,0 l/m 10,0 km/h (2 Bft) O-NO 74 2 min 0,000 mm 1,5 UV-I 440 W/m 11,2 C 28,7 C 16,1 km/h (3 Bft) 93,62 %
29.05.2017 17:38 29,1 C 25,0 C 34 % 1012,1 hPa 0,0 l/m 8,7 km/h (2 Bft) O 89 2 min 0,000 mm 1,5 UV-I 434 W/m 11,6 C 28,8 C 14,5 km/h (3 Bft) 96,00 %
29.05.2017 17:40 29,1 C 25,0 C 35 % 1012,1 hPa 0,0 l/m 8,2 km/h (2 Bft) O-NO 74 2 min 0,000 mm 1,4 UV-I 429 W/m 12,1 C 28,9 C 12,9 km/h (3 Bft) 94,00 %
29.05.2017 17:42 29,1 C 25,0 C 35 % 1012,0 hPa 0,0 l/m 7,3 km/h (2 Bft) NO 53 2 min 0,000 mm 1,4 UV-I 424 W/m 12,1 C 29,0 C 11,3 km/h (2 Bft) 96,00 %
29.05.2017 17:44 29,0 C 25,0 C 35 % 1012,0 hPa 0,0 l/m 9,1 km/h (2 Bft) O-NO 64 2 min 0,000 mm 1,4 UV-I 418 W/m 12,0 C 28,7 C 12,9 km/h (3 Bft) 97,87 %
29.05.2017 17:46 29,0 C 25,0 C 35 % 1012,0 hPa 0,0 l/m 10,0 km/h (2 Bft) O-NO 64 2 min 0,000 mm 1,4 UV-I 411 W/m 12,0 C 28,6 C 16,1 km/h (3 Bft) 92,68 %
29.05.2017 17:48 29,0 C 25,0 C 38 % 1012,0 hPa 0,0 l/m 7,4 km/h (2 Bft) O-NO 64 2 min 0,000 mm 1,3 UV-I 403 W/m 13,2 C 28,9 C 11,3 km/h (2 Bft) 98,08 %
29.05.2017 17:50 29,0 C 25,0 C 36 % 1012,0 hPa 0,0 l/m 9,7 km/h (2 Bft) O-NO 62 2 min 0,000 mm 1,3 UV-I 397 W/m 12,4 C 28,6 C 14,5 km/h (3 Bft) 95,12 %
29.05.2017 17:52 28,9 C 25,0 C 34 % 1012,0 hPa 0,0 l/m 6,1 km/h (2 Bft) O-NO 74 2 min 0,000 mm 1,3 UV-I 392 W/m 11,4 C 28,9 C 11,3 km/h (2 Bft) 94,00 %
29.05.2017 17:54 29,0 C 25,0 C 36 % 1012,0 hPa 0,0 l/m 6,3 km/h (2 Bft) O-NO 61 2 min 0,000 mm 1,2 UV-I 386 W/m 12,4 C 29,0 C 9,7 km/h (2 Bft) 88,00 %
29.05.2017 17:56 29,0 C 25,0 C 35 % 1012,0 hPa 0,0 l/m 5,0 km/h (1 Bft) O-NO 63 2 min 0,000 mm 1,2 UV-I 384 W/m 12,0 C 29,0 C 8,0 km/h (2 Bft) 97,87 %
29.05.2017 17:58 29,0 C 25,0 C 38 % 1012,0 hPa 0,0 l/m 5,2 km/h (1 Bft) O-NO 61 2 min 0,000 mm 1,2 UV-I 380 W/m 13,2 C 29,0 C 9,7 km/h (2 Bft) 94,74 %
29.05.2017 18:00 28,9 C 25,0 C 35 % 1011,9 hPa 0,0 l/m 6,8 km/h (2 Bft) O-NO 66 2 min 0,000 mm 1,1 UV-I 376 W/m 11,9 C 28,8 C 11,3 km/h (2 Bft) 96,00 %
29.05.2017 18:02 28,8 C 25,0 C 35 % 1012,0 hPa 0,0 l/m 5,9 km/h (2 Bft) O-NO 60 2 min 0,381 mm 1,1 UV-I 367 W/m 11,8 C 28,8 C 8,0 km/h (2 Bft) 96,00 %
29.05.2017 18:04 28,9 C 25,0 C 37 % 1011,9 hPa 0,0 l/m 4,4 km/h (1 Bft) O-NO 59 2 min 0,000 mm 1,1 UV-I 361 W/m 12,7 C 28,9 C 6,4 km/h (2 Bft) 100,00 %
29.05.2017 18:06 28,9 C 25,0 C 39 % 1011,9 hPa 0,0 l/m 3,2 km/h (1 Bft) O-NO 61 2 min 0,000 mm 1,0 UV-I 359 W/m 13,5 C 28,9 C 4,8 km/h (1 Bft) 100,00 %
29.05.2017 18:08 28,9 C 25,0 C 38 % 1011,8 hPa 0,0 l/m 5,7 km/h (1 Bft) NO 48 2 min 0,000 mm 1,0 UV-I 353 W/m 13,1 C 28,9 C 8,0 km/h (2 Bft) 92,86 %
29.05.2017 18:10 28,9 C 25,0 C 38 % 1011,8 hPa 0,0 l/m 6,7 km/h (2 Bft) O-NO 65 2 min 0,000 mm 1,0 UV-I 346 W/m 13,1 C 28,9 C 12,9 km/h (3 Bft) 100,00 %
29.05.2017 18:12 28,9 C 25,0 C 35 % 1011,8 hPa 0,0 l/m 8,2 km/h (2 Bft) O-NO 58 2 min 0,000 mm 0,9 UV-I 327 W/m 11,9 C 28,7 C 12,9 km/h (3 Bft) 100,00 %
29.05.2017 18:14 28,8 C 25,0 C 37 % 1011,8 hPa 0,0 l/m 4,0 km/h (1 Bft) O 82 2 min 0,000 mm 0,9 UV-I 312 W/m 12,6 C 28,8 C 6,4 km/h (2 Bft) 98,08 %
29.05.2017 18:16 28,8 C 25,0 C 38 % 1011,8 hPa 0,0 l/m 6,7 km/h (2 Bft) O-NO 60 2 min 0,000 mm 0,9 UV-I 284 W/m 13,0 C 28,8 C 8,0 km/h (2 Bft) 98,00 %
29.05.2017 18:18 28,7 C 25,0 C 39 % 1011,8 hPa 0,0 l/m 6,6 km/h (2 Bft) NO 54 2 min 0,000 mm 0,8 UV-I 263 W/m 13,4 C 28,7 C 9,7 km/h (2 Bft) 100,00 %
29.05.2017 18:20 28,5 C 25,0 C 37 % 1011,8 hPa 0,0 l/m 6,1 km/h (2 Bft) NO 54 2 min 0,000 mm 0,8 UV-I 236 W/m 12,4 C 28,5 C 9,7 km/h (2 Bft) 96,15 %
29.05.2017 18:22 28,3 C 25,0 C 40 % 1011,7 hPa 0,0 l/m 5,2 km/h (1 Bft) NO 51 2 min 0,000 mm 0,8 UV-I 236 W/m 13,4 C 28,3 C 9,7 km/h (2 Bft) 98,53 %
29.05.2017 18:24 28,3 C 25,0 C 39 % 1011,8 hPa 0,0 l/m 6,5 km/h (2 Bft) NO 55 2 min 0,000 mm 0,8 UV-I 270 W/m 13,0 C 28,3 C 9,7 km/h (2 Bft) 97,87 %
29.05.2017 18:26 28,3 C 25,0 C 40 % 1011,8 hPa 0,0 l/m 4,9 km/h (1 Bft) O-NO 59 2 min 0,000 mm 0,7 UV-I 285 W/m 13,4 C 28,3 C 8,0 km/h (2 Bft) 100,00 %
29.05.2017 18:28 28,3 C 25,0 C 39 % 1011,7 hPa 0,0 l/m 5,4 km/h (1 Bft) NO 53 2 min 0,000 mm 0,7 UV-I 294 W/m 13,0 C 28,3 C 8,0 km/h (2 Bft) 100,00 %
29.05.2017 18:30 28,3 C 25,0 C 41 % 1011,7 hPa 0,0 l/m 5,5 km/h (1 Bft) NO 53 2 min 0,000 mm 0,7 UV-I 290 W/m 13,8 C 28,3 C 8,0 km/h (2 Bft) 98,00 %
29.05.2017 18:32 28,4 C 25,0 C 40 % 1011,7 hPa 0,0 l/m 7,3 km/h (2 Bft) O-NO 67 2 min 0,000 mm 0,7 UV-I 284 W/m 13,5 C 28,3 C 12,9 km/h (3 Bft) 97,37 %
29.05.2017 18:34 28,4 C 25,0 C 37 % 1011,7 hPa 0,0 l/m 6,5 km/h (2 Bft) O-NO 76 2 min 0,000 mm 0,7 UV-I 280 W/m 12,3 C 28,4 C 9,7 km/h (2 Bft) 98,00 %
29.05.2017 18:36 28,6 C 25,0 C 37 % 1011,7 hPa 0,0 l/m 6,3 km/h (2 Bft) NO 53 2 min 0,000 mm 0,6 UV-I 275 W/m 12,5 C 28,6 C 9,7 km/h (2 Bft) 96,23 %
29.05.2017 18:38 28,6 C 25,0 C 37 % 1011,7 hPa 0,0 l/m 5,7 km/h (1 Bft) O-NO 63 2 min 0,000 mm 0,6 UV-I 268 W/m 12,5 C 28,6 C 8,0 km/h (2 Bft) 94,74 %
29.05.2017 18:40 28,6 C 25,0 C 39 % 1011,7 hPa 0,0 l/m 5,0 km/h (1 Bft) O-NO 67 2 min 0,000 mm 0,6 UV-I 268 W/m 13,3 C 28,6 C 6,4 km/h (2 Bft) 97,56 %
29.05.2017 18:42 28,5 C 25,0 C 39 % 1011,7 hPa 0,0 l/m 4,8 km/h (1 Bft) O-NO 62 2 min 0,000 mm 0,5 UV-I 241 W/m 13,2 C 28,5 C 8,0 km/h (2 Bft) 96,43 %
29.05.2017 18:44 28,3 C 25,0 C 40 % 1011,7 hPa 0,0 l/m 6,4 km/h (2 Bft) NO 45 0 min 0,000 mm 0,5 UV-I 163 W/m 13,4 C 28,3 C 9,7 km/h (2 Bft) 95,45 %
29.05.2017 18:46 28,2 C 25,0 C 38 % 1011,7 hPa 0,0 l/m 6,8 km/h (2 Bft) O-NO 66 0 min 0,000 mm 0,2 UV-I 106 W/m 12,5 C 28,1 C 11,3 km/h (2 Bft) 90,57 %
29.05.2017 18:48 28,1 C 25,0 C 40 % 1011,7 hPa 0,0 l/m 5,3 km/h (1 Bft) NO 46 0 min 0,000 mm 0,0 UV-I 86 W/m 13,2 C 28,1 C 8,0 km/h (2 Bft) 92,59 %
29.05.2017 18:50 27,8 C 25,0 C 42 % 1011,6 hPa 0,0 l/m 4,3 km/h (1 Bft) O-NO 57 0 min 0,000 mm 0,0 UV-I 83 W/m 13,7 C 27,8 C 8,0 km/h (2 Bft) 95,31 %
29.05.2017 18:52 27,6 C 25,6 C 42 % 1011,7 hPa 0,0 l/m 4,9 km/h (1 Bft) O-NO 60 0 min 0,000 mm 0,0 UV-I 84 W/m 13,5 C 27,6 C 8,0 km/h (2 Bft) 95,74 %
29.05.2017 18:54 27,4 C 25,6 C 43 % 1011,6 hPa 0,0 l/m 6,1 km/h (2 Bft) O-NO 63 0 min 0,000 mm 0,0 UV-I 85 W/m 13,7 C 27,4 C 9,7 km/h (2 Bft) 95,24 %
29.05.2017 18:56 27,3 C 25,6 C 42 % 1011,6 hPa 0,0 l/m 5,1 km/h (1 Bft) O-NO 71 0 min 0,000 mm 0,0 UV-I 88 W/m 13,2 C 27,3 C 8,0 km/h (2 Bft) 98,00 %
29.05.2017 18:58 27,1 C 25,6 C 41 % 1011,7 hPa 0,0 l/m 4,5 km/h (1 Bft) O-NO 73 0 min 0,000 mm 0,0 UV-I 87 W/m 12,7 C 27,1 C 6,4 km/h (2 Bft) 98,00 %
29.05.2017 19:00 27,0 C 25,6 C 41 % 1011,6 hPa 0,0 l/m 4,0 km/h (1 Bft) O-NO 74 0 min 0,000 mm 0,0 UV-I 88 W/m 12,6 C 27,0 C 8,0 km/h (2 Bft) 94,00 %
29.05.2017 19:02 26,9 C 25,6 C 42 % 1011,6 hPa 0,0 l/m 3,5 km/h (1 Bft) O-NO 71 0 min 0,229 mm 0,0 UV-I 88 W/m 12,9 C 26,9 C 6,4 km/h (2 Bft) 94,74 %
29.05.2017 19:04 26,9 C 25,6 C 43 % 1011,6 hPa 0,0 l/m 2,7 km/h (1 Bft) O-NO 71 0 min 0,000 mm 0,0 UV-I 93 W/m 13,2 C 26,9 C 4,8 km/h (1 Bft) 92,86 %
29.05.2017 19:06 26,9 C 25,6 C 43 % 1011,6 hPa 0,0 l/m 3,8 km/h (1 Bft) O-NO 71 0 min 0,000 mm 0,0 UV-I 105 W/m 13,2 C 26,9 C 6,4 km/h (2 Bft) 97,37 %
29.05.2017 19:08 26,8 C 25,6 C 43 % 1011,6 hPa 0,0 l/m 3,1 km/h (1 Bft) O-NO 71 0 min 0,000 mm 0,0 UV-I 121 W/m 13,2 C 26,8 C 4,8 km/h (1 Bft) 94,34 %
29.05.2017 19:10 26,9 C 25,6 C 43 % 1011,6 hPa 0,0 l/m 4,3 km/h (1 Bft) O-NO 71 2 min 0,000 mm 0,0 UV-I 145 W/m 13,2 C 26,9 C 6,4 km/h (2 Bft) 97,87 %
29.05.2017 19:12 27,0 C 25,6 C 44 % 1011,5 hPa 0,0 l/m 4,2 km/h (1 Bft) O-NO 69 2 min 0,000 mm 0,0 UV-I 163 W/m 13,7 C 27,0 C 6,4 km/h (2 Bft) 95,45 %
29.05.2017 19:14 27,1 C 25,6 C 43 % 1011,5 hPa 0,0 l/m 3,0 km/h (1 Bft) O-NO 68 2 min 0,000 mm 0,0 UV-I 141 W/m 13,4 C 27,1 C 6,4 km/h (2 Bft) 94,00 %
29.05.2017 19:16 27,1 C 25,6 C 42 % 1011,5 hPa 0,0 l/m 1,9 km/h (1 Bft) O-NO 68 0 min 0,000 mm 0,0 UV-I 108 W/m 13,1 C 27,1 C 3,2 km/h (1 Bft) 94,74 %
29.05.2017 19:18 27,1 C 25,6 C 41 % 1011,5 hPa 0,0 l/m 4,3 km/h (1 Bft) O-NO 69 0 min 0,000 mm 0,0 UV-I 100 W/m 12,7 C 27,1 C 8,0 km/h (2 Bft) 94,64 %
29.05.2017 19:20 27,0 C 25,6 C 41 % 1011,4 hPa 0,0 l/m 3,9 km/h (1 Bft) O-NO 69 0 min 0,000 mm 0,0 UV-I 99 W/m 12,6 C 27,0 C 6,4 km/h (2 Bft) 95,74 %
29.05.2017 19:22 26,9 C 25,0 C 43 % 1011,4 hPa 0,0 l/m 3,0 km/h (1 Bft) O-NO 69 2 min 0,000 mm 0,0 UV-I 127 W/m 13,2 C 26,9 C 4,8 km/h (1 Bft) 92,68 %
29.05.2017 19:24 26,9 C 25,6 C 42 % 1011,4 hPa 0,0 l/m 3,0 km/h (1 Bft) O-NO 69 2 min 0,000 mm 0,0 UV-I 126 W/m 12,9 C 26,9 C 4,8 km/h (1 Bft) 93,62 %
29.05.2017 19:26 26,9 C 25,6 C 42 % 1011,4 hPa 0,0 l/m 3,1 km/h (1 Bft) O-NO 69 2 min 0,000 mm 0,0 UV-I 117 W/m 12,9 C 26,9 C 4,8 km/h (1 Bft) 92,45 %
29.05.2017 19:28 26,9 C 25,0 C 43 % 1011,4 hPa 0,0 l/m 2,5 km/h (1 Bft) O-NO 69 0 min 0,000 mm 0,0 UV-I 98 W/m 13,2 C 26,9 C 4,8 km/h (1 Bft) 83,33 %
29.05.2017 19:30 26,9 C 25,0 C 42 % 1011,4 hPa 0,0 l/m 3,2 km/h (1 Bft) O-NO 69 0 min 0,000 mm 0,0 UV-I 90 W/m 12,9 C 26,9 C 4,8 km/h (1 Bft) 92,73 %
29.05.2017 19:32 26,8 C 25,6 C 43 % 1011,4 hPa 0,0 l/m 2,2 km/h (1 Bft) O-NO 69 0 min 0,000 mm 0,0 UV-I 89 W/m 13,2 C 26,8 C 3,2 km/h (1 Bft) 92,86 %
29.05.2017 19:34 26,8 C 25,0 C 44 % 1011,4 hPa 0,0 l/m 2,6 km/h (1 Bft) O-NO 69 0 min 0,000 mm 0,0 UV-I 87 W/m 13,5 C 26,8 C 4,8 km/h (1 Bft) 94,34 %
29.05.2017 19:36 26,7 C 25,0 C 44 % 1011,4 hPa 0,0 l/m 3,8 km/h (1 Bft) O-NO 69 0 min 0,000 mm 0,0 UV-I 86 W/m 13,4 C 26,7 C 6,4 km/h (2 Bft) 96,00 %
29.05.2017 19:38 26,6 C 25,0 C 44 % 1011,4 hPa 0,0 l/m 2,6 km/h (1 Bft) O-NO 67 0 min 0,000 mm 0,0 UV-I 89 W/m 13,3 C 26,6 C 4,8 km/h (1 Bft) 91,49 %
29.05.2017 19:40 26,6 C 25,0 C 45 % 1011,4 hPa 0,0 l/m 2,4 km/h (1 Bft) O-NO 67 0 min 0,000 mm 0,0 UV-I 91 W/m 13,7 C 26,6 C 4,8 km/h (1 Bft) 97,37 %
29.05.2017 19:42 26,6 C 25,0 C 44 % 1011,4 hPa 0,0 l/m 0,4 km/h (0 Bft) O-NO 67 0 min 0,000 mm 0,0 UV-I 78 W/m 13,3 C 26,6 C 1,6 km/h (1 Bft) 94,34 %
29.05.2017 19:44 26,7 C 25,0 C 43 % 1011,4 hPa 0,0 l/m 0,1 km/h (0 Bft) O-NO 67 0 min 0,000 mm 0,0 UV-I 77 W/m 13,1 C 26,7 C 1,6 km/h (1 Bft) 95,12 %
29.05.2017 19:46 26,7 C 25,0 C 42 % 1011,4 hPa 0,0 l/m 0,0 km/h (0 Bft) O-NO 67 2 min 0,000 mm 0,0 UV-I 91 W/m 12,7 C 26,7 C 0,0 km/h (0 Bft) 98,11 %
29.05.2017 19:48 26,6 C 25,0 C 47 % 1011,4 hPa 0,0 l/m 0,0 km/h (0 Bft) O-NO 67 2 min 0,000 mm 0,0 UV-I 94 W/m 14,3 C 26,6 C 0,0 km/h (0 Bft) 94,74 %
29.05.2017 19:50 26,5 C 25,0 C 47 % 1011,4 hPa 0,0 l/m 0,0 km/h (0 Bft) O-NO 67 2 min 0,000 mm 0,0 UV-I 92 W/m 14,3 C 26,5 C 0,0 km/h (0 Bft) 96,23 %
29.05.2017 19:52 26,4 C 25,0 C 46 % 1011,3 hPa 0,0 l/m 0,0 km/h (0 Bft) O-NO 67 2 min 0,000 mm 0,0 UV-I 84 W/m 13,8 C 26,4 C 0,0 km/h (0 Bft) 97,87 %
29.05.2017 19:54 26,3 C 25,0 C 47 % 1011,3 hPa 0,0 l/m 0,0 km/h (0 Bft) O-NO 67 0 min 0,000 mm 0,0 UV-I 71 W/m 14,1 C 26,3 C 0,0 km/h (0 Bft) 100,00 %
29.05.2017 19:56 26,2 C 25,0 C 48 % 1011,4 hPa 0,0 l/m 0,0 km/h (0 Bft) O-NO 67 0 min 0,000 mm 0,0 UV-I 69 W/m 14,3 C 26,2 C 0,0 km/h (0 Bft) 97,87 %
29.05.2017 19:58 26,1 C 25,0 C 51 % 1011,3 hPa 0,0 l/m 0,0 km/h (0 Bft) O-NO 67 2 min 0,000 mm 0,0 UV-I 75 W/m 15,2 C 26,1 C 0,0 km/h (0 Bft) 100,00 %
29.05.2017 20:00 26,0 C 25,0 C 51 % 1011,4 hPa 0,0 l/m 0,1 km/h (0 Bft) O-NO 67 2 min 0,000 mm 0,0 UV-I 77 W/m 15,1 C 26,0 C 1,6 km/h (1 Bft) 100,00 %
29.05.2017 20:02 25,9 C 25,0 C 51 % 1011,4 hPa 0,0 l/m 1,3 km/h (1 Bft) O-NO 67 2 min 0,102 mm 0,0 UV-I 67 W/m 15,0 C 25,9 C 1,6 km/h (1 Bft) 97,37 %
29.05.2017 20:04 25,8 C 25,0 C 49 % 1011,3 hPa 0,0 l/m 1,6 km/h (1 Bft) O-NO 67 2 min 0,000 mm 0,0 UV-I 59 W/m 14,3 C 25,8 C 3,2 km/h (1 Bft) 98,11 %
29.05.2017 20:06 25,8 C 25,0 C 48 % 1011,4 hPa 0,0 l/m 1,5 km/h (1 Bft) O-NO 67 0 min 0,000 mm 0,0 UV-I 53 W/m 13,9 C 25,8 C 1,6 km/h (1 Bft) 97,87 %
29.05.2017 20:08 25,9 C 25,0 C 47 % 1011,3 hPa 0,0 l/m 1,6 km/h (1 Bft) O-NO 67 0 min 0,000 mm 0,0 UV-I 49 W/m 13,7 C 25,9 C 3,2 km/h (1 Bft) 98,00 %
29.05.2017 20:10 26,0 C 25,0 C 47 % 1011,3 hPa 0,0 l/m 0,7 km/h (0 Bft) O-NO 67 0 min 0,000 mm 0,0 UV-I 45 W/m 13,8 C 26,0 C 1,6 km/h (1 Bft) 97,87 %
29.05.2017 20:12 26,0 C 25,0 C 46 % 1011,3 hPa 0,0 l/m 1,0 km/h (0 Bft) O-NO 67 0 min 0,000 mm 0,0 UV-I 44 W/m 13,5 C 26,0 C 3,2 km/h (1 Bft) 100,00 %
29.05.2017 20:14 26,0 C 25,0 C 46 % 1011,3 hPa 0,0 l/m 0,8 km/h (0 Bft) O-NO 67 0 min 0,000 mm 0,0 UV-I 40 W/m 13,5 C 26,0 C 1,6 km/h (1 Bft) 98,00 %
29.05.2017 20:16 26,0 C 25,0 C 47 % 1011,3 hPa 0,0 l/m 1,0 km/h (0 Bft) O-NO 67 0 min 0,000 mm 0,0 UV-I 36 W/m 13,8 C 26,0 C 1,6 km/h (1 Bft) 97,73 %
29.05.2017 20:18 25,8 C 25,0 C 49 % 1011,3 hPa 0,0 l/m 0,4 km/h (0 Bft) O-NO 67 0 min 0,000 mm 0,0 UV-I 30 W/m 14,3 C 25,8 C 1,6 km/h (1 Bft) 100,00 %
29.05.2017 20:20 25,5 C 25,0 C 51 % 1011,3 hPa 0,0 l/m 0,0 km/h (0 Bft) O-NO 67 0 min 0,000 mm 0,0 UV-I 27 W/m 14,6 C 25,5 C 0,0 km/h (0 Bft) 91,49 %
29.05.2017 20:22 25,3 C 25,0 C 51 % 1011,3 hPa 0,0 l/m 0,0 km/h (0 Bft) O-NO 67 0 min 0,000 mm 0,0 UV-I 24 W/m 14,4 C 25,3 C 0,0 km/h (0 Bft) 96,00 %
29.05.2017 20:24 25,2 C 25,0 C 51 % 1011,3 hPa 0,0 l/m 0,0 km/h (0 Bft) O-NO 67 0 min 0,000 mm 0,0 UV-I 20 W/m 14,3 C 25,2 C 0,0 km/h (0 Bft) 100,00 %
29.05.2017 20:26 25,2 C 25,0 C 57 % 1011,3 hPa 0,0 l/m 0,0 km/h (0 Bft) O-NO 67 0 min 0,000 mm 0,0 UV-I 18 W/m 16,1 C 25,2 C 0,0 km/h (0 Bft) 100,00 %
29.05.2017 20:28 25,0 C 25,0 C 51 % 1011,3 hPa 0,0 l/m 0,0 km/h (0 Bft) O-NO 67 0 min 0,000 mm 0,0 UV-I 16 W/m 14,1 C 25,0 C 0,0 km/h (0 Bft) 97,37 %
29.05.2017 20:30 24,9 C 25,0 C 52 % 1011,3 hPa 0,0 l/m 0,0 km/h (0 Bft) O-NO 67 0 min 0,000 mm 0,0 UV-I 14 W/m 14,4 C 24,9 C 0,0 km/h (0 Bft) 98,21 %
29.05.2017 20:32 24,9 C 25,0 C 51 % 1011,3 hPa 0,0 l/m 0,0 km/h (0 Bft) O-NO 67 0 min 0,000 mm 0,0 UV-I 12 W/m 14,1 C 24,9 C 0,0 km/h (0 Bft) 100,00 %
29.05.2017 20:34 24,8 C 25,0 C 50 % 1011,3 hPa 0,0 l/m 0,0 km/h (0 Bft) O-NO 67 0 min 0,000 mm 0,0 UV-I 12 W/m 13,7 C 24,8 C 0,0 km/h (0 Bft) 100,00 %
29.05.2017 20:36 24,8 C 25,0 C 50 % 1011,4 hPa 0,0 l/m 0,1 km/h (0 Bft) O-NO 67 0 min 0,000 mm 0,0 UV-I 12 W/m 13,7 C 24,8 C 1,6 km/h (1 Bft) 97,87 %
29.05.2017 20:38 24,8 C 25,0 C 51 % 1011,3 hPa 0,0 l/m 0,0 km/h (0 Bft) O-NO 67 2 min 0,000 mm 0,0 UV-I 12 W/m 14,0 C 24,8 C 0,0 km/h (0 Bft) 98,00 %
29.05.2017 20:40 24,8 C 25,0 C 52 % 1011,4 hPa 0,0 l/m 0,0 km/h (0 Bft) O-NO 67 2 min 0,000 mm 0,0 UV-I 11 W/m 14,3 C 24,8 C 0,0 km/h (0 Bft) 100,00 %
29.05.2017 20:42 24,6 C 25,0 C 53 % 1011,4 hPa 0,0 l/m 1,4 km/h (1 Bft) O-NO 67 0 min 0,000 mm 0,0 UV-I 11 W/m 14,4 C 24,6 C 1,6 km/h (1 Bft) 94,29 %
29.05.2017 20:44 24,4 C 25,0 C 53 % 1011,4 hPa 0,0 l/m 1,4 km/h (1 Bft) O-NO 67 0 min 0,000 mm 0,0 UV-I 9 W/m 14,2 C 24,4 C 3,2 km/h (1 Bft) 100,00 %
29.05.2017 20:46 24,4 C 25,0 C 53 % 1011,4 hPa 0,0 l/m 0,9 km/h (0 Bft) O-NO 67 0 min 0,000 mm 0,0 UV-I 9 W/m 14,2 C 24,4 C 1,6 km/h (1 Bft) 98,00 %
29.05.2017 20:48 24,4 C 25,0 C 53 % 1011,5 hPa 0,0 l/m 0,0 km/h (0 Bft) O-NO 67 0 min 0,000 mm 0,0 UV-I 8 W/m 14,2 C 24,4 C 0,0 km/h (0 Bft) 95,74 %
29.05.2017 20:50 24,5 C 25,0 C 52 % 1011,4 hPa 0,0 l/m 0,0 km/h (0 Bft) O-NO 67 0 min 0,000 mm 0,0 UV-I 7 W/m 14,0 C 24,5 C 0,0 km/h (0 Bft) 100,00 %
29.05.2017 20:52 24,5 C 25,0 C 53 % 1011,4 hPa 0,0 l/m 0,0 km/h (0 Bft) O-NO 67 0 min 0,000 mm 0,0 UV-I 7 W/m 14,3 C 24,5 C 0,0 km/h (0 Bft) 97,92 %
29.05.2017 20:54 24,4 C 25,0 C 54 % 1011,4 hPa 0,0 l/m 0,0 km/h (0 Bft) O-NO 67 0 min 0,000 mm 0,0 UV-I 7 W/m 14,5 C 24,4 C 0,0 km/h (0 Bft) 100,00 %
29.05.2017 20:56 24,1 C 25,0 C 55 % 1011,4 hPa 0,0 l/m 0,2 km/h (0 Bft) O-NO 67 0 min 0,000 mm 0,0 UV-I 5 W/m 14,5 C 24,1 C 1,6 km/h (1 Bft) 98,21 %
29.05.2017 20:58 23,8 C 25,0 C 56 % 1011,4 hPa 0,0 l/m 1,5 km/h (1 Bft) O-NO 67 0 min 0,000 mm 0,0 UV-I 5 W/m 14,5 C 23,8 C 3,2 km/h (1 Bft) 100,00 %
29.05.2017 21:00 23,6 C 25,0 C 58 % 1011,4 hPa 0,0 l/m 1,3 km/h (1 Bft) O-NO 67 0 min 0,000 mm 0,0 UV-I 5 W/m 14,8 C 23,6 C 3,2 km/h (1 Bft) 100,00 %
29.05.2017 21:02 23,4 C 25,0 C 57 % 1011,4 hPa 0,0 l/m 2,5 km/h (1 Bft) O-NO 67 0 min 0,025 mm 0,0 UV-I 5 W/m 14,4 C 23,4 C 3,2 km/h (1 Bft) 100,00 %
29.05.2017 21:04 23,3 C 25,0 C 57 % 1011,5 hPa 0,0 l/m 1,7 km/h (1 Bft) O-NO 67 0 min 0,000 mm 0,0 UV-I 4 W/m 14,3 C 23,3 C 3,2 km/h (1 Bft) 98,00 %
29.05.2017 21:06 23,3 C 25,0 C 58 % 1011,5 hPa 0,0 l/m 0,5 km/h (0 Bft) O-NO 67 0 min 0,000 mm 0,0 UV-I 0 W/m 14,6 C 23,3 C 3,2 km/h (1 Bft) 100,00 %
29.05.2017 21:08 23,3 C 25,0 C 58 % 1011,5 hPa 0,0 l/m 0,0 km/h (0 Bft) O-NO 67 0 min 0,000 mm 0,0 UV-I 0 W/m 14,6 C 23,3 C 0,0 km/h (0 Bft) 98,00 %
29.05.2017 21:10 23,2 C 25,0 C 59 % 1011,5 hPa 0,0 l/m 0,0 km/h (0 Bft) O-NO 67 0 min 0,000 mm 0,0 UV-I 0 W/m 14,7 C 23,2 C 0,0 km/h (0 Bft) 97,37 %
29.05.2017 21:12 23,2 C 25,0 C 62 % 1011,5 hPa 0,0 l/m 0,0 km/h (0 Bft) O-NO 67 0 min 0,000 mm 0,0 UV-I 0 W/m 15,5 C 23,2 C 0,0 km/h (0 Bft) 98,11 %
29.05.2017 21:14 23,1 C 25,0 C 62 % 1011,6 hPa 0,0 l/m 0,0 km/h (0 Bft) O-NO 67 0 min 0,000 mm 0,0 UV-I 0 W/m 15,4 C 23,1 C 0,0 km/h (0 Bft) 98,00 %
29.05.2017 21:16 23,1 C 25,0 C 61 % 1011,6 hPa 0,0 l/m 0,0 km/h (0 Bft) O-NO 67 0 min 0,000 mm 0,0 UV-I 0 W/m 15,2 C 23,1 C 0,0 km/h (0 Bft) 98,00 %
29.05.2017 21:18 23,1 C 25,0 C 61 % 1011,6 hPa 0,0 l/m 0,0 km/h (0 Bft) O-NO 67 0 min 0,000 mm 0,0 UV-I 0 W/m 15,2 C 23,1 C 0,0 km/h (0 Bft) 93,62 %
29.05.2017 21:20 22,9 C 25,0 C 61 % 1011,7 hPa 0,0 l/m 0,0 km/h (0 Bft) O-NO 67 0 min 0,000 mm 0,0 UV-I 0 W/m 15,0 C 22,9 C 0,0 km/h (0 Bft) 97,73 %
29.05.2017 21:22 22,9 C 25,0 C 60 % 1011,7 hPa 0,0 l/m 0,0 km/h (0 Bft) O-NO 67 0 min 0,000 mm 0,0 UV-I 0 W/m 14,7 C 22,9 C 0,0 km/h (0 Bft) 91,49 %
29.05.2017 21:24 23,1 C 25,0 C 55 % 1011,7 hPa 0,0 l/m 0,0 km/h (0 Bft) O-NO 67 0 min 0,000 mm 0,0 UV-I 0 W/m 13,6 C 23,1 C 0,0 km/h (0 Bft) 90,00 %
29.05.2017 21:26 23,2 C 25,0 C 55 % 1011,7 hPa 0,0 l/m 0,1 km/h (0 Bft) O-NO 67 0 min 0,000 mm 0,0 UV-I 0 W/m 13,6 C 23,2 C 1,6 km/h (1 Bft) 91,49 %
29.05.2017 21:28 23,3 C 25,0 C 55 % 1011,8 hPa 0,0 l/m 1,6 km/h (1 Bft) O-NO 67 0 min 0,000 mm 0,0 UV-I 0 W/m 13,7 C 23,3 C 3,2 km/h (1 Bft) 97,56 %
29.05.2017 21:30 23,4 C 25,0 C 54 % 1011,8 hPa 0,0 l/m 1,6 km/h (1 Bft) O-NO 67 0 min 0,000 mm 0,0 UV-I 0 W/m 13,6 C 23,4 C 3,2 km/h (1 Bft) 94,00 %
29.05.2017 21:32 23,5 C 25,0 C 54 % 1011,8 hPa 0,0 l/m 1,9 km/h (1 Bft) O-NO 67 0 min 0,000 mm 0,0 UV-I 0 W/m 13,6 C 23,5 C 3,2 km/h (1 Bft) 98,00 %
29.05.2017 21:34 23,6 C 25,0 C 54 % 1011,8 hPa 0,0 l/m 1,4 km/h (1 Bft) O-NO 67 0 min 0,000 mm 0,0 UV-I 0 W/m 13,7 C 23,6 C 3,2 km/h (1 Bft) 91,67 %
29.05.2017 21:36 23,6 C 25,0 C 53 % 1011,8 hPa 0,0 l/m 1,0 km/h (0 Bft) O-NO 67 0 min 0,000 mm 0,0 UV-I 0 W/m 13,4 C 23,6 C 1,6 km/h (1 Bft) 95,74 %
29.05.2017 21:38 23,7 C 25,0 C 54 % 1011,8 hPa 0,0 l/m 1,5 km/h (1 Bft) O-NO 67 0 min 0,000 mm 0,0 UV-I 0 W/m 13,8 C 23,7 C 3,2 km/h (1 Bft) 97,87 %
29.05.2017 21:40 23,6 C 25,0 C 54 % 1011,8 hPa 0,0 l/m 2,5 km/h (1 Bft) O-NO 67 0 min 0,000 mm 0,0 UV-I 0 W/m 13,7 C 23,6 C 4,8 km/h (1 Bft) 97,87 %
29.05.2017 21:42 23,6 C 25,0 C 53 % 1011,9 hPa 0,0 l/m 3,7 km/h (1 Bft) O-NO 67 0 min 0,000 mm 0,0 UV-I 0 W/m 13,4 C 23,6 C 4,8 km/h (1 Bft) 96,23 %
29.05.2017 21:44 23,5 C 25,0 C 53 % 1011,8 hPa 0,0 l/m 4,9 km/h (1 Bft) O-NO 67 0 min 0,000 mm 0,0 UV-I 0 W/m 13,4 C 23,5 C 8,0 km/h (2 Bft) 95,74 %
29.05.2017 21:46 23,5 C 25,0 C 53 % 1011,8 hPa 0,0 l/m 5,2 km/h (1 Bft) O-NO 67 0 min 0,000 mm 0,0 UV-I 0 W/m 13,4 C 23,5 C 8,0 km/h (2 Bft) 95,74 %
29.05.2017 21:48 23,6 C 25,0 C 53 % 1011,8 hPa 0,0 l/m 5,4 km/h (1 Bft) O-NO 67 0 min 0,000 mm 0,0 UV-I 0 W/m 13,4 C 23,6 C 8,0 km/h (2 Bft) 98,00 %
29.05.2017 21:50 23,6 C 25,0 C 53 % 1011,8 hPa 0,0 l/m 5,3 km/h (1 Bft) O-NO 65 0 min 0,000 mm 0,0 UV-I 0 W/m 13,4 C 23,6 C 8,0 km/h (2 Bft) 95,74 %
29.05.2017 21:52 23,7 C 25,0 C 53 % 1011,8 hPa 0,0 l/m 3,9 km/h (1 Bft) O-NO 65 0 min 0,000 mm 0,0 UV-I 0 W/m 13,5 C 23,7 C 4,8 km/h (1 Bft) 100,00 %
29.05.2017 21:54 23,7 C 25,0 C 53 % 1011,8 hPa 0,0 l/m 3,5 km/h (1 Bft) O-NO 64 0 min 0,000 mm 0,0 UV-I 0 W/m 13,5 C 23,7 C 4,8 km/h (1 Bft) 95,74 %
29.05.2017 21:56 23,7 C 25,0 C 53 % 1011,8 hPa 0,0 l/m 4,0 km/h (1 Bft) O-NO 65 0 min 0,000 mm 0,0 UV-I 0 W/m 13,5 C 23,7 C 4,8 km/h (1 Bft) 96,43 %
29.05.2017 21:58 23,7 C 25,0 C 53 % 1011,8 hPa 0,0 l/m 4,1 km/h (1 Bft) O-NO 69 0 min 0,000 mm 0,0 UV-I 0 W/m 13,5 C 23,7 C 6,4 km/h (2 Bft) 100,00 %
29.05.2017 22:00 23,7 C 25,0 C 53 % 1011,8 hPa 0,0 l/m 4,5 km/h (1 Bft) O-NO 67 0 min 0,000 mm 0,0 UV-I 0 W/m 13,5 C 23,7 C 6,4 km/h (2 Bft) 95,45 %
29.05.2017 22:02 23,7 C 25,0 C 53 % 1011,8 hPa 0,0 l/m 5,3 km/h (1 Bft) O-NO 67 0 min 0,025 mm 0,0 UV-I 0 W/m 13,5 C 23,7 C 8,0 km/h (2 Bft) 96,23 %
29.05.2017 22:04 23,7 C 25,0 C 53 % 1011,8 hPa 0,0 l/m 6,1 km/h (2 Bft) O-NO 74 0 min 0,000 mm 0,0 UV-I 0 W/m 13,5 C 23,7 C 8,0 km/h (2 Bft) 97,87 %
29.05.2017 22:06 23,7 C 25,0 C 53 % 1011,8 hPa 0,0 l/m 5,1 km/h (1 Bft) O-NO 71 0 min 0,000 mm 0,0 UV-I 0 W/m 13,5 C 23,7 C 8,0 km/h (2 Bft) 100,00 %
29.05.2017 22:08 23,7 C 25,0 C 53 % 1011,8 hPa 0,0 l/m 5,1 km/h (1 Bft) O-NO 71 0 min 0,000 mm 0,0 UV-I 0 W/m 13,5 C 23,7 C 6,4 km/h (2 Bft) 96,23 %
29.05.2017 22:10 23,8 C 25,0 C 53 % 1011,7 hPa 0,0 l/m 3,6 km/h (1 Bft) O-NO 67 0 min 0,000 mm 0,0 UV-I 0 W/m 13,6 C 23,8 C 4,8 km/h (1 Bft) 98,08 %
29.05.2017 22:12 23,8 C 25,0 C 52 % 1011,8 hPa 0,0 l/m 4,3 km/h (1 Bft) O-NO 67 0 min 0,000 mm 0,0 UV-I 0 W/m 13,3 C 23,8 C 6,4 km/h (2 Bft) 100,00 %
29.05.2017 22:14 23,8 C 25,0 C 52 % 1011,8 hPa 0,0 l/m 4,5 km/h (1 Bft) O-NO 67 0 min 0,000 mm 0,0 UV-I 0 W/m 13,3 C 23,8 C 6,4 km/h (2 Bft) 100,00 %
29.05.2017 22:16 23,8 C 25,0 C 53 % 1011,8 hPa 0,0 l/m 3,4 km/h (1 Bft) O-NO 67 0 min 0,000 mm 0,0 UV-I 0 W/m 13,6 C 23,8 C 4,8 km/h (1 Bft) 100,00 %
29.05.2017 22:18 23,8 C 25,0 C 53 % 1011,9 hPa 0,0 l/m 2,9 km/h (1 Bft) O-NO 67 0 min 0,000 mm 0,0 UV-I 0 W/m 13,6 C 23,8 C 4,8 km/h (1 Bft) 97,87 %
29.05.2017 22:20 23,7 C 25,0 C 53 % 1011,9 hPa 0,0 l/m 3,3 km/h (1 Bft) O-NO 67 0 min 0,000 mm 0,0 UV-I 0 W/m 13,5 C 23,7 C 4,8 km/h (1 Bft) 97,87 %
29.05.2017 22:22 23,6 C 25,0 C 53 % 1011,9 hPa 0,0 l/m 3,2 km/h (1 Bft) O-NO 67 0 min 0,000 mm 0,0 UV-I 0 W/m 13,4 C 23,6 C 4,8 km/h (1 Bft) 95,74 %
29.05.2017 22:24 23,6 C 25,0 C 54 % 1011,9 hPa 0,0 l/m 4,2 km/h (1 Bft) O-NO 67 0 min 0,000 mm 0,0 UV-I 0 W/m 13,7 C 23,6 C 4,8 km/h (1 Bft) 100,00 %
29.05.2017 22:26 23,4 C 25,0 C 54 % 1011,9 hPa 0,0 l/m 4,5 km/h (1 Bft) O-NO 67 0 min 0,000 mm 0,0 UV-I 0 W/m 13,6 C 23,4 C 6,4 km/h (2 Bft) 100,00 %
29.05.2017 22:28 23,3 C 25,0 C 55 % 1011,8 hPa 0,0 l/m 5,2 km/h (1 Bft) O-NO 66 0 min 0,000 mm 0,0 UV-I 0 W/m 13,7 C 23,3 C 9,7 km/h (2 Bft) 98,00 %
29.05.2017 22:30 23,2 C 25,0 C 55 % 1011,8 hPa 0,0 l/m 4,9 km/h (1 Bft) O-NO 66 0 min 0,000 mm 0,0 UV-I 0 W/m 13,6 C 23,2 C 8,0 km/h (2 Bft) 97,87 %
29.05.2017 22:32 23,2 C 25,0 C 55 % 1011,8 hPa 0,0 l/m 5,4 km/h (1 Bft) O-NO 67 0 min 0,000 mm 0,0 UV-I 0 W/m 13,6 C 23,2 C 6,4 km/h (2 Bft) 100,00 %
29.05.2017 22:34 23,1 C 25,0 C 55 % 1011,7 hPa 0,0 l/m 4,5 km/h (1 Bft) O-SO 109 0 min 0,000 mm 0,0 UV-I 0 W/m 13,6 C 23,1 C 6,4 km/h (2 Bft) 94,74 %
29.05.2017 22:36 23,0 C 25,0 C 56 % 1011,7 hPa 0,0 l/m 4,1 km/h (1 Bft) O 82 0 min 0,000 mm 0,0 UV-I 0 W/m 13,7 C 23,0 C 6,4 km/h (2 Bft) 98,00 %
29.05.2017 22:38 22,9 C 25,0 C 56 % 1011,8 hPa 0,0 l/m 4,2 km/h (1 Bft) O 88 0 min 0,000 mm 0,0 UV-I 0 W/m 13,6 C 22,9 C 6,4 km/h (2 Bft) 98,00 %
29.05.2017 22:40 22,8 C 25,0 C 56 % 1011,7 hPa 0,0 l/m 4,3 km/h (1 Bft) O 90 0 min 0,000 mm 0,0 UV-I 0 W/m 13,6 C 22,8 C 9,7 km/h (2 Bft) 97,44 %
29.05.2017 22:42 22,8 C 25,0 C 56 % 1011,7 hPa 0,0 l/m 5,2 km/h (1 Bft) O 82 0 min 0,000 mm 0,0 UV-I 0 W/m 13,6 C 22,8 C 8,0 km/h (2 Bft) 96,36 %
29.05.2017 22:44 22,8 C 25,0 C 56 % 1011,7 hPa 0,0 l/m 5,8 km/h (2 Bft) O-NO 63 0 min 0,000 mm 0,0 UV-I 0 W/m 13,6 C 22,8 C 8,0 km/h (2 Bft) 98,00 %
29.05.2017 22:46 22,9 C 25,0 C 55 % 1011,7 hPa 0,0 l/m 6,2 km/h (2 Bft) O 92 0 min 0,000 mm 0,0 UV-I 0 W/m 13,4 C 22,9 C 8,0 km/h (2 Bft) 94,87 %
29.05.2017 22:48 22,8 C 25,0 C 56 % 1011,6 hPa 0,0 l/m 4,9 km/h (1 Bft) O-NO 75 0 min 0,000 mm 0,0 UV-I 0 W/m 13,6 C 22,8 C 6,4 km/h (2 Bft) 98,18 %
29.05.2017 22:50 22,7 C 25,0 C 57 % 1011,6 hPa 0,0 l/m 3,2 km/h (1 Bft) O-NO 75 0 min 0,000 mm 0,0 UV-I 0 W/m 13,7 C 22,7 C 4,8 km/h (1 Bft) 95,24 %
29.05.2017 22:52 22,4 C 25,0 C 58 % 1011,6 hPa 0,0 l/m 3,1 km/h (1 Bft) O 90 0 min 0,000 mm 0,0 UV-I 0 W/m 13,7 C 22,4 C 6,4 km/h (2 Bft) 95,12 %
29.05.2017 22:54 22,3 C 25,0 C 58 % 1011,6 hPa 0,0 l/m 4,6 km/h (1 Bft) O 86 0 min 0,000 mm 0,0 UV-I 0 W/m 13,6 C 22,3 C 11,3 km/h (2 Bft) 94,34 %
29.05.2017 22:56 22,2 C 25,0 C 59 % 1011,7 hPa 0,0 l/m 0,5 km/h (0 Bft) O 86 0 min 0,000 mm 0,0 UV-I 0 W/m 13,8 C 22,2 C 3,2 km/h (1 Bft) 97,87 %
29.05.2017 22:58 21,9 C 25,0 C 64 % 1011,6 hPa 0,0 l/m 0,1 km/h (0 Bft) O 86 0 min 0,000 mm 0,0 UV-I 0 W/m 14,8 C 21,9 C 1,6 km/h (1 Bft) 96,00 %
29.05.2017 23:00 21,6 C 25,0 C 66 % 1011,6 hPa 0,0 l/m 0,4 km/h (0 Bft) O 86 0 min 0,000 mm 0,0 UV-I 0 W/m 15,0 C 21,6 C 3,2 km/h (1 Bft) 97,37 %
29.05.2017 23:02 21,2 C 25,0 C 67 % 1011,7 hPa 0,0 l/m 1,8 km/h (1 Bft) O 86 0 min 0,051 mm 0,0 UV-I 0 W/m 14,8 C 21,2 C 3,2 km/h (1 Bft) 96,00 %
29.05.2017 23:04 21,1 C 25,0 C 68 % 1011,7 hPa 0,0 l/m 1,8 km/h (1 Bft) O 86 0 min 0,000 mm 0,0 UV-I 0 W/m 15,0 C 21,1 C 3,2 km/h (1 Bft) 94,34 %
29.05.2017 23:06 20,9 C 25,0 C 68 % 1011,7 hPa 0,0 l/m 1,6 km/h (1 Bft) O 86 0 min 0,000 mm 0,0 UV-I 0 W/m 14,8 C 20,9 C 3,2 km/h (1 Bft) 95,12 %
29.05.2017 23:08 20,9 C 25,0 C 68 % 1011,7 hPa 0,0 l/m 1,5 km/h (1 Bft) O 86 0 min 0,000 mm 0,0 UV-I 0 W/m 14,8 C 20,9 C 3,2 km/h (1 Bft) 93,18 %
29.05.2017 23:10 20,8 C 25,0 C 69 % 1011,7 hPa 0,0 l/m 0,8 km/h (0 Bft) O 86 0 min 0,000 mm 0,0 UV-I 0 W/m 14,9 C 20,8 C 1,6 km/h (1 Bft) 94,64 %
29.05.2017 23:12 20,8 C 25,0 C 68 % 1011,7 hPa 0,0 l/m 1,4 km/h (1 Bft) O 86 0 min 0,000 mm 0,0 UV-I 0 W/m 14,7 C 20,8 C 1,6 km/h (1 Bft) 92,11 %
29.05.2017 23:14 20,7 C 25,0 C 69 % 1011,7 hPa 0,0 l/m 0,7 km/h (0 Bft) O 86 0 min 0,000 mm 0,0 UV-I 0 W/m 14,8 C 20,7 C 1,6 km/h (1 Bft) 95,74 %
29.05.2017 23:16 20,6 C 25,0 C 70 % 1011,8 hPa 0,0 l/m 0,4 km/h (0 Bft) O 86 0 min 0,000 mm 0,0 UV-I 0 W/m 14,9 C 20,6 C 1,6 km/h (1 Bft) 95,74 %
29.05.2017 23:18 20,4 C 25,0 C 71 % 1011,8 hPa 0,0 l/m 0,0 km/h (0 Bft) O 86 0 min 0,000 mm 0,0 UV-I 0 W/m 15,0 C 20,4 C 0,0 km/h (0 Bft) 96,00 %
29.05.2017 23:20 20,3 C 25,0 C 71 % 1011,8 hPa 0,0 l/m 2,5 km/h (1 Bft) O 86 0 min 0,000 mm 0,0 UV-I 0 W/m 14,9 C 20,3 C 4,8 km/h (1 Bft) 94,87 %
29.05.2017 23:22 20,2 C 25,0 C 71 % 1011,7 hPa 0,0 l/m 2,8 km/h (1 Bft) O 86 0 min 0,000 mm 0,0 UV-I 0 W/m 14,8 C 20,2 C 3,2 km/h (1 Bft) 96,36 %
29.05.2017 23:24 20,2 C 25,0 C 71 % 1011,8 hPa 0,0 l/m 1,9 km/h (1 Bft) O 86 0 min 0,000 mm 0,0 UV-I 0 W/m 14,8 C 20,2 C 3,2 km/h (1 Bft) 89,74 %
29.05.2017 23:26 20,2 C 25,0 C 71 % 1011,8 hPa 0,0 l/m 2,3 km/h (1 Bft) O 86 0 min 0,000 mm 0,0 UV-I 0 W/m 14,8 C 20,2 C 3,2 km/h (1 Bft) 94,34 %
29.05.2017 23:28 20,1 C 25,0 C 70 % 1011,8 hPa 0,0 l/m 1,6 km/h (1 Bft) O 86 0 min 0,000 mm 0,0 UV-I 0 W/m 14,5 C 20,1 C 3,2 km/h (1 Bft) 94,00 %
29.05.2017 23:30 20,1 C 25,0 C 71 % 1011,8 hPa 0,0 l/m 1,8 km/h (1 Bft) O 86 0 min 0,000 mm 0,0 UV-I 0 W/m 14,7 C 20,1 C 3,2 km/h (1 Bft) 93,62 %
29.05.2017 23:32 19,9 C 25,0 C 71 % 1011,9 hPa 0,0 l/m 2,5 km/h (1 Bft) O 86 0 min 0,000 mm 0,0 UV-I 0 W/m 14,5 C 19,9 C 3,2 km/h (1 Bft) 94,00 %
29.05.2017 23:34 19,9 C 25,0 C 70 % 1011,8 hPa 0,0 l/m 3,1 km/h (1 Bft) O 86 0 min 0,000 mm 0,0 UV-I 0 W/m 14,3 C 19,9 C 4,8 km/h (1 Bft) 95,74 %
29.05.2017 23:36 19,8 C 25,0 C 72 % 1011,8 hPa 0,0 l/m 0,6 km/h (0 Bft) O 86 0 min 0,000 mm 0,0 UV-I 0 W/m 14,6 C 19,8 C 3,2 km/h (1 Bft) 94,74 %
29.05.2017 23:38 19,6 C 25,0 C 72 % 1011,7 hPa 0,0 l/m 0,0 km/h (0 Bft) O 86 0 min 0,000 mm 0,0 UV-I 0 W/m 14,4 C 19,6 C 0,0 km/h (0 Bft) 96,00 %
29.05.2017 23:40 19,3 C 25,0 C 73 % 1011,7 hPa 0,0 l/m 0,0 km/h (0 Bft) O 86 0 min 0,000 mm 0,0 UV-I 0 W/m 14,3 C 19,3 C 0,0 km/h (0 Bft) 96,23 %
29.05.2017 23:42 19,2 C 25,0 C 73 % 1011,7 hPa 0,0 l/m 0,1 km/h (0 Bft) O 86 0 min 0,000 mm 0,0 UV-I 0 W/m 14,2 C 19,2 C 1,6 km/h (1 Bft) 97,37 %
29.05.2017 23:44 19,1 C 25,0 C 74 % 1011,6 hPa 0,0 l/m 0,0 km/h (0 Bft) O 86 0 min 0,000 mm 0,0 UV-I 0 W/m 14,4 C 19,1 C 0,0 km/h (0 Bft) 98,11 %
29.05.2017 23:46 19,1 C 25,0 C 74 % 1011,6 hPa 0,0 l/m 0,0 km/h (0 Bft) O 86 0 min 0,000 mm 0,0 UV-I 0 W/m 14,4 C 19,1 C 0,0 km/h (0 Bft) 95,74 %
29.05.2017 23:48 19,1 C 25,0 C 75 % 1011,6 hPa 0,0 l/m 0,0 km/h (0 Bft) O 86 0 min 0,000 mm 0,0 UV-I 0 W/m 14,6 C 19,1 C 0,0 km/h (0 Bft) 100,00 %
29.05.2017 23:50 19,2 C 25,0 C 74 % 1011,6 hPa 0,0 l/m 0,0 km/h (0 Bft) O 86 0 min 0,000 mm 0,0 UV-I 0 W/m 14,4 C 19,2 C 1,6 km/h (1 Bft) 97,87 %
29.05.2017 23:52 19,2 C 25,0 C 74 % 1011,6 hPa 0,0 l/m 0,8 km/h (0 Bft) O 86 0 min 0,000 mm 0,0 UV-I 0 W/m 14,4 C 19,2 C 3,2 km/h (1 Bft) 97,14 %
29.05.2017 23:54 19,2 C 25,0 C 74 % 1011,6 hPa 0,0 l/m 0,3 km/h (0 Bft) O 86 0 min 0,000 mm 0,0 UV-I 0 W/m 14,4 C 19,2 C 3,2 km/h (1 Bft) 98,21 %
29.05.2017 23:56 19,1 C 25,0 C 74 % 1011,6 hPa 0,0 l/m 0,6 km/h (0 Bft) O 86 0 min 0,000 mm 0,0 UV-I 0 W/m 14,4 C 19,1 C 1,6 km/h (1 Bft) 100,00 %
29.05.2017 23:58 18,9 C 25,0 C 75 % 1011,6 hPa 0,0 l/m 0,7 km/h (0 Bft) O 86 0 min 0,000 mm 0,0 UV-I 0 W/m 14,4 C 18,9 C 3,2 km/h (1 Bft) 93,62 %
_ Min-Zeit 05:20 05:42 16:34 19:52 - 00:42 - - - - - - 16:34 05:20 00:58 19:28
Minimum _ 10,7 C 22,2 C 20 % 1011,3 hPa - 0,0 km/h (0 Bft) - - - - - - 4,0 C 10,7 C 0,0 km/h (0 Bft) 83,33 %
_ Max-Zeit 16:40 18:52 05:30 00:04 00:00 17:18 - - 10:33 14:02 13:08 13:36 10:46 16:36 17:00 00:04
Maximum _ 29,5 C 25,6 C 92 % 1017,0 hPa 0,0 l/m 11,1 km/h
O-NO (2 Bft)
- - 3 min 0,609 mm 6,7 UV-I 935 W/m 16,4 C 29,4 C 17,7 km/h
O-NO (3 Bft)
100,00 %
Durchschnitt _ 20,8 C 23,8 C 62 % 1014,2 hPa #0,0 l/m 2,1 km/h (1 Bft) O-NO - #13:12 h #5,410 mm 3,7 UV-I 486 W/m 12,1 C 20,8 C 4,0 km/h (1 Bft) 97,00 %